GFSSGP_sfc_30mbdewp_009.txt.gz
Dewpoint
43 33 30 21 11 10 8 7 10 15 49 52 50 48 48 52 48 40 63 62 61 62 64 66 68 69 69 69 69 69 70 70 69 70 69 69 67 65 63 63 64 62 63 62 63 65 66 64 62
41 29 15 16 10 7 7 10 31 41 52 53 52 52 54 54 59 61 61 61 60 63 64 65 67 68 67 68 68 68 68 69 69 70 69 69 68 67 65 65 63 62 61 63 64 64 66 64 62
34 25 8 12 11 9 12 11 40 46 48 42 52 55 54 55 60 61 62 61 63 63 63 64 67 67 67 66 66 67 67 68 68 69 69 69 68 67 66 64 63 62 62 63 64 65 65 64 60
25 13 9 6 5 7 16 19 33 39 45 51 53 52 55 57 60 62 62 62 61 62 63 62 65 66 65 65 65 66 66 67 68 68 68 68 68 67 66 65 63 62 63 63 64 63 63 63 63
13 9 4 4 5 8 23 36 39 39 43 46 47 50 54 57 62 62 62 62 60 62 63 62 63 64 65 65 65 65 66 66 67 68 67 67 67 65 64 64 64 64 63 64 65 66 66 64 63
7 7 2 3 2 3 12 26 32 39 42 43 46 48 51 57 61 62 63 62 61 61 63 63 63 62 61 63 64 65 65 66 65 66 66 67 66 66 66 64 62 63 64 65 63 63 62 63 60
5 3 4 2 1 2 4 10 11 16 29 34 46 50 54 56 60 62 63 63 61 63 63 63 63 63 62 62 62 63 64 65 65 64 64 65 65 65 65 64 65 65 65 64 62 63 62 61 61
8 5 2 2 0 0 3 9 13 11 21 44 45 40 53 55 58 61 62 63 63 63 62 62 62 61 60 61 61 61 63 65 65 64 63 63 63 63 63 62 63 62 62 61 61 61 62 62 62
8 6 6 5 4 7 10 10 13 14 30 26 39 41 45 55 57 57 59 61 63 63 62 62 62 61 59 57 59 61 62 63 64 64 63 62 61 60 59 60 61 61 60 60 59 59 58 57 56
10 8 10 11 8 10 13 11 9 12 30 40 42 46 50 55 55 54 56 58 60 62 62 62 62 61 60 58 59 60 61 61 62 64 62 61 60 59 58 59 59 58 58 59 58 58 57 56 55
14 13 14 16 14 14 18 17 16 13 23 38 36 45 53 55 55 53 55 57 57 61 61 62 63 62 61 60 60 60 61 61 60 61 62 61 59 59 58 58 57 56 56 55 56 55 55 53 52
12 17 18 17 17 18 17 18 17 16 14 23 40 45 54 54 51 49 52 53 53 55 54 56 58 57 54 59 60 61 61 60 60 60 59 58 56 57 57 57 57 56 55 55 55 55 55 55 54
17 17 19 19 19 19 19 17 16 17 17 22 41 44 50 52 49 50 49 49 48 47 51 55 56 56 53 56 56 58 58 60 59 58 58 57 56 55 56 55 56 55 55 55 55 54 54 53 53
23 23 22 22 20 21 20 19 19 18 18 20 36 45 49 49 48 44 44 46 45 44 47 52 54 55 52 51 49 49 50 52 52 52 52 56 56 55 55 55 54 54 54 53 50 48 47 46 48
24 22 22 22 22 21 20 14 13 17 16 19 30 42 43 45 41 37 41 45 43 42 45 50 52 53 53 51 50 47 45 45 46 49 50 53 55 53 54 54 54 54 51 49 49 47 46 41 43
20 18 14 18 22 18 13 12 13 16 17 16 21 30 31 31 31 34 36 37 38 40 43 48 48 49 48 50 50 48 46 44 43 47 48 50 50 48 46 46 48 50 46 50 45 37 37 36 36
18 13 15 17 22 23 16 14 14 20 20 18 18 23 27 28 28 28 32 33 33 38 41 40 44 46 45 47 49 47 44 42 41 45 47 47 48 47 46 45 44 42 41 44 39 36 36 34 34
16 13 18 18 21 26 23 19 22 24 19 18 20 21 22 23 27 30 29 32 34 37 35 32 39 40 38 38 38 38 38 39 39 39 45 47 47 47 44 44 45 41 38 39 38 36 37 36 34
18 20 21 22 22 25 25 25 25 22 19 18 19 21 27 28 31 31 32 32 33 34 33 29 28 29 34 34 34 34 33 34 37 38 40 45 47 45 42 40 42 41 37 36 38 36 34 34 36
20 20 19 24 25 27 25 24 17 18 19 21 23 26 27 29 29 31 31 30 30 30 31 31 31 31 31 32 32 32 32 32 33 35 37 41 45 45 43 39 39 41 39 37 37 36 35 35 36
20 19 21 22 26 26 25 21 17 20 22 23 24 25 27 28 29 29 30 29 30 29 29 30 30 30 31 32 33 33 34 34 33 33 34 36 43 46 44 40 37 38 40 38 37 37 36 33 37
21 21 23 24 26 22 25 18 20 17 20 22 24 24 25 26 27 29 31 31 31 31 32 32 32 33 33 34 33 33 32 31 31 32 33 34 37 40 43 42 39 37 38 38 36 37 37 36 33
24 28 27 28 27 25 23 19 20 20 17 20 25 26 27 28 28 28 28 28 30 33 34 36 37 37 38 38 38 37 36 36 36 36 35 35 35 39 41 42 40 38 39 38 36 32 29 29 28
29 29 28 29 26 21 24 22 20 21 21 24 26 27 28 28 29 30 32 33 36 38 37 37 37 37 37 37 37 38 37 37 38 38 37 37 36 37 39 40 39 35 33 32 32 32 33 33 31
29 28 18 16 19 21 26 21 21 23 24 25 26 27 28 28 29 31 31 36 37 37 37 37 38 37 37 37 37 35 36 38 38 37 38 38 35 34 35 34 33 34 35 36 37 38 39 39 38
28 28 23 15 19 22 26 21 23 25 26 25 26 26 29 31 33 34 37 37 37 37 38 38 38 38 38 37 32 33 33 34 36 38 37 37 33 32 34 36 38 40 40 40 41 40 39 37 35
28 27 30 26 26 25 25 27 27 29 31 30 29 31 33 35 36 37 38 38 38 38 38 39 39 39 39 33 31 31 31 31 31 31 34 32 32 34 38 39 39 39 39 40 39 37 36 35 34
29 30 27 29 24 22 25 25 24 27 31 30 33 32 32 34 36 37 38 38 38 39 39 40 39 39 38 31 31 31 30 29 30 30 30 29 32 37 39 38 35 34 36 38 37 34 31 29 29
29 30 30 31 30 27 26 26 31 29 30 30 32 33 33 34 36 37 38 39 39 39 39 39 39 40 33 32 32 32 31 27 27 27 29 31 33 33 32 30 31 35 35 33 31 28 28 27 25
32 31 30 27 26 28 27 25 29 30 31 32 34 35 35 35 37 38 39 39 39 39 40 39 40 38 33 35 34 33 31 27 25 26 27 28 27 27 27 28 28 28 28 28 27 26 26 24 23

GFSSGP_sfc_30mbdewp_012.txt.gz
Dewpoint
42 33 29 20 11 10 7 7 10 32 46 51 51 48 50 55 49 41 62 62 61 63 65 67 69 69 69 69 70 70 70 70 70 69 69 68 66 65 65 65 63 62 62 63 63 65 67 65 64
43 29 16 15 8 7 8 15 34 43 52 53 52 52 53 54 59 61 60 60 61 62 64 67 68 67 67 68 68 68 69 70 70 70 69 68 67 65 65 64 63 62 62 64 64 64 66 65 64
33 17 8 12 11 10 11 20 45 50 52 46 52 55 54 56 61 61 61 60 62 62 64 67 66 66 66 66 66 67 68 68 69 70 69 69 68 67 66 64 64 62 63 64 64 64 65 65 62
24 11 8 12 16 14 17 26 47 47 46 51 54 51 55 58 61 61 61 62 61 61 62 65 65 65 64 64 64 65 66 67 67 68 68 68 68 67 67 65 63 62 63 63 64 64 64 63 63
11 8 5 8 15 22 27 30 38 41 44 45 47 51 54 59 62 61 61 61 59 60 61 63 64 64 64 63 64 65 65 66 67 67 67 67 67 66 64 63 64 64 63 65 65 65 65 64 64
7 6 4 5 9 6 21 31 38 39 42 47 48 49 52 60 61 61 62 60 60 60 61 61 62 62 64 64 63 64 65 65 65 65 67 67 66 66 66 65 63 63 64 65 63 63 63 62 61
4 4 4 2 2 3 5 6 19 28 33 38 49 46 54 59 61 62 62 61 61 62 61 61 62 62 62 62 62 63 64 65 64 64 64 64 65 65 64 64 64 64 64 64 63 63 63 63 63
6 4 2 2 0 1 5 10 12 15 27 45 45 44 50 57 61 62 63 61 61 62 61 61 62 61 60 61 61 61 63 64 64 63 63 62 62 62 62 61 62 62 61 61 60 60 60 59 58
8 5 3 2 4 8 11 10 13 18 34 28 40 47 45 56 59 61 61 62 61 61 61 61 61 60 58 56 59 61 62 63 64 64 63 61 60 59 59 60 61 61 60 60 59 59 58 57 56
10 7 8 10 7 11 14 11 10 19 31 37 41 47 54 57 58 59 60 60 61 60 61 61 61 60 59 57 58 59 60 62 62 64 62 60 59 58 58 58 59 58 58 58 57 57 56 53 52
16 11 14 16 13 13 17 17 16 20 26 35 29 46 55 56 55 58 59 60 60 61 62 62 62 61 61 59 58 59 60 60 60 61 62 61 60 59 58 57 57 55 56 54 55 54 55 55 54
13 17 16 17 18 18 16 18 16 15 14 27 38 48 54 55 54 54 56 58 58 60 62 62 62 62 60 60 59 59 60 60 60 60 60 59 58 56 57 56 56 56 55 54 54 55 54 54 54
18 17 19 19 18 18 19 18 16 17 18 18 35 49 53 55 54 53 54 55 55 58 59 58 58 58 55 57 59 60 60 60 60 59 58 58 56 55 55 56 55 55 54 55 54 52 50 49 49
23 23 22 22 21 21 20 20 19 18 19 19 37 44 52 54 54 49 50 50 51 53 53 54 55 56 53 54 55 56 56 57 57 56 57 56 56 55 54 54 54 54 54 54 51 47 45 43 45
24 19 18 20 21 21 20 15 14 18 15 17 25 42 46 50 50 46 45 47 48 48 48 52 53 55 53 51 50 48 49 50 50 51 52 51 54 55 55 54 54 54 54 51 48 47 46 41 39
17 16 14 19 21 17 14 16 16 15 19 21 18 35 44 47 45 42 38 42 45 44 45 50 51 52 52 51 51 49 46 45 44 46 48 50 52 53 51 52 52 53 52 50 49 42 37 36 36
17 11 15 17 23 25 23 19 18 17 23 23 19 22 36 36 31 29 32 36 39 41 43 47 47 48 48 48 50 49 48 46 44 43 46 47 49 50 48 46 46 48 49 46 47 40 36 34 33
16 14 18 18 21 25 25 23 25 25 23 22 19 20 27 27 27 31 30 32 33 38 42 43 42 46 44 42 41 41 40 39 41 40 41 45 47 48 48 46 45 45 43 41 42 39 37 36 33
18 19 20 21 23 26 25 25 20 19 20 19 19 22 25 28 31 32 32 33 35 37 37 34 36 38 37 35 34 34 33 34 36 37 38 41 45 47 47 46 45 45 42 40 39 37 35 35 37
19 19 17 22 25 27 26 23 18 21 22 23 24 27 27 28 29 30 32 32 34 34 33 31 30 30 31 33 33 33 32 33 34 34 35 37 40 44 46 45 43 43 43 40 38 37 35 35 36
23 19 20 22 25 26 24 20 20 19 23 24 25 26 28 27 28 29 30 30 30 30 31 31 31 31 31 33 33 33 34 34 33 33 33 34 36 39 44 44 43 41 42 40 38 37 36 34 36
22 22 25 26 26 21 24 17 21 21 21 23 24 24 26 28 29 30 30 29 30 30 32 33 34 35 36 37 36 36 35 35 35 35 35 35 36 37 40 44 45 42 40 40 39 38 38 36 35
25 28 29 28 27 25 24 19 20 21 18 21 24 24 26 27 27 27 28 30 36 35 38 38 38 38 38 38 38 37 36 37 38 39 38 38 38 38 38 39 42 42 40 39 38 35 34 32 31
29 29 26 28 26 21 24 22 21 22 22 24 26 27 28 28 29 31 33 37 37 37 37 38 38 38 38 39 37 34 34 35 35 35 36 37 39 38 37 40 40 37 35 34 36 37 37 37 36
29 25 16 18 19 20 26 22 22 25 24 24 26 27 28 29 31 31 36 37 37 37 38 38 39 38 39 39 34 33 33 33 33 34 35 36 37 34 34 35 35 37 38 39 40 40 40 39 38
28 28 23 14 18 21 26 20 25 28 29 30 30 30 33 35 37 37 37 37 37 38 38 39 39 39 40 38 32 33 34 33 32 33 33 34 34 34 37 39 39 39 39 40 40 40 39 39 37
28 27 29 26 25 25 25 27 28 30 32 31 32 33 33 34 36 37 38 38 38 38 39 39 39 39 40 38 32 34 34 34 32 30 31 33 33 37 39 39 38 38 38 38 38 37 35 36 36
29 31 26 28 22 20 23 24 23 28 29 31 31 32 33 35 36 37 37 38 39 39 39 40 40 39 40 35 34 35 35 34 32 30 31 32 35 38 39 38 35 34 34 35 38 39 38 36 35
30 29 30 30 29 25 24 24 30 29 30 31 32 35 35 34 35 37 38 39 39 40 40 40 39 39 40 34 35 36 35 35 32 28 30 32 35 36 33 31 30 32 33 34 33 31 29 27 27
32 29 28 22 23 28 27 24 29 31 32 33 34 36 37 37 36 37 38 40 40 39 40 40 39 40 39 35 36 36 36 32 28 27 29 30 28 27 27 26 27 27 27 28 28 27 27 25 23

GFSSGP_sfc_30mbdewp_015.txt.gz
Dewpoint
40 30 29 21 12 13 9 11 10 40 47 51 51 46 49 54 47 42 62 61 60 63 66 67 69 68 68 70 70 70 68 69 69 68 67 67 66 66 66 64 63 63 63 64 63 65 66 65 65
39 23 19 17 11 13 21 19 20 47 52 53 53 53 53 51 59 60 58 59 60 62 65 67 67 67 67 67 68 69 70 70 70 69 68 67 66 66 66 64 64 63 63 63 64 64 66 65 63
28 14 13 14 13 11 30 33 47 51 50 49 52 55 55 55 60 59 61 59 60 61 64 66 66 66 66 66 67 68 68 69 70 70 69 69 68 67 66 64 64 63 62 62 63 64 65 65 64
21 12 12 20 17 15 25 41 49 48 47 53 53 49 56 59 60 62 59 60 59 60 63 65 65 64 64 65 65 66 67 67 68 68 68 68 68 67 66 66 64 62 63 64 65 65 65 65 64
12 12 18 22 23 26 30 38 46 43 45 48 49 51 54 59 62 61 60 60 57 58 62 63 64 64 64 64 64 65 65 65 66 66 67 67 66 65 64 63 63 64 63 65 64 63 63 62 62
8 11 18 21 19 13 28 33 40 41 45 49 49 50 53 61 61 61 61 60 58 57 60 61 63 64 63 63 63 64 64 64 64 65 66 66 66 66 65 65 65 65 65 64 64 64 64 62 63
5 7 5 6 8 7 10 7 31 36 39 39 48 47 55 60 61 61 61 59 59 59 59 60 61 61 62 61 62 63 64 64 64 64 63 64 64 64 64 64 63 63 62 62 62 62 62 61 60
7 6 3 3 2 3 6 12 12 21 35 46 48 42 51 57 61 62 62 60 60 61 60 61 62 61 61 61 61 62 63 64 63 63 62 62 61 61 60 61 62 61 61 61 61 60 59 59 58
11 5 2 2 4 8 12 11 14 24 39 33 39 49 48 59 61 62 62 60 60 61 61 62 61 61 60 58 59 61 62 63 64 63 62 61 60 59 59 60 60 60 60 59 59 58 57 55 55
10 7 8 9 7 12 14 10 10 20 31 38 42 47 55 60 60 60 60 59 59 60 60 61 62 62 60 56 59 60 61 62 62 63 62 61 61 60 59 58 59 58 58 57 57 57 56 53 53
16 11 14 15 11 15 17 17 15 21 22 30 28 46 56 59 59 60 60 59 59 60 61 61 62 63 62 60 59 59 60 61 61 62 62 62 62 61 60 59 58 57 56 54 55 55 56 56 55
16 16 16 17 18 17 15 18 16 18 15 23 36 51 55 56 58 59 59 60 60 61 61 62 63 63 63 62 61 60 60 61 61 61 61 61 60 60 59 58 57 58 56 55 56 56 56 55 54
18 18 19 19 17 17 19 18 17 17 19 19 38 52 54 55 56 58 59 59 59 60 61 63 63 62 61 59 60 61 61 61 61 61 61 60 59 59 57 57 57 56 56 55 56 55 51 48 46
24 23 22 22 21 21 20 20 20 18 19 21 36 47 53 55 55 54 54 55 56 58 59 61 59 58 57 56 59 59 60 61 60 60 60 60 59 58 56 56 55 55 55 55 56 53 47 45 44
22 17 19 21 22 19 20 17 16 17 16 18 26 41 51 54 55 54 52 52 53 55 56 57 56 57 57 54 54 54 54 54 57 58 58 58 57 56 56 55 55 55 55 56 54 50 48 44 42
17 16 16 19 23 24 18 18 19 17 20 20 23 24 43 50 51 49 47 44 47 49 51 53 53 54 55 54 53 52 50 49 49 49 50 52 53 54 54 54 54 54 55 55 53 50 46 41 38
18 10 15 18 24 26 24 21 23 25 25 25 23 21 33 43 42 34 32 36 43 47 49 50 52 52 53 51 51 52 52 50 49 48 47 48 50 52 52 51 51 52 51 52 52 50 46 40 37
15 15 18 18 22 26 25 24 26 21 22 23 21 22 29 35 32 32 33 33 38 45 47 49 49 49 49 47 46 45 44 43 44 43 43 45 46 49 50 49 50 50 47 48 49 48 45 41 37
18 18 20 21 24 26 26 25 21 22 23 21 23 24 27 28 31 32 34 35 37 42 44 45 43 44 44 41 38 37 37 37 38 38 40 41 42 44 47 46 48 49 47 46 46 45 44 41 39
19 19 18 22 25 27 26 22 21 23 25 26 28 28 29 29 30 32 34 36 38 39 41 38 34 34 34 35 36 37 37 37 37 38 40 41 41 41 42 44 44 45 45 46 46 45 41 40 40
24 20 21 22 25 27 24 20 22 21 24 25 27 28 29 29 30 31 32 34 35 35 35 33 34 36 37 39 38 38 39 39 37 36 36 38 41 41 41 42 43 44 44 43 45 45 43 40 39
21 23 28 27 26 21 25 16 22 22 21 24 25 26 27 29 30 31 32 34 36 37 41 40 40 39 40 41 39 39 36 35 35 37 37 39 40 40 41 41 42 43 44 44 43 43 43 41 38
27 29 29 28 27 26 25 19 22 23 21 22 26 27 28 30 30 32 36 38 38 40 40 41 40 40 41 41 38 37 37 37 37 37 36 37 38 40 40 39 41 42 42 43 43 42 41 40 39
30 29 26 28 27 22 25 22 24 24 23 25 27 29 30 31 32 33 38 38 39 41 41 42 41 40 41 41 37 38 38 38 37 37 35 34 35 37 38 39 40 40 39 39 40 40 40 39 38
30 24 17 19 20 20 26 22 25 28 29 29 30 30 35 37 37 37 37 38 38 39 40 40 40 40 41 41 37 37 38 39 38 37 35 35 34 35 36 38 39 39 40 40 39 39 39 38 37
29 28 23 12 17 21 27 22 26 30 31 32 34 34 35 37 38 38 38 38 39 40 40 41 40 40 41 41 39 37 39 38 37 35 36 35 34 35 39 39 39 40 40 40 39 38 38 37 36
28 28 29 26 25 26 25 27 28 31 31 32 32 33 34 36 37 38 38 39 40 40 40 41 41 39 40 41 39 37 38 38 36 37 36 34 35 38 39 40 39 40 40 40 38 37 36 36 36
30 31 26 29 21 18 22 25 23 28 29 31 32 34 36 35 36 37 38 39 40 41 41 41 42 40 40 41 38 37 38 37 37 35 33 33 36 39 39 39 35 34 34 36 36 36 37 36 35
30 29 30 30 30 25 23 23 30 29 31 31 32 36 37 37 37 37 38 39 40 41 41 41 42 41 40 40 37 38 38 37 32 30 31 33 37 37 33 30 30 31 32 31 31 31 31 31 30
32 29 27 21 21 28 28 23 28 31 32 33 34 36 38 38 38 38 39 39 41 41 40 40 42 41 40 38 38 38 35 29 28 29 31 32 30 30 31 33 34 32 30 30 30 28 27 25 23

GFSSGP_sfc_30mbdewp_018.txt.gz
Dewpoint
38 28 28 22 13 20 21 25 35 41 41 47 47 42 44 49 44 43 58 59 54 56 62 65 68 68 70 70 69 69 69 69 68 68 68 67 67 67 66 64 63 63 64 63 64 64 65 65 65
30 20 19 16 12 13 20 26 32 40 46 47 47 46 42 45 52 55 57 58 55 57 60 63 67 68 68 69 69 70 70 69 69 69 68 67 66 66 65 64 64 63 63 63 64 65 66 65 64
25 19 14 13 11 15 20 28 40 45 46 46 45 48 47 48 52 53 56 54 54 56 59 63 66 66 66 66 67 68 68 69 69 69 68 67 66 66 65 65 64 63 63 63 64 65 65 65 64
19 13 19 11 14 24 28 34 38 43 47 47 41 41 50 56 55 55 57 55 50 52 55 63 65 63 64 64 65 66 67 67 67 68 68 68 67 66 66 65 64 63 64 64 65 64 63 63 64
12 14 15 14 20 27 34 38 41 38 40 43 43 42 46 56 59 58 58 56 49 50 54 56 63 63 64 64 64 65 65 65 66 66 67 66 66 65 64 63 63 64 64 65 63 64 62 62 62
11 20 14 16 24 30 35 39 34 32 38 42 39 39 44 57 57 58 58 55 50 51 55 55 62 63 63 63 64 64 64 64 64 65 66 66 65 65 65 65 65 65 64 64 64 64 63 64 63
12 13 13 17 22 25 25 28 27 28 32 34 39 36 47 53 54 56 55 52 51 51 53 55 56 60 62 62 62 63 64 64 63 63 64 64 64 64 64 64 63 63 62 62 62 62 61 60 59
8 8 9 11 9 7 10 13 21 22 31 44 43 31 41 49 56 56 55 53 53 54 54 56 57 57 57 57 60 62 63 63 63 62 62 62 61 61 60 61 61 61 61 61 60 60 59 59 58
11 2 2 3 4 7 11 8 14 29 32 34 36 38 43 53 58 57 55 53 54 56 58 59 58 59 58 56 58 59 61 63 63 62 61 60 57 58 57 59 60 60 59 59 58 58 56 55 55
7 2 5 6 8 6 9 8 12 17 18 24 33 44 50 56 58 57 54 52 54 56 58 59 61 61 60 54 57 58 58 57 59 60 60 57 60 59 57 58 58 58 57 56 56 56 54 54 47
12 5 9 9 11 9 9 10 11 10 13 16 19 36 50 54 56 55 52 47 51 54 56 59 62 63 61 56 55 53 54 56 57 61 61 60 60 59 58 56 55 54 55 51 51 51 48 50 50
8 12 9 10 14 12 10 12 12 13 11 21 25 36 47 50 51 49 48 46 47 51 56 60 62 63 62 57 54 54 54 54 55 57 61 59 57 57 57 54 53 53 51 52 50 49 53 52 50
16 18 19 16 15 16 18 16 17 16 16 18 31 41 42 44 45 48 48 47 49 53 56 60 62 63 60 59 55 56 57 55 57 56 56 59 56 54 54 52 51 50 49 49 49 49 49 47 44
24 21 22 21 20 21 20 20 20 16 19 19 28 35 39 41 42 44 49 49 52 53 56 60 62 62 57 54 56 55 55 54 55 53 53 58 58 53 51 48 47 46 46 46 48 48 48 44 43
22 21 21 22 22 21 19 18 15 18 17 18 23 28 36 40 42 43 44 48 50 52 54 59 61 58 55 53 53 51 49 52 49 49 52 54 55 52 51 47 46 45 46 49 51 50 48 46 42
16 17 13 21 22 24 22 14 18 25 24 19 23 24 35 39 43 44 49 50 49 49 52 56 57 54 53 51 50 48 47 48 46 47 48 49 51 51 50 47 46 46 47 47 47 46 45 44 42
12 6 10 17 23 23 22 18 21 22 21 23 24 23 26 35 43 47 44 44 45 45 48 53 55 51 51 50 49 49 50 48 45 46 44 45 47 48 48 46 45 47 46 45 45 45 45 44 40
10 10 16 14 19 21 19 19 21 22 22 23 25 25 23 32 40 41 40 36 37 45 49 53 52 50 50 48 47 43 42 41 42 40 40 42 42 43 45 44 45 46 46 45 44 44 44 43 42
17 16 15 16 23 24 24 22 19 22 23 24 24 24 28 35 35 33 36 37 39 47 48 48 48 46 43 41 38 37 37 37 37 38 41 43 42 43 44 43 43 43 44 45 46 45 45 45 43
20 17 18 21 24 26 24 20 20 23 25 26 26 27 29 29 30 34 37 40 41 42 42 40 38 37 36 35 36 38 39 39 41 41 40 39 40 40 39 40 40 40 41 42 44 45 45 45 43
23 21 23 23 25 27 24 21 20 22 24 25 26 27 28 30 30 32 34 37 39 40 39 37 38 39 41 41 39 39 39 39 36 37 36 36 36 37 38 38 40 40 40 39 40 42 43 43 44
20 26 28 26 24 16 26 16 21 20 22 24 26 28 29 30 30 32 35 37 40 41 41 40 40 40 41 41 38 39 37 36 37 36 35 37 36 36 36 37 38 39 39 39 40 40 42 43 42
27 30 29 29 25 23 23 18 22 22 21 24 28 29 31 32 33 35 37 38 40 42 42 42 40 40 41 41 39 38 38 37 37 38 38 36 33 32 33 37 38 40 40 41 43 42 42 42 41
31 29 28 29 28 23 25 23 23 23 24 27 30 32 35 36 35 36 38 38 39 42 42 41 39 38 40 41 40 39 39 40 38 36 34 30 31 31 32 37 39 40 41 41 41 41 40 40 39
28 26 21 24 23 21 25 22 26 28 29 30 31 34 37 38 38 37 37 37 38 40 40 39 39 38 38 40 39 39 38 37 36 35 32 33 31 31 34 38 39 39 40 40 40 39 39 38 38
29 28 25 19 19 20 26 19 25 29 30 31 32 34 35 36 37 36 36 37 38 40 41 41 40 38 36 36 37 36 37 38 37 34 34 34 34 34 37 39 39 39 38 40 39 39 39 38 37
28 28 30 28 28 27 22 25 30 30 30 31 31 32 33 36 37 36 36 37 39 40 40 42 41 39 38 37 39 39 39 39 36 36 35 33 34 34 39 38 38 37 36 36 35 35 32 35 36
30 31 27 26 23 14 12 18 17 29 30 30 30 32 34 36 36 36 36 37 38 39 41 42 40 39 41 40 40 39 39 36 36 33 32 33 34 37 38 38 34 33 32 34 35 34 33 34 34
30 29 29 27 28 20 17 13 29 27 29 30 30 33 34 36 36 36 37 38 38 41 40 39 40 41 39 38 39 38 37 35 32 31 32 34 36 35 34 30 32 35 37 38 36 33 31 29 29
30 28 26 21 20 26 26 19 27 28 31 31 32 35 35 36 34 35 37 38 39 38 36 36 38 37 37 37 35 36 35 33 31 31 32 33 32 32 32 32 34 36 36 34 31 29 25 24 22

GFSSGP_sfc_30mbdewp_021.txt.gz
Dewpoint
42 33 24 22 15 16 21 27 31 34 36 41 39 37 37 43 46 46 54 53 56 59 62 65 68 70 70 70 69 69 69 68 68 68 67 68 67 66 65 64 63 64 63 64 65 65 66 65 65
28 17 20 17 13 14 19 24 29 34 36 35 35 35 35 40 50 52 51 51 54 56 59 65 67 68 68 69 70 70 69 69 68 68 67 67 67 66 65 64 64 64 63 63 64 65 66 65 64
35 20 15 11 11 11 19 23 33 35 37 36 35 36 40 43 47 50 50 51 52 55 59 65 66 66 66 67 68 68 69 69 69 68 67 66 66 65 66 65 64 63 63 64 64 65 66 65 64
19 13 15 10 17 19 23 31 33 34 38 37 32 36 48 48 48 50 50 49 51 51 57 64 64 63 64 64 65 66 67 67 67 68 68 68 67 66 65 65 64 64 64 65 64 63 62 62 63
17 14 11 12 20 24 29 30 32 32 33 33 32 32 45 52 52 51 48 44 44 46 51 55 62 63 64 64 64 65 65 66 66 67 66 66 65 65 64 63 63 64 65 64 64 64 62 62 63
12 16 11 15 20 27 30 31 29 28 30 29 30 34 46 52 51 51 49 44 44 48 50 52 61 63 63 64 64 64 64 64 65 66 66 65 65 65 65 65 64 64 64 63 63 64 64 63 62
13 15 14 17 20 23 26 26 23 24 25 26 27 31 44 47 51 50 47 44 43 47 49 51 54 59 62 62 63 63 64 63 63 63 64 63 63 63 63 63 63 62 62 62 62 61 61 60 59
11 13 12 15 17 15 14 18 21 20 28 29 31 28 40 47 50 48 46 45 45 47 51 51 52 52 55 58 61 62 63 63 63 62 62 61 61 60 60 62 61 61 61 61 60 60 60 59 58
9 5 5 4 5 6 7 7 9 17 24 26 26 34 38 47 48 47 46 45 48 50 53 52 51 52 52 50 57 59 61 62 62 61 60 60 57 56 58 58 59 60 59 59 59 58 57 56 57
8 2 3 4 5 4 4 5 7 17 17 19 28 33 44 48 48 47 45 45 47 50 51 54 56 54 52 47 52 53 52 54 55 56 57 54 57 57 55 57 58 58 58 57 57 56 55 54 47
6 5 5 4 4 2 2 3 5 8 11 17 22 29 42 46 47 46 45 44 44 48 49 52 59 58 55 52 48 48 49 51 53 56 57 55 56 55 54 53 54 55 56 52 54 52 50 49 49
6 6 3 3 6 7 4 7 7 7 11 15 18 31 39 43 45 45 44 42 43 46 47 52 60 60 57 51 48 48 48 50 51 54 55 53 52 52 52 50 49 47 46 47 48 47 48 51 50
7 7 5 6 8 10 12 10 10 9 12 14 23 31 37 42 43 42 42 42 43 44 46 50 57 62 56 55 50 50 51 50 53 52 52 52 51 50 49 48 47 45 45 45 45 45 46 46 46
15 16 18 16 16 16 17 15 16 14 14 13 22 28 33 36 39 41 43 43 43 44 46 50 55 61 57 50 51 50 51 50 50 48 48 51 52 51 50 48 46 45 43 43 45 46 46 46 43
18 16 19 19 20 19 17 13 14 16 17 16 18 21 29 33 35 37 41 43 43 44 46 50 55 59 57 50 49 47 46 46 45 45 48 49 50 48 49 46 46 45 45 47 46 45 45 45 45
15 16 15 18 19 22 20 15 15 20 21 18 20 21 25 30 33 36 38 40 42 44 45 48 54 58 55 48 47 45 44 44 43 44 45 46 48 48 48 46 46 46 47 46 45 44 44 44 43
12 10 7 17 19 18 18 15 18 22 20 19 18 20 22 27 33 37 42 43 42 42 44 48 54 56 53 49 46 46 47 46 43 44 43 43 45 45 46 46 45 47 46 47 47 45 45 44 44
7 5 10 8 18 14 13 13 19 20 21 21 21 22 22 24 32 40 40 40 38 45 47 49 53 53 51 48 46 43 42 40 41 40 40 43 44 44 45 45 45 45 44 44 45 47 46 46 45
11 11 11 13 19 18 17 17 18 22 22 24 23 24 24 27 39 37 39 39 42 47 48 50 50 49 45 42 39 37 38 38 38 39 42 43 43 43 42 41 40 42 40 42 45 45 45 46 46
17 16 15 19 21 21 20 18 20 22 25 24 26 29 32 33 34 36 39 42 42 42 42 41 41 40 39 37 39 40 41 40 41 42 41 40 39 39 38 39 39 39 39 41 42 43 43 44 45
20 19 22 20 21 22 21 18 19 22 24 25 27 28 29 30 31 33 37 40 42 42 40 39 40 41 42 41 39 39 39 39 37 38 38 38 40 39 39 39 38 39 40 39 41 41 41 41 42
19 25 25 23 21 16 21 16 20 21 23 25 27 29 29 30 32 34 37 39 42 43 42 41 41 40 41 42 39 40 39 38 39 40 40 41 41 38 35 34 34 38 40 41 41 38 42 42 39
24 28 26 26 23 19 18 14 21 20 21 25 28 30 32 33 34 36 37 40 41 43 44 43 40 41 41 42 41 41 40 40 40 39 38 37 33 33 32 32 34 38 39 39 41 43 43 42 42
28 28 26 27 24 20 22 19 21 21 24 26 30 33 35 36 35 36 37 38 40 42 42 41 40 39 40 41 42 41 40 39 36 36 35 33 33 32 32 32 36 38 40 40 42 41 40 40 39
27 24 22 23 22 21 24 17 26 27 28 30 31 33 35 36 36 36 37 37 39 40 41 41 40 40 39 39 39 38 37 37 36 36 34 35 33 31 32 35 38 38 41 40 40 40 40 39 38
27 26 27 19 18 18 23 14 24 28 30 31 31 32 33 34 36 36 37 38 38 39 40 42 42 40 38 39 39 39 40 38 38 36 36 34 32 33 34 37 38 39 41 41 39 39 39 38 36
27 27 28 28 29 25 16 22 28 29 30 30 31 32 33 34 35 35 36 37 38 39 39 40 41 39 39 39 40 40 39 38 37 36 34 32 33 33 34 38 39 37 37 36 36 36 37 38 35
28 29 27 26 23 14 10 11 16 28 28 30 28 29 32 33 35 35 35 36 37 37 39 39 38 37 39 39 38 37 38 37 35 33 32 32 33 34 37 39 36 35 36 37 36 36 36 36 37
27 27 27 23 24 19 14 13 23 24 26 27 27 30 33 34 35 34 34 36 37 38 38 36 36 37 37 36 35 34 34 34 33 31 31 32 33 32 31 32 34 37 36 37 36 35 34 33 32
27 26 25 22 16 23 25 21 25 25 27 29 29 31 33 35 34 34 35 37 37 37 36 35 35 34 34 32 31 31 32 32 31 31 34 35 33 34 35 38 40 39 36 34 33 32 31 31 29

GFSSGP_sfc_30mbdewp_024.txt.gz
Dewpoint
39 30 29 25 20 15 13 25 32 33 35 35 35 34 41 47 49 48 53 56 62 64 65 68 70 70 70 70 70 70 69 69 69 69 69 68 67 66 65 64 64 64 64 64 65 66 66 65 64
32 32 21 20 18 15 20 28 30 33 33 29 34 33 41 45 50 50 51 56 58 63 64 66 68 69 69 70 70 70 69 69 68 68 68 68 66 66 65 65 64 64 64 64 65 66 65 65 64
42 31 17 16 14 12 20 31 34 31 31 32 33 43 42 44 49 49 51 54 56 62 64 65 66 67 67 68 68 69 69 69 69 68 67 67 66 66 66 65 64 64 64 64 65 65 65 64 64
29 22 16 13 12 19 21 32 31 31 35 33 36 41 44 47 48 48 50 52 54 59 62 63 63 64 65 66 66 67 67 67 68 68 68 68 67 66 65 64 64 64 64 64 64 63 62 62 62
27 19 13 14 22 26 29 30 29 31 31 30 33 43 47 48 48 46 46 47 49 54 58 60 63 64 65 64 65 65 65 66 67 66 66 66 65 65 65 64 65 65 65 64 64 63 63 64 63
18 14 13 14 23 27 29 29 29 33 30 27 34 42 47 49 47 44 42 44 46 50 54 57 63 63 64 64 64 64 64 65 65 66 65 65 65 65 64 64 64 63 63 63 63 63 63 62 61
18 16 15 20 21 24 28 26 23 24 25 26 27 40 46 47 48 44 42 43 46 48 51 56 59 61 62 63 63 63 63 63 63 63 63 63 63 63 63 63 62 62 62 62 61 61 61 60 59
13 12 13 18 18 20 18 21 21 21 27 25 31 35 42 48 47 45 42 42 45 48 50 54 57 59 60 61 61 62 62 62 62 61 61 61 61 61 62 61 61 61 60 60 60 59 59 59 59
12 10 13 12 15 8 9 9 10 18 23 23 31 36 45 48 46 44 43 43 46 49 53 52 52 53 59 59 60 61 61 62 62 61 59 60 61 61 60 58 58 59 58 58 58 57 56 56 57
7 8 4 4 6 5 5 5 8 16 18 21 33 41 46 45 45 44 43 44 47 50 52 55 54 53 51 48 57 61 60 61 62 61 59 59 57 57 55 58 58 58 58 58 57 57 56 55 53
7 6 5 3 6 3 3 3 8 12 11 21 25 40 44 44 44 44 42 44 47 49 49 56 58 56 55 52 49 53 54 55 58 59 57 58 56 58 58 59 59 59 59 58 57 56 56 54 53
6 4 1 2 5 3 1 3 4 7 13 16 24 31 43 43 43 43 43 43 44 48 49 58 59 58 55 55 52 51 53 53 55 55 56 55 55 55 53 53 50 50 50 50 49 49 51 51 52
5 -0 2 4 7 9 9 6 7 8 14 16 26 32 40 42 43 44 44 42 43 46 48 53 60 61 58 55 54 53 52 55 54 54 54 55 54 54 54 52 51 50 49 47 49 48 48 50 49
9 9 9 9 11 12 11 13 14 10 12 13 23 30 36 41 41 42 41 42 43 44 48 54 58 63 59 54 53 52 54 55 54 52 51 53 54 54 53 51 51 50 49 49 48 48 50 50 49
13 14 15 16 16 14 14 14 12 15 14 12 16 23 31 34 36 39 41 42 42 45 47 52 61 60 59 53 51 50 50 47 48 50 49 50 51 51 51 51 50 50 51 50 50 50 49 49 48
12 15 14 16 17 20 18 15 12 16 15 15 17 18 21 31 32 36 40 41 42 44 47 51 52 60 59 54 51 48 48 47 46 46 48 48 49 50 50 51 51 51 52 51 51 50 49 48 48
13 11 14 18 16 18 17 16 15 18 21 19 18 20 21 23 31 35 38 41 42 47 46 47 52 56 57 54 50 49 48 48 47 48 46 48 46 48 49 49 50 51 50 50 50 49 49 48 48
11 5 8 9 16 11 10 12 17 20 20 20 19 19 22 23 29 41 41 41 46 48 48 49 55 56 54 51 49 47 45 45 45 44 46 47 46 48 47 47 47 48 46 46 46 48 48 48 48
11 8 8 11 17 16 12 14 18 20 21 23 22 24 27 37 39 41 42 44 46 49 50 51 50 48 46 45 41 42 43 44 43 44 46 44 45 43 44 44 44 44 44 45 46 46 45 45 47
14 14 14 17 18 18 17 17 19 21 24 25 27 28 35 35 38 41 43 44 43 43 42 42 42 43 43 43 42 43 43 43 44 44 42 43 43 43 43 43 42 43 43 43 44 44 45 44 45
17 17 23 20 20 20 18 18 19 22 25 27 29 30 31 33 35 38 42 44 44 44 43 42 42 43 44 45 42 42 42 43 42 43 43 44 45 44 43 44 43 42 42 42 42 43 42 43 44
17 26 25 21 20 15 19 14 19 22 24 26 28 30 30 31 34 37 40 43 44 44 44 42 42 42 43 44 43 43 43 42 43 43 42 43 42 41 38 37 39 40 43 42 43 44 45 44 42
22 26 24 24 22 20 17 19 21 22 23 26 30 32 33 34 36 37 39 42 44 46 45 43 41 40 43 43 44 44 43 43 42 41 41 39 40 39 38 37 38 41 42 42 45 43 41 41 40
25 27 25 24 23 22 19 18 23 20 23 28 32 34 35 36 36 37 38 41 43 44 44 43 41 41 42 41 42 41 41 41 40 41 40 40 39 37 37 37 39 40 42 43 42 41 40 39 39
26 24 25 26 22 22 24 19 26 26 28 30 33 34 35 36 36 36 37 38 39 40 42 42 43 42 42 42 42 42 43 43 41 40 40 38 36 36 36 37 39 42 42 42 41 40 40 40 38
26 24 28 22 23 24 22 15 26 29 31 31 32 33 34 35 36 36 36 37 38 40 40 41 42 41 40 42 44 43 42 41 40 39 37 36 36 36 37 41 41 41 41 41 40 39 40 39 39
25 27 24 24 29 24 14 26 28 29 29 30 31 31 33 34 35 35 36 37 38 38 39 41 41 39 39 40 41 42 41 40 38 37 36 36 35 35 37 38 40 38 37 39 39 37 37 38 39
24 25 24 28 22 17 12 14 26 27 29 30 29 29 31 33 34 35 35 36 38 39 40 40 38 37 38 38 38 36 36 36 36 35 35 35 36 36 36 38 38 38 39 38 38 37 38 38 37
24 24 26 22 24 21 18 16 21 24 27 28 27 29 32 33 34 34 35 38 38 39 39 38 36 35 35 35 34 33 33 34 35 35 37 39 37 36 35 38 40 39 39 37 37 35 34 32 33
24 24 24 24 22 25 26 21 25 25 27 29 30 31 33 33 34 35 36 37 37 37 37 36 34 34 34 32 30 31 32 37 36 36 35 36 38 35 35 34 36 38 37 36 35 32 30 30 29

GFSSGP_sfc_30mbdewp_027.txt.gz
Dewpoint
33 31 31 27 21 20 16 18 33 33 29 42 46 49 50 50 49 49 63 65 66 67 69 70 70 70 71 70 70 70 69 69 69 69 69 68 67 66 66 65 65 64 64 65 66 66 66 65 64
38 30 31 22 18 17 22 32 29 28 32 43 44 47 48 48 51 55 61 64 64 66 68 69 69 70 70 70 70 70 69 69 69 69 68 67 66 66 65 65 65 65 65 65 65 65 66 65 65
37 33 21 18 17 14 25 31 29 29 33 38 43 46 47 47 49 54 62 63 64 65 66 67 67 68 68 69 69 69 69 69 68 68 68 67 67 67 66 65 65 65 65 65 64 63 63 62 63
32 27 18 13 12 26 32 31 32 33 35 42 43 46 47 48 49 53 61 62 62 62 63 64 64 65 66 67 67 67 68 68 68 68 68 67 66 65 64 65 64 65 65 64 64 63 62 63 63
35 26 14 14 24 30 30 31 33 33 42 46 47 46 45 47 50 52 57 58 59 59 62 63 64 65 65 65 65 65 66 66 66 66 66 66 65 65 65 65 65 65 64 63 64 64 64 63 62
22 20 13 12 24 28 27 28 33 34 34 46 47 46 45 46 45 46 53 55 56 57 60 62 64 63 63 63 63 63 64 65 65 65 65 65 65 65 64 64 63 63 63 63 62 62 61 61 60
22 19 15 15 23 25 25 23 26 28 26 39 48 46 46 43 42 44 46 51 53 55 57 61 62 62 62 62 62 62 62 62 62 62 63 63 63 64 63 62 62 61 61 61 60 59 59 59 59
18 16 12 13 19 18 20 13 25 24 21 42 47 45 46 45 44 43 46 49 50 53 56 57 60 61 61 62 61 61 61 61 60 60 61 61 61 62 62 60 60 59 59 58 58 57 56 57 58
17 11 9 10 13 13 12 11 12 23 24 35 40 46 48 46 44 42 43 46 48 51 55 58 58 59 59 60 60 60 60 60 59 60 60 60 60 60 62 60 59 58 58 57 56 55 56 56 56
12 10 4 7 8 6 6 7 9 18 25 42 46 48 47 46 43 42 42 45 48 51 54 55 56 59 58 57 60 60 61 61 61 61 61 60 60 60 60 58 58 58 58 58 58 56 56 57 55
6 3 2 6 6 5 5 6 12 18 21 39 45 46 45 45 44 43 43 46 49 51 54 55 52 53 55 55 58 60 60 61 61 61 57 56 57 58 58 59 58 58 59 58 58 57 57 56 54
3 2 3 6 7 3 1 3 5 14 19 31 45 45 44 44 44 44 43 46 49 51 55 56 55 54 55 54 53 55 56 58 59 57 55 54 56 52 54 52 52 53 54 56 56 54 53 53 52
-0 2 4 5 10 10 7 5 8 14 18 28 44 44 44 44 44 44 44 45 48 50 56 58 57 56 55 53 53 52 54 55 55 55 54 53 55 52 53 52 51 50 50 49 48 48 47 48 48
5 2 4 5 10 12 10 12 13 13 15 28 39 42 42 43 43 44 44 44 46 49 57 59 59 59 57 54 52 53 53 53 54 54 53 53 54 53 53 51 52 50 50 51 50 49 49 49 49
10 10 9 11 13 13 14 15 13 12 12 21 29 37 40 42 43 44 44 43 45 48 57 61 62 60 59 54 51 50 54 48 51 50 51 52 51 50 51 50 51 51 52 51 50 50 51 49 49
12 15 14 16 16 14 14 14 14 14 14 18 21 21 34 40 40 42 41 45 46 55 56 61 62 60 63 54 50 49 49 48 47 50 50 50 50 50 50 48 48 50 50 49 49 49 49 49 49
13 12 16 16 18 20 18 16 15 16 15 16 17 18 19 28 36 41 45 47 47 49 51 55 60 62 59 54 51 50 48 46 46 47 48 47 48 49 48 47 47 48 49 48 48 48 49 48 47
12 12 17 16 14 10 9 13 20 21 20 20 20 23 37 41 43 46 48 49 50 52 52 50 50 51 53 51 49 48 47 47 46 46 47 45 47 44 43 43 44 44 43 44 44 44 44 45 44
12 14 14 17 18 15 15 14 21 25 23 24 36 38 40 42 43 44 45 45 43 44 43 44 43 44 43 42 41 42 42 43 43 45 43 42 45 45 44 44 42 42 42 43 43 43 43 43 44
16 19 21 18 19 16 16 19 23 26 29 33 34 37 38 41 43 44 45 45 44 42 42 43 43 43 43 43 44 44 44 44 45 46 45 45 43 42 43 43 43 43 42 42 42 41 41 43 44
24 23 22 20 21 21 20 19 22 26 28 30 32 35 37 40 42 43 43 43 43 42 42 42 43 43 43 43 43 43 44 43 43 42 42 43 42 40 39 39 39 39 43 42 41 44 43 42 43
25 28 25 23 21 19 20 16 22 25 27 30 32 33 35 38 41 43 44 44 44 44 44 42 42 42 43 43 44 43 43 41 42 42 42 41 40 39 38 38 38 40 41 40 45 42 40 39 38
24 26 25 25 23 23 22 19 21 26 28 30 32 33 36 37 40 41 43 44 45 44 43 42 42 43 43 44 44 44 41 41 42 42 41 40 38 37 37 36 37 38 42 44 41 40 40 39 37
24 27 28 27 26 22 26 23 22 23 29 33 35 35 35 36 38 40 43 44 44 44 43 43 42 42 43 43 43 42 42 43 41 40 38 37 37 37 36 36 40 42 42 42 42 41 40 39 39
27 25 26 24 25 22 30 27 30 30 31 34 35 36 36 36 37 37 39 41 43 41 43 42 43 41 42 43 42 42 42 41 39 38 36 35 35 35 36 41 41 42 42 41 40 40 40 40 38
27 26 25 21 23 23 24 25 28 31 33 35 35 35 36 36 36 36 37 38 40 40 41 41 41 40 41 42 42 41 39 41 38 36 35 35 33 34 38 39 39 38 38 39 40 40 39 38 38
23 25 24 25 30 24 22 27 30 30 31 32 33 34 34 35 35 36 37 38 38 39 41 40 37 38 39 39 38 37 37 38 35 35 36 37 37 35 37 37 38 38 38 39 39 38 37 38 37
25 25 23 26 21 20 19 27 30 29 29 31 29 32 34 35 35 36 37 38 38 39 40 38 37 37 35 34 34 33 33 36 37 37 37 38 38 37 36 39 39 39 39 39 37 36 36 35 35
25 25 25 25 25 20 19 19 30 32 33 33 32 33 34 33 35 36 37 37 37 39 39 37 35 34 33 31 31 31 36 36 36 34 34 36 36 37 37 36 38 38 38 38 37 35 34 33 32
24 25 27 22 23 26 26 23 26 31 31 31 30 32 33 34 34 34 36 37 36 36 35 35 34 33 31 30 29 29 36 35 33 32 33 33 34 36 34 31 28 33 35 34 34 32 29 24 22

GFSSGP_sfc_30mbdewp_030.txt.gz
Dewpoint
33 31 31 27 19 20 16 22 35 38 45 50 50 50 49 51 48 47 65 67 68 69 69 70 70 70 70 69 69 70 70 69 69 68 68 67 66 66 65 65 65 65 65 66 66 65 65 65 64
36 28 31 23 18 16 28 31 38 42 47 48 48 50 51 54 60 63 63 66 68 69 69 70 70 70 70 70 70 69 69 69 69 68 67 66 66 66 65 65 66 65 65 65 64 64 64 64 64
34 31 21 17 18 15 29 29 36 41 44 44 46 48 48 55 61 61 64 65 67 67 68 69 69 69 69 69 69 69 69 69 69 68 67 67 67 66 65 65 65 65 64 64 63 62 62 62 63
32 25 18 14 13 16 30 31 39 42 45 47 47 46 48 53 57 62 64 64 64 65 66 66 67 68 68 68 68 69 69 68 68 68 67 66 65 64 64 65 65 65 64 63 63 63 63 63 62
34 24 15 13 22 31 31 33 39 44 46 46 46 45 46 58 62 62 62 61 61 61 63 64 64 65 66 66 66 67 67 67 67 67 66 65 65 65 65 65 64 63 63 63 63 63 62 61 60
21 20 13 15 31 27 25 33 45 46 46 45 45 45 47 57 58 58 58 57 59 60 62 63 64 64 64 64 64 65 65 65 65 65 65 65 65 64 63 62 62 62 61 61 60 60 59 59 59
21 18 14 14 19 29 29 28 41 47 47 47 45 44 45 47 53 54 54 55 57 59 60 62 63 63 62 61 61 62 63 63 63 63 63 63 63 62 62 62 61 60 59 59 57 56 56 57 57
21 17 13 12 23 19 23 23 29 37 43 48 46 42 41 44 48 50 52 51 54 57 59 60 62 61 60 60 60 60 60 61 61 61 61 61 62 62 62 61 60 59 59 57 56 55 55 56 55
18 16 11 10 16 14 13 22 22 33 43 40 43 44 42 44 46 49 49 49 52 55 57 59 59 59 59 60 61 61 60 60 60 60 60 60 60 61 62 60 58 59 58 57 56 56 55 55 55
18 13 8 9 13 8 7 18 20 35 44 46 46 46 45 43 44 46 47 48 50 53 55 56 57 57 58 59 61 59 60 60 60 60 60 60 60 60 61 60 59 59 58 58 58 58 58 57 55
11 2 5 7 6 7 8 13 16 36 42 46 45 45 44 41 42 44 45 47 50 53 56 56 58 58 56 57 59 59 60 60 61 61 61 60 60 60 60 58 59 58 58 58 58 57 57 55 55
2 4 5 7 5 4 4 6 11 19 37 47 46 45 45 42 41 42 44 46 51 53 55 55 57 58 56 55 57 58 59 60 60 60 58 57 58 54 56 57 56 55 53 55 56 55 53 52 52
2 2 5 11 10 4 4 8 14 16 40 47 46 45 45 43 42 43 43 46 51 53 54 54 55 55 54 53 55 55 57 58 60 57 55 55 53 52 53 52 52 51 51 50 49 49 48 48 49
3 4 4 7 11 12 9 13 14 18 42 45 44 44 44 44 44 44 44 44 49 53 55 57 55 57 57 54 53 53 55 56 56 55 54 54 54 52 53 50 51 50 51 52 50 50 50 50 50
6 6 6 8 12 10 15 14 12 17 42 44 44 44 44 44 45 44 45 44 48 54 58 57 60 60 57 56 54 52 53 54 55 53 53 53 53 52 50 50 49 50 51 50 49 49 49 48 49
12 13 10 12 13 13 14 12 14 14 33 42 43 43 43 43 43 44 44 46 50 57 60 61 58 55 57 59 57 52 51 48 51 51 52 52 51 51 50 48 48 48 48 46 46 46 44 45 45
15 10 14 15 16 15 16 15 17 13 22 28 29 33 39 45 47 48 50 51 53 57 61 60 59 57 54 59 57 52 50 48 49 49 50 49 50 48 47 46 46 45 43 43 45 43 44 42 43
13 12 16 15 17 18 14 16 18 17 17 25 37 42 44 44 44 45 46 48 50 53 56 56 58 58 57 56 50 47 45 45 47 47 45 46 44 44 44 45 44 44 43 43 42 42 42 41 42
15 16 16 17 17 14 17 20 24 26 36 38 41 42 42 43 44 45 46 46 44 45 45 47 46 46 45 45 43 43 43 44 45 44 45 44 43 42 41 41 41 41 41 43 43 43 40 42 43
19 19 18 19 21 15 19 23 28 32 36 39 40 41 42 43 43 43 44 44 45 45 44 44 43 42 43 44 44 44 44 44 43 43 43 42 40 39 37 38 38 39 42 41 41 43 43 44 42
27 23 22 20 22 21 22 23 29 32 34 37 39 41 42 42 42 42 43 44 43 42 42 42 42 42 43 43 43 44 44 43 42 42 41 40 38 38 38 37 37 38 40 40 42 42 41 41 40
26 27 24 22 20 11 20 18 24 29 31 34 37 40 41 42 43 43 43 43 42 42 42 42 42 43 43 44 43 42 42 40 42 41 40 39 38 37 37 37 38 40 42 43 43 41 40 39 36
24 25 25 24 22 24 23 19 22 30 30 33 36 39 41 42 42 43 43 43 43 42 42 42 42 43 44 44 44 43 41 43 42 41 38 36 37 36 37 40 41 42 42 42 41 40 40 39 38
25 27 30 28 26 22 27 23 23 27 30 33 35 37 39 40 42 43 44 44 43 44 43 43 43 42 44 44 43 43 42 41 39 37 35 36 36 35 39 41 41 42 41 41 40 40 39 39 38
27 28 24 23 24 22 30 28 29 31 33 35 35 36 37 38 40 42 42 43 44 43 43 43 42 42 42 42 41 41 40 39 37 35 34 34 34 35 38 40 40 41 41 39 40 39 38 38 38
26 28 22 18 19 21 26 27 30 35 36 36 36 36 36 36 38 40 40 41 41 41 41 41 40 41 42 42 39 40 40 37 36 35 36 36 36 36 37 39 38 38 38 39 39 39 38 38 37
26 24 26 27 29 23 26 28 30 33 34 34 36 38 38 36 36 38 38 39 40 40 40 37 38 40 38 38 35 35 38 37 35 36 37 37 36 36 37 37 37 38 39 39 38 37 37 37 36
23 25 25 25 19 19 23 26 28 31 33 34 34 34 35 36 36 37 38 38 39 40 39 38 37 35 34 33 33 32 35 37 36 37 36 35 35 36 36 37 38 38 38 38 37 36 35 34 34
23 25 26 26 25 19 19 20 27 31 34 32 32 34 34 35 36 37 37 36 36 36 35 36 35 33 31 31 31 34 36 36 36 34 34 34 35 34 35 35 33 36 37 37 36 35 35 32 28
24 26 26 19 20 25 24 22 31 31 31 32 33 34 35 35 36 36 36 36 35 34 33 35 34 32 30 30 29 29 35 36 34 33 32 33 32 34 34 32 25 25 26 27 27 27 25 22 22

GFSSGP_sfc_30mbdewp_033.txt.gz
Dewpoint
39 31 31 26 18 20 16 17 34 41 45 49 52 50 51 56 50 47 64 67 68 68 69 69 69 69 69 70 70 70 70 69 68 67 67 67 66 65 65 65 66 66 66 65 64 64 64 64 64
34 31 28 22 17 13 27 30 38 44 48 48 50 52 53 55 62 63 63 67 68 69 69 70 70 70 69 69 70 70 69 69 68 67 67 66 66 65 65 66 66 64 64 64 62 62 62 62 62
37 29 18 17 17 13 28 36 45 47 48 45 47 48 50 58 61 61 65 67 68 68 69 70 70 70 70 69 69 69 69 69 68 67 67 67 66 65 65 65 65 64 63 62 61 61 62 62 62
31 23 17 14 11 15 27 39 46 45 46 47 48 48 49 58 61 63 66 66 66 66 68 68 69 69 69 69 69 69 69 68 68 68 67 66 65 64 64 65 65 63 62 61 61 61 61 61 60
31 20 13 12 20 27 30 37 43 43 45 46 47 46 50 61 63 64 64 65 64 64 66 66 67 68 68 68 68 68 68 68 68 67 66 64 64 64 65 64 63 62 62 61 60 60 60 59 59
21 18 13 20 30 30 33 45 46 45 45 46 48 48 52 62 62 62 62 61 62 62 63 64 65 65 66 66 66 66 66 66 66 65 65 65 65 64 63 62 61 61 60 58 57 57 57 56 56
19 16 14 14 32 31 32 42 44 44 45 45 46 47 55 58 59 59 57 58 59 60 61 62 63 63 63 63 64 64 64 64 64 64 64 64 63 63 62 60 60 59 58 56 56 55 55 55 55
21 16 13 13 29 33 36 29 45 46 45 46 45 47 53 53 56 54 54 55 58 59 60 60 61 61 61 62 62 61 62 62 62 62 62 61 62 61 61 60 59 59 57 56 55 55 55 55 55
19 16 12 21 22 20 32 28 27 43 45 43 45 44 49 51 51 50 50 53 55 57 58 59 60 59 59 59 59 60 61 61 61 61 61 61 61 61 61 60 59 59 58 57 57 57 57 56 56
21 16 14 14 24 25 18 37 40 43 45 45 42 44 48 48 47 45 45 48 51 53 56 59 58 58 58 59 60 60 60 60 60 60 60 60 59 59 61 61 60 60 59 59 59 59 59 59 56
16 8 5 9 13 13 21 31 32 43 43 44 41 43 45 46 46 44 43 46 47 51 55 57 57 57 57 57 59 59 60 59 60 59 59 59 60 60 60 60 58 58 57 57 57 56 56 55 54
5 4 6 7 8 8 14 13 36 31 42 45 42 43 44 45 45 46 45 47 49 52 54 56 57 56 56 57 57 58 59 59 59 60 60 59 58 58 57 58 56 53 51 51 51 51 50 49 49
2 6 9 8 6 3 7 12 15 20 45 45 43 42 42 43 44 45 46 48 50 52 54 56 57 57 56 56 57 57 58 59 59 60 58 56 56 52 53 52 51 51 51 51 50 50 49 49 49
3 4 8 11 10 10 12 14 16 26 47 45 44 42 41 41 42 43 44 46 51 53 54 55 56 57 55 54 55 56 57 58 59 59 56 55 53 52 52 50 50 50 51 50 49 49 48 46 46
6 3 6 10 10 11 16 13 16 32 46 45 44 44 44 42 43 43 44 45 51 54 55 55 56 57 57 55 53 54 55 55 56 56 54 54 54 53 51 50 48 49 48 46 46 45 44 42 44
12 12 9 10 12 13 14 9 14 39 45 45 44 44 44 46 47 47 45 44 49 55 56 58 60 58 58 59 57 52 50 49 52 52 52 52 51 50 48 47 46 45 44 44 44 43 41 41 41
15 11 12 15 15 14 14 14 17 34 43 41 40 42 45 46 47 50 53 53 55 59 59 59 59 58 58 54 52 49 47 48 47 48 47 46 45 45 44 43 43 43 43 43 43 42 42 40 41
10 12 13 13 16 18 13 15 21 18 31 39 42 43 44 45 45 45 48 52 54 56 57 56 57 57 57 49 47 46 45 45 45 45 43 42 41 40 39 39 39 41 40 41 42 41 41 42 42
16 14 16 16 17 16 18 25 30 36 38 40 43 42 42 43 45 46 47 46 48 50 51 51 49 48 46 46 46 44 42 43 43 41 40 39 39 38 37 36 36 38 38 40 40 41 40 42 41
20 17 17 20 22 20 27 30 34 37 40 42 42 42 42 42 43 44 46 46 47 46 44 42 42 42 43 43 44 43 43 43 41 41 40 39 38 37 36 35 35 37 38 39 39 42 42 43 40
26 22 22 20 21 23 25 26 32 36 39 41 42 42 42 41 42 44 45 45 44 42 42 41 41 41 42 43 44 44 44 44 41 40 39 39 38 38 37 37 39 40 41 41 42 42 40 40 39
24 27 24 22 18 17 20 21 28 32 35 39 41 41 42 42 44 45 43 42 42 42 43 42 42 43 43 43 42 41 40 39 42 41 39 37 37 36 38 40 41 42 42 41 42 40 39 38 37
24 25 24 24 22 23 23 23 24 32 34 37 39 41 42 42 42 42 42 42 42 42 42 42 43 44 45 44 44 42 41 42 41 38 36 36 35 36 40 41 40 40 41 41 40 40 39 38 37
26 28 30 30 26 21 26 22 24 29 32 35 38 40 41 42 42 43 43 43 43 43 43 42 42 43 44 43 43 42 42 40 38 36 35 35 35 36 40 40 41 41 41 40 40 39 38 37 37
28 28 24 23 23 22 28 27 27 29 32 35 37 39 40 41 42 43 43 43 44 43 43 42 42 42 42 42 41 41 40 38 36 34 33 34 34 35 36 38 38 39 40 39 39 38 38 37 36
27 27 20 20 20 20 27 26 29 35 35 36 37 38 38 39 40 42 42 42 41 41 41 41 42 41 41 39 39 40 38 36 35 35 35 35 35 35 36 37 38 37 38 38 38 38 37 37 36
27 23 26 27 28 22 26 29 33 34 35 36 35 36 37 37 37 39 39 40 40 40 38 38 40 39 40 37 36 38 38 36 35 35 36 36 36 36 36 37 37 37 38 38 38 37 36 36 34
23 27 24 24 17 17 22 27 28 32 34 35 36 38 36 37 38 38 38 38 39 39 37 38 39 36 33 32 32 32 33 36 36 36 36 37 36 35 36 37 37 38 38 37 37 36 35 34 33
24 24 26 27 25 19 19 23 26 32 34 35 35 36 36 37 37 36 36 35 35 35 34 36 34 33 32 32 31 31 33 36 36 36 36 36 35 35 35 35 34 33 34 34 34 32 33 29 24
25 26 24 12 17 24 21 21 29 33 34 34 34 35 35 36 36 36 35 35 34 33 32 35 34 33 32 30 30 31 33 36 36 36 35 34 33 34 35 33 29 25 27 26 24 24 24 22 21

GFSSGP_sfc_30mbdewp_036.txt.gz
Dewpoint
40 34 31 27 17 19 12 16 33 42 46 51 53 51 53 57 52 47 64 67 68 68 68 69 69 69 70 70 70 70 69 68 67 67 67 66 66 65 66 66 66 65 64 64 63 62 62 61 62
36 31 28 22 13 10 16 23 37 46 50 53 51 53 55 56 61 62 63 67 67 68 69 69 69 70 70 70 70 69 68 68 67 67 67 66 66 66 66 65 65 64 63 62 60 60 61 62 61
39 31 18 16 15 9 21 35 46 48 48 47 47 49 54 58 61 62 65 67 68 68 69 69 69 69 69 70 69 69 69 68 68 67 66 66 66 65 64 65 64 63 60 59 59 60 60 60 60
32 23 17 13 10 14 24 44 46 46 46 48 47 45 52 59 61 64 66 67 66 67 68 69 69 69 69 69 69 69 68 68 68 67 66 66 64 63 64 65 63 61 60 59 59 59 59 59 59
30 20 12 12 18 24 23 44 46 44 45 47 45 46 52 61 64 66 65 65 65 66 68 68 68 68 69 68 68 68 68 68 68 67 66 64 63 64 64 63 61 61 59 58 58 57 57 57 56
21 18 13 25 30 32 42 44 46 46 46 47 49 50 55 62 63 64 65 64 65 65 66 66 67 68 68 68 68 68 67 67 67 66 65 64 64 64 63 61 60 59 57 56 56 56 55 56 56
19 15 15 29 31 32 42 42 45 45 44 46 50 52 58 61 61 61 62 62 62 62 63 64 65 65 66 66 66 66 66 65 65 64 64 64 63 62 61 60 59 58 57 56 56 56 56 57 57
21 16 14 25 31 33 31 42 44 43 45 46 51 51 56 58 58 58 58 58 59 60 60 60 62 62 62 63 63 63 63 63 63 62 62 62 62 61 60 60 59 58 57 58 58 58 58 57 57
19 16 13 16 30 34 36 38 32 45 44 45 45 53 56 56 55 54 53 55 56 58 59 60 60 59 59 60 62 62 62 62 61 61 61 61 60 61 61 60 59 59 59 59 59 59 59 59 57
21 17 15 20 26 34 35 35 40 43 45 42 45 51 54 54 52 49 49 49 52 54 56 58 59 58 58 59 60 59 60 60 60 60 60 59 59 59 60 61 60 60 59 59 58 58 57 56 54
18 17 10 15 26 24 29 32 40 43 42 43 46 50 51 51 47 46 46 47 49 52 55 57 58 57 57 57 58 58 59 59 59 59 59 59 59 59 59 59 58 57 56 53 54 53 53 50 50
15 11 6 8 16 19 31 29 41 39 37 43 48 49 48 47 44 43 43 45 48 51 53 56 57 56 56 57 58 58 58 59 59 59 60 59 58 58 58 57 56 52 51 50 50 50 49 49 49
13 5 10 7 8 20 15 25 36 24 45 43 47 46 45 43 43 42 41 44 47 50 53 55 56 56 56 56 57 57 58 59 59 60 60 58 57 55 54 52 52 51 51 51 49 48 47 45 45
5 7 9 6 6 9 13 15 19 29 45 42 44 44 44 43 44 45 46 46 48 50 52 55 56 58 56 55 56 56 57 58 59 59 57 56 54 53 52 50 50 49 48 47 46 45 44 42 42
7 5 8 10 10 13 14 13 16 41 44 42 42 43 42 42 43 43 44 46 49 51 54 55 57 58 58 56 55 54 55 55 56 55 54 53 53 51 49 47 45 45 45 45 44 43 42 41 41
10 11 4 9 10 14 11 7 15 45 44 44 43 43 44 46 48 49 48 44 49 53 57 59 58 59 57 54 53 52 50 50 51 51 49 47 47 45 43 41 41 43 43 43 42 42 41 40 41
14 11 12 11 14 13 13 13 22 44 45 42 42 44 45 46 47 48 53 51 51 58 58 59 58 59 57 54 51 50 47 46 46 44 43 41 41 40 38 38 39 39 39 40 41 40 41 39 41
10 11 13 14 16 16 14 23 32 32 41 42 43 44 45 45 45 47 52 55 56 57 58 58 59 58 55 52 49 46 44 43 42 40 39 39 39 39 38 37 38 39 37 37 39 39 40 41 42
15 13 13 16 18 22 31 32 36 38 41 42 43 44 44 45 45 47 49 51 53 53 55 57 58 56 52 49 45 43 42 41 40 40 40 40 39 37 36 35 36 38 38 39 40 41 41 42 41
18 16 18 21 21 25 31 33 37 39 41 42 42 42 42 43 45 46 48 49 49 50 51 49 46 45 44 44 43 42 42 41 40 40 39 39 37 36 36 37 38 40 40 41 42 41 40 41 40
25 20 21 20 24 25 26 28 34 38 41 42 42 42 42 43 44 45 45 45 43 41 41 41 41 41 42 43 44 44 43 42 40 40 38 38 37 36 37 38 39 40 40 40 41 40 38 37 38
22 26 23 21 17 17 21 17 29 35 39 41 41 41 41 42 44 45 43 41 41 41 42 41 42 42 43 44 42 41 40 39 41 40 38 37 36 37 39 40 40 39 40 38 40 40 39 37 35
24 26 25 24 22 21 22 21 26 36 38 39 40 41 41 43 43 42 41 41 42 42 42 42 43 43 44 44 43 42 41 42 40 38 36 36 35 37 40 39 39 39 40 40 40 39 38 38 36
26 29 29 29 26 22 26 22 23 32 35 37 39 41 41 42 42 42 42 42 42 43 42 43 43 43 43 43 43 42 42 40 37 36 35 34 35 35 38 39 39 40 40 39 39 39 38 37 36
29 27 22 23 23 21 27 25 24 29 33 37 38 40 41 41 42 42 43 42 43 42 43 42 42 42 42 42 42 42 41 39 37 35 34 33 33 34 34 36 38 39 39 39 39 38 37 36 36
28 26 23 20 22 22 27 26 28 34 33 37 39 40 40 41 42 42 43 43 43 42 42 42 42 41 41 40 40 39 38 36 35 34 34 34 34 35 35 35 37 37 37 38 38 37 37 37 36
27 22 26 26 27 21 24 29 33 35 35 36 37 38 39 39 40 40 41 41 40 39 38 40 41 41 40 37 38 38 37 36 35 36 35 35 36 36 36 36 36 37 37 37 38 37 36 35 35
24 29 23 23 13 12 21 25 27 33 34 35 36 36 37 37 38 38 38 39 39 37 37 38 40 37 38 34 34 33 33 35 36 36 35 36 36 36 35 36 36 37 38 37 37 37 35 34 34
25 24 26 26 24 15 15 20 29 33 34 35 35 38 37 37 37 36 35 35 34 33 34 36 36 33 33 32 32 32 32 35 36 36 36 36 36 35 35 35 35 33 32 34 34 33 31 31 26
25 25 22 7 13 23 21 19 30 33 35 36 36 36 37 36 35 35 34 34 33 33 32 35 35 34 33 32 31 31 30 31 32 33 34 35 34 34 34 35 33 32 31 30 28 26 25 23 22

GFSSGP_sfc_30mbdewp_039.txt.gz
Dewpoint
38 33 31 29 19 17 10 15 33 46 48 52 53 51 52 56 52 48 65 66 67 67 67 68 69 69 69 70 70 70 69 68 67 67 67 66 66 66 67 67 65 64 63 61 60 61 61 61 61
36 31 29 24 13 6 6 23 42 48 52 52 50 53 53 55 61 63 63 67 67 66 67 67 69 70 70 70 70 69 68 67 67 67 66 66 66 66 66 65 65 63 60 59 59 59 58 58 58
36 29 21 18 15 6 15 42 48 51 53 50 48 51 50 53 62 62 66 67 66 66 67 68 69 70 70 70 70 69 69 68 68 67 66 66 66 64 64 65 63 60 59 58 57 57 58 58 58
31 23 19 14 16 15 29 46 47 47 47 48 48 47 57 61 62 64 67 67 66 66 67 68 69 69 70 69 69 69 68 68 67 67 66 65 63 63 64 63 61 59 57 57 57 57 57 57 57
26 20 14 12 17 24 34 46 47 45 45 46 46 45 54 62 64 65 66 66 66 67 68 68 68 69 69 69 69 68 68 67 68 67 66 64 63 64 62 61 61 59 57 57 57 57 57 57 58
23 19 14 28 31 33 44 47 46 44 45 46 49 51 56 63 64 64 65 65 66 67 68 68 68 68 68 68 68 67 67 67 67 66 65 64 64 63 61 60 59 58 57 57 57 57 58 58 58
21 16 18 28 33 40 45 47 43 41 44 45 51 53 59 61 63 65 64 65 66 66 66 66 66 67 68 67 67 67 67 66 65 64 64 63 62 61 60 60 59 58 58 58 58 58 59 59 58
22 18 21 30 34 37 39 44 37 39 44 48 54 50 55 59 62 63 63 63 63 63 63 64 64 65 65 65 66 65 65 64 64 63 63 62 61 60 60 58 59 59 59 59 59 59 59 59 57
20 15 13 28 36 39 39 39 36 45 45 46 45 55 58 59 60 60 60 59 58 58 60 61 61 61 61 62 62 63 63 62 62 61 61 60 60 60 59 60 60 60 60 60 59 59 58 56 53
21 17 15 20 37 41 40 38 39 44 45 42 50 55 58 58 59 58 56 53 52 54 57 59 60 59 60 58 61 61 61 60 60 60 61 60 60 60 60 60 59 59 57 56 57 56 54 51 50
20 17 17 16 32 37 35 38 44 43 43 43 48 55 57 57 55 54 49 48 49 52 55 57 58 59 58 58 59 58 59 59 60 60 60 60 60 60 60 60 59 57 53 52 52 51 51 51 49
15 13 9 12 20 29 33 38 43 42 38 45 52 56 55 55 52 47 45 45 48 51 54 56 58 58 58 58 58 58 58 59 59 60 60 60 60 60 60 58 54 53 53 53 51 50 50 47 46
16 9 9 13 17 29 29 38 41 34 44 49 53 53 52 52 47 43 43 44 48 50 53 56 57 57 57 57 58 58 59 59 60 61 61 60 59 57 54 54 52 51 50 48 47 46 45 44 43
11 9 7 9 17 20 23 25 33 34 44 49 50 49 48 46 42 41 41 42 46 49 53 56 58 58 57 56 56 56 58 58 60 61 59 58 56 55 53 51 48 46 46 46 45 44 43 41 41
8 9 10 11 14 16 15 14 16 40 43 46 47 45 44 42 42 42 44 44 46 49 55 57 59 58 56 55 55 55 53 55 58 57 56 56 54 52 49 47 45 45 45 45 43 42 42 39 38
10 11 6 11 11 15 12 10 22 46 42 43 44 44 43 46 48 50 51 48 49 53 57 59 59 57 57 56 56 54 53 54 54 54 53 51 49 47 44 42 42 43 42 41 40 39 37 37 37
14 5 9 11 15 14 13 15 30 40 43 42 43 44 45 46 47 50 55 55 52 57 58 59 59 58 58 56 55 51 50 50 48 46 45 45 45 44 41 41 41 40 39 39 39 37 39 36 38
11 12 13 11 16 22 19 29 34 39 43 43 44 45 45 45 47 51 55 57 58 58 58 59 58 57 56 53 50 48 46 45 44 42 42 42 42 41 40 39 40 39 37 38 40 40 39 41 42
13 13 14 17 20 29 32 34 36 41 43 43 44 44 45 46 49 52 54 56 58 59 59 58 57 57 53 49 47 44 44 42 41 41 42 41 40 40 40 38 38 38 36 39 41 39 38 35 39
18 17 19 22 24 29 32 34 38 40 42 42 43 44 46 48 50 51 52 54 56 57 58 58 54 53 50 46 45 44 43 42 41 40 41 40 39 39 38 39 38 38 33 35 37 38 33 34 39
24 21 20 20 25 28 28 28 35 39 42 42 43 44 46 47 47 47 48 49 51 52 53 54 53 50 48 46 45 45 44 42 40 40 39 38 38 38 39 39 38 38 37 34 36 38 38 32 36
22 25 23 20 19 17 23 14 29 37 40 41 42 43 44 45 46 44 42 42 43 43 44 44 45 45 45 45 45 44 42 41 43 41 39 37 38 38 39 39 40 39 39 37 36 38 39 38 33
26 27 25 23 22 22 22 19 26 37 39 41 42 42 42 44 44 42 41 42 43 44 44 44 45 45 46 46 45 44 44 43 41 39 39 39 38 38 40 40 40 39 39 39 40 39 39 39 36
31 29 29 29 27 20 24 21 21 33 36 41 41 41 42 43 43 42 42 43 43 45 45 45 44 44 45 45 45 45 44 42 40 39 38 37 37 37 38 39 40 40 40 40 39 40 40 38 37
29 26 20 17 21 19 27 27 27 29 34 41 40 40 42 43 42 42 42 42 42 43 43 44 44 43 44 44 44 44 43 42 41 39 37 36 34 34 35 38 38 38 39 40 40 39 39 37 36
28 27 23 16 21 24 27 25 27 34 34 39 40 40 41 42 42 42 43 43 44 45 44 44 43 42 42 42 42 42 41 39 38 37 37 37 36 36 38 38 38 38 39 39 39 39 39 37 36
27 22 26 25 26 22 22 27 31 35 35 38 39 40 40 41 42 43 44 44 43 42 42 44 42 42 40 40 41 40 40 39 38 38 38 38 38 37 37 38 38 37 38 39 39 37 35 34 33
27 29 24 24 12 10 18 23 23 32 33 37 38 39 40 40 40 41 41 41 41 39 39 41 41 40 40 37 36 35 35 35 37 38 37 37 37 36 36 36 37 37 38 38 36 35 33 33 33
26 26 26 26 24 10 9 12 30 32 34 35 37 39 39 39 39 38 37 37 36 35 37 38 38 35 35 34 34 34 34 34 35 34 33 33 34 33 33 34 35 36 35 33 32 31 29 29 28
26 25 24 11 12 24 22 15 28 33 35 37 37 38 38 38 36 35 35 34 34 33 36 36 35 35 34 33 33 31 32 33 31 30 31 33 33 33 34 35 35 34 35 34 34 35 27 25 24

GFSSGP_sfc_30mbdewp_042.txt.gz
Dewpoint
41 32 21 28 20 15 15 19 39 45 50 52 51 50 51 54 51 49 64 64 63 64 65 67 69 69 69 70 70 70 69 68 67 67 67 66 67 67 67 65 64 63 60 60 60 59 57 57 57
25 24 23 23 14 10 13 17 35 48 51 51 50 51 50 52 59 63 62 64 64 64 64 65 69 69 70 70 70 69 68 67 67 67 66 66 67 66 65 65 63 60 58 57 56 56 56 57 58
31 24 21 18 16 15 13 34 46 51 52 53 49 50 49 51 61 62 64 65 64 63 63 66 69 69 69 69 69 69 69 68 68 67 66 66 65 64 64 63 62 59 57 56 55 55 56 57 58
20 19 18 16 12 15 26 44 49 46 47 49 52 50 56 61 60 64 66 65 63 63 64 68 69 68 69 69 69 69 69 68 67 67 66 64 63 64 63 62 61 58 56 56 56 55 56 57 59
22 19 8 8 13 19 31 44 44 43 44 44 44 44 52 61 63 66 66 64 63 63 64 67 69 68 69 69 69 69 68 68 67 67 65 63 63 62 61 61 59 58 57 57 57 58 58 59 59
16 17 6 6 18 28 39 43 42 42 40 43 43 46 55 63 63 65 65 64 65 65 65 66 68 69 69 69 68 68 67 68 67 65 65 64 63 62 60 59 58 58 58 58 58 59 59 59 59
14 9 9 19 25 34 42 44 41 40 40 43 49 47 58 62 64 65 65 66 66 66 65 65 65 67 68 67 67 67 67 66 65 64 64 63 62 61 60 60 59 59 59 59 59 59 60 60 58
20 14 21 26 29 38 43 38 41 38 39 50 51 47 55 60 64 65 64 64 65 65 62 60 60 61 61 63 66 66 65 64 64 63 62 61 60 59 58 58 60 60 60 60 60 60 59 56 54
22 12 20 33 35 40 43 37 39 43 42 46 47 53 57 62 63 62 62 62 62 61 60 58 57 58 57 57 63 63 63 63 62 61 61 59 56 56 56 59 61 61 60 60 59 57 54 52 51
18 12 16 30 38 37 36 37 38 39 42 44 48 57 60 61 60 59 59 58 53 51 52 55 55 56 56 54 57 57 56 56 57 57 58 57 59 57 56 59 59 58 55 54 54 52 50 49 47
17 14 18 18 38 36 35 36 39 35 39 42 44 55 58 59 58 57 51 45 44 47 49 52 56 57 55 55 55 53 55 57 59 60 60 60 59 59 57 56 55 54 52 50 51 50 49 50 47
17 16 14 19 36 32 37 37 38 38 35 42 44 56 57 55 55 48 41 40 43 48 49 52 55 57 57 54 55 56 56 58 58 59 61 60 59 60 59 56 54 53 52 52 51 49 49 47 45
17 14 15 29 32 30 35 35 37 36 43 47 52 55 52 50 43 37 36 39 45 48 50 52 54 55 56 57 57 58 58 58 60 60 62 61 60 59 56 55 52 51 49 48 47 46 45 44 43
18 10 14 22 29 28 32 37 37 37 45 50 53 50 44 42 36 37 38 40 47 49 52 55 56 56 56 57 58 58 58 59 59 61 61 60 59 57 55 53 50 48 47 46 45 45 43 42 42
11 9 11 15 24 24 27 29 21 37 44 47 47 45 40 37 36 36 36 38 45 50 55 57 58 58 57 57 55 55 56 57 59 60 59 59 58 56 53 50 47 45 44 43 42 42 40 40 39
9 9 11 16 22 18 18 14 27 41 42 43 43 42 41 39 38 40 44 42 43 50 56 58 59 58 57 57 56 56 56 56 57 57 57 55 52 50 47 44 43 44 43 41 41 39 38 36 35
9 5 6 11 15 19 15 15 29 42 40 41 42 42 41 43 44 47 50 48 47 52 57 58 58 58 57 56 56 57 54 53 50 48 48 47 46 45 43 43 43 42 40 40 37 34 32 31 30
10 3 7 6 15 13 13 23 28 41 40 39 41 42 43 44 45 51 53 53 51 55 58 59 59 57 57 57 56 54 48 45 44 43 43 43 43 44 42 42 42 38 34 31 33 33 32 32 33
12 13 8 13 21 19 19 24 28 40 41 41 42 43 44 45 49 53 55 56 57 59 59 58 58 59 59 56 52 46 44 43 43 43 43 43 42 43 42 38 35 32 31 34 34 32 29 28 32
14 14 17 21 21 24 27 28 32 36 41 42 42 43 45 48 51 54 56 56 57 57 58 58 58 58 56 52 47 45 44 43 42 42 43 42 42 40 36 35 32 33 31 32 33 34 31 27 28
21 19 20 18 24 27 25 26 32 37 40 43 44 44 46 48 51 54 55 56 57 57 57 56 54 53 49 46 46 45 45 43 41 42 41 41 40 37 35 35 34 34 33 31 33 33 32 29 28
19 24 22 21 19 14 24 11 27 34 35 40 43 45 47 48 48 48 47 50 51 52 51 46 47 47 48 47 44 43 40 40 43 43 41 40 37 35 34 35 36 36 35 35 33 31 34 32 29
24 25 23 22 20 20 20 16 22 34 34 36 41 45 46 46 44 40 39 41 42 45 45 45 45 44 45 46 45 45 44 43 43 42 42 38 37 35 34 35 36 36 35 35 36 36 35 33 31
30 28 27 26 24 17 17 19 8 22 28 36 41 45 46 45 41 38 39 40 42 45 46 45 44 45 46 46 46 46 44 41 39 38 35 33 33 32 33 35 35 36 36 36 35 36 35 34 33
28 22 13 16 17 14 26 23 14 27 32 36 41 44 44 42 40 39 40 41 42 44 45 46 44 44 46 46 44 43 41 38 34 33 30 31 30 31 32 35 35 34 33 36 36 35 33 34 33
25 22 14 8 13 16 27 20 24 32 34 35 41 43 42 40 39 39 40 41 42 44 44 44 43 43 43 42 41 40 36 33 32 34 35 34 34 35 37 37 36 33 32 33 34 35 34 34 32
27 22 28 26 28 23 17 23 28 33 34 34 40 41 39 39 40 40 42 43 43 44 46 45 43 42 41 40 40 39 37 36 35 36 37 36 37 33 28 28 27 27 29 32 34 34 33 32 32
28 28 23 23 16 8 8 14 11 28 32 34 38 38 38 39 40 41 42 44 44 43 43 44 42 40 39 38 37 35 34 34 35 36 35 31 26 24 25 25 26 27 28 30 32 32 29 30 31
27 25 25 23 24 10 6 5 27 28 31 33 37 38 37 39 41 42 42 43 42 39 39 40 39 37 36 35 35 35 32 32 32 27 25 25 26 25 25 26 28 28 29 31 33 33 30 32 31
26 25 23 14 15 25 23 8 24 31 35 34 35 37 38 40 40 41 40 39 37 36 36 36 36 35 35 34 32 29 27 27 24 23 25 27 27 27 27 27 28 29 31 35 35 34 35 31 26

GFSSGP_sfc_30mbdewp_045.txt.gz
Dewpoint
43 36 27 18 16 12 10 15 20 39 45 49 50 46 51 53 53 51 61 61 63 63 64 65 69 69 70 70 70 69 69 68 68 67 67 67 67 67 65 64 63 60 59 58 56 55 55 56 58
29 19 12 18 13 11 11 15 20 48 51 50 50 50 50 51 59 60 61 61 63 63 64 64 69 69 70 70 69 69 68 67 67 67 67 67 66 65 64 62 62 59 57 56 54 55 57 58 58
26 18 13 12 13 9 12 26 45 49 50 47 46 48 49 53 60 61 63 63 63 63 63 66 68 70 70 70 69 68 68 68 67 67 66 65 64 64 62 61 61 58 56 55 54 56 57 58 59
18 9 13 15 14 15 15 40 45 45 46 46 47 46 52 60 57 63 64 63 62 63 66 67 68 69 69 69 68 68 68 68 67 67 65 64 63 62 61 61 59 57 57 57 56 57 58 59 59
15 13 9 6 9 12 18 44 43 43 41 45 44 48 53 58 59 61 64 63 63 65 65 66 68 68 68 68 68 68 68 68 68 66 64 64 62 61 61 60 59 58 58 58 58 58 59 60 59
10 12 13 9 9 19 29 42 43 42 39 39 40 45 51 58 57 61 63 64 65 64 65 66 67 67 68 68 68 68 68 67 66 65 65 63 61 60 59 59 59 59 58 58 59 60 60 59 58
14 14 13 13 14 28 43 45 43 45 42 38 41 45 56 58 59 63 64 64 63 65 65 64 65 67 68 67 67 67 67 66 65 65 64 62 62 61 61 60 59 59 59 59 60 60 59 57 55
15 16 14 15 18 27 38 41 39 38 39 43 46 45 53 59 63 55 65 63 65 64 63 59 61 61 63 65 66 66 65 64 64 63 61 60 59 58 58 59 60 60 60 60 60 59 57 54 52
17 16 14 20 26 45 42 36 37 38 36 40 45 47 52 62 63 60 61 62 62 58 56 55 55 56 58 60 64 64 63 63 62 60 60 58 54 55 56 58 61 60 59 59 58 56 52 52 53
15 16 15 38 45 39 40 40 33 36 35 40 47 56 60 61 60 59 59 59 57 53 52 54 54 54 53 51 56 55 54 55 56 56 57 56 56 57 56 57 59 56 54 54 53 51 51 51 46
18 16 19 41 46 37 30 31 35 35 33 32 39 54 58 58 57 57 56 54 47 48 48 52 54 54 51 52 52 51 54 57 58 58 57 59 56 56 56 56 56 54 52 51 51 50 49 50 48
16 16 16 17 33 30 30 35 32 33 31 38 44 54 54 54 54 54 49 39 43 46 48 51 54 55 53 52 50 54 53 55 55 59 60 58 58 59 57 54 53 52 50 52 50 48 49 48 47
13 18 16 28 29 29 34 42 44 29 33 35 50 51 51 51 51 41 36 40 45 46 48 49 52 54 56 55 56 56 56 57 60 60 62 61 61 59 58 56 53 52 50 48 48 48 47 46 45
16 22 26 31 31 30 32 38 31 35 37 44 48 47 46 43 36 34 37 43 45 47 50 51 53 55 56 58 59 58 59 58 60 62 62 61 61 59 56 55 52 50 49 48 46 46 44 44 43
16 25 26 26 29 29 31 27 27 36 38 43 44 41 38 33 33 35 38 44 47 50 52 54 56 57 57 56 54 55 56 56 58 60 61 60 59 57 55 52 49 47 45 45 43 44 43 40 39
16 12 19 21 26 27 28 19 26 36 37 36 37 33 31 30 33 35 36 41 48 52 55 56 57 58 57 57 56 55 56 56 57 58 57 56 54 52 49 47 46 45 44 43 42 37 35 33 32
11 10 14 17 21 19 22 13 26 33 35 36 36 35 33 34 33 38 41 41 44 53 56 57 59 59 58 57 58 57 56 55 54 51 51 49 47 46 45 45 45 43 40 37 35 34 32 31 30
8 10 11 13 17 15 10 17 27 33 33 36 37 36 36 38 39 44 46 45 45 52 57 58 58 59 58 58 58 56 55 51 47 45 45 45 45 45 44 44 43 38 36 36 36 35 32 30 28
12 5 6 6 9 8 9 16 25 31 32 33 37 38 39 41 44 49 50 50 48 54 57 58 58 58 58 57 54 53 49 46 44 44 44 44 44 44 43 39 37 37 33 33 34 34 32 30 29
9 13 8 12 11 18 13 16 23 31 32 32 35 39 41 43 47 50 52 53 55 57 58 58 57 58 58 55 51 48 45 43 43 44 45 44 44 41 37 39 36 35 34 32 33 34 33 31 31
13 12 22 15 17 16 18 18 26 30 32 36 37 38 40 43 47 51 53 55 56 56 57 57 56 54 51 46 45 45 44 44 42 43 43 43 42 39 37 37 36 35 33 32 34 33 32 30 30
16 22 18 17 18 13 19 11 21 29 32 37 39 40 42 45 49 52 53 56 57 57 55 53 49 46 45 44 43 42 40 41 43 42 41 42 40 38 36 34 35 36 35 34 33 32 34 33 30
24 23 20 17 13 16 18 11 21 28 28 33 38 41 44 47 48 49 50 51 50 51 48 44 44 43 45 45 43 44 43 43 42 41 43 42 40 36 34 34 35 34 34 33 34 34 34 34 33
26 23 22 19 16 16 13 15 11 22 24 30 36 41 44 45 45 42 43 44 44 47 45 45 44 43 45 46 46 45 45 41 39 40 38 36 33 31 31 32 33 34 33 31 31 32 31 34 33
23 21 18 17 13 13 21 18 11 19 28 27 36 41 44 44 41 38 38 38 42 44 45 45 44 44 45 46 46 44 43 40 37 35 33 31 30 30 31 34 34 33 31 30 30 30 32 33 33
21 19 15 9 8 10 21 9 21 29 32 33 38 41 44 44 40 38 38 38 41 44 45 45 44 44 46 45 43 42 39 35 34 32 33 33 33 33 34 34 32 28 26 26 28 29 31 33 35
22 17 24 20 29 19 9 14 29 30 31 33 37 41 43 41 39 38 39 40 41 44 44 45 44 43 43 42 40 38 37 34 33 34 35 34 35 31 26 26 26 26 26 26 27 29 29 33 33
25 26 19 18 15 8 4 6 14 23 26 31 36 40 41 40 38 38 39 41 43 44 45 46 45 43 41 40 38 36 34 33 34 35 34 32 28 25 24 24 25 25 26 27 27 27 29 32 30
25 22 20 20 20 14 6 8 16 20 25 29 33 39 40 39 39 39 40 42 44 45 45 46 43 41 37 36 36 36 34 33 33 31 26 24 26 25 25 25 25 25 26 26 28 31 31 33 30
24 20 21 18 14 18 23 11 20 23 25 28 31 36 38 38 39 40 41 43 44 43 42 42 39 36 35 35 36 33 33 30 27 24 23 25 26 27 26 25 26 26 26 27 32 33 31 31 30

GFSSGP_sfc_30mbdewp_048.txt.gz
Dewpoint
42 42 36 25 15 16 12 14 15 40 39 49 50 50 54 56 55 51 62 62 63 63 65 67 69 70 70 70 70 69 69 68 67 68 68 68 67 66 64 63 61 59 56 55 55 57 57 58 58
34 30 23 11 13 9 10 33 40 50 53 51 49 50 52 56 59 60 62 63 62 63 62 65 69 70 70 70 69 69 68 68 67 67 67 66 65 64 62 62 60 58 56 54 57 57 58 58 59
33 22 14 8 10 13 11 41 40 48 49 48 48 49 51 55 58 62 64 64 62 63 64 68 69 69 69 69 69 69 69 68 67 67 65 64 63 61 61 61 60 58 56 55 57 58 58 59 59
23 16 9 8 13 12 22 39 45 46 46 46 47 47 52 57 57 63 65 65 63 64 66 68 68 69 69 68 69 69 68 68 67 65 64 63 61 61 60 61 60 59 57 58 58 58 59 60 59
18 13 6 9 10 12 13 40 42 41 43 45 46 48 47 58 63 65 66 64 65 66 65 67 67 68 68 69 69 68 68 67 66 65 65 62 61 60 61 61 60 59 59 58 59 59 59 59 58
15 10 10 13 11 9 45 50 48 46 44 41 44 42 48 57 60 63 65 65 67 63 66 65 67 67 68 68 68 68 67 66 66 65 64 62 61 60 60 60 60 59 59 59 59 59 58 56 54
13 14 12 14 14 16 42 47 47 49 44 45 49 43 52 57 57 63 64 65 65 66 65 66 66 68 67 67 67 67 66 65 65 64 63 62 61 60 60 60 60 60 60 60 59 59 57 54 51
12 13 14 14 13 42 47 46 51 46 44 49 51 46 51 58 62 61 63 64 64 65 63 65 66 67 66 66 66 65 64 63 63 61 60 59 59 59 59 59 60 60 60 60 59 57 55 53 52
14 12 14 17 38 44 45 46 51 41 39 45 42 53 53 60 62 57 58 60 63 63 63 62 62 64 65 65 65 64 63 62 61 60 59 57 56 57 58 59 59 58 57 57 56 53 51 53 54
14 15 16 34 42 44 44 46 48 35 36 36 51 57 61 61 56 59 57 59 59 57 56 58 60 61 62 59 62 61 60 59 58 58 58 59 60 58 57 58 58 56 53 54 54 51 51 52 51
13 16 18 38 41 44 41 42 45 35 37 38 51 56 59 60 58 59 59 59 58 53 54 56 56 56 55 55 58 56 57 59 60 59 60 59 59 57 57 60 59 58 55 56 52 53 53 51 50
13 19 18 37 42 44 44 47 44 41 40 42 50 56 56 56 57 56 56 49 48 50 53 55 56 57 55 54 53 54 57 59 59 60 60 61 60 60 60 59 59 57 53 53 52 52 52 51 49
16 18 20 19 37 31 39 41 39 43 34 46 51 50 52 53 57 58 43 45 47 49 52 55 56 56 54 57 59 61 61 60 61 62 62 63 62 61 60 57 56 54 52 51 50 49 48 47 46
16 21 26 30 29 28 37 35 39 35 47 48 46 46 47 51 50 39 40 45 46 48 50 53 55 57 60 60 60 59 59 60 62 62 62 62 61 60 59 57 53 50 49 48 46 45 45 46 44
23 25 26 28 30 30 41 40 37 35 43 43 42 43 44 39 34 37 42 45 47 50 51 54 56 60 59 57 57 57 57 58 59 60 60 58 58 56 54 52 49 48 47 46 46 43 40 38 38
18 22 22 22 28 30 32 36 32 35 38 39 39 38 35 32 32 38 44 46 49 51 53 55 58 59 56 55 55 56 56 56 58 58 56 54 52 53 50 49 48 47 46 45 41 40 38 36 36
20 15 17 19 21 25 29 25 28 33 34 35 34 34 31 32 34 37 41 47 51 54 55 57 59 58 59 58 58 57 57 56 55 53 52 49 48 48 47 48 47 44 41 41 39 39 38 36 35
15 12 14 14 17 20 22 17 23 30 33 33 32 29 30 31 33 37 39 43 53 56 58 59 60 59 59 59 59 58 55 52 50 48 48 47 47 47 48 46 43 40 39 38 38 39 39 38 36
17 14 16 14 15 13 11 17 17 26 30 35 34 33 33 33 40 45 45 45 51 58 59 60 59 58 58 59 56 53 51 49 47 46 47 47 46 46 44 42 40 39 38 37 38 38 37 37 36
12 16 15 9 9 7 10 10 20 22 27 33 36 36 37 39 43 48 49 49 51 57 59 59 59 58 58 58 54 53 49 47 46 47 47 46 46 42 43 40 40 39 38 38 39 38 38 36 37
12 21 22 21 18 10 14 10 20 24 25 28 33 37 39 41 45 48 50 52 57 59 59 59 58 57 58 54 52 50 49 47 45 47 46 46 44 41 39 39 39 39 38 38 39 38 38 36 36
21 28 22 24 26 12 24 19 25 23 26 28 31 35 38 41 45 49 51 55 57 57 58 58 57 57 53 48 46 45 44 44 44 45 46 45 41 40 38 36 37 38 39 38 38 36 37 37 35
26 25 26 17 14 19 22 23 26 29 26 28 35 36 38 41 44 49 55 56 56 57 58 58 56 50 47 47 46 45 46 44 46 44 45 45 44 41 38 35 37 37 38 38 38 38 36 36 35
28 26 20 19 22 17 24 25 24 27 30 30 34 38 40 43 47 49 54 55 56 58 55 49 46 45 46 46 47 46 46 43 43 42 43 42 42 38 36 36 38 38 38 37 36 35 35 35 36
20 17 18 27 27 15 13 17 15 29 29 34 34 39 42 46 47 47 48 49 49 48 48 47 45 45 46 47 47 47 45 43 40 38 38 35 34 35 37 38 37 36 33 32 33 33 34 35 35
29 22 26 20 22 20 25 14 23 29 28 32 36 39 44 45 44 43 44 43 46 47 47 46 45 45 46 48 47 45 43 41 38 35 35 36 36 37 37 34 32 31 31 31 32 32 33 33 36
26 20 24 17 28 21 13 6 29 28 29 31 35 39 43 44 42 40 40 41 43 46 47 47 45 46 47 47 45 42 39 36 35 35 36 37 37 32 31 29 30 30 30 31 32 32 32 35 34
20 21 20 17 14 12 9 8 25 24 25 29 34 39 43 44 42 40 39 41 43 45 47 48 47 45 45 44 42 39 38 35 36 36 36 34 30 28 28 29 29 29 29 30 30 31 34 33 34
24 22 16 14 19 18 17 14 16 19 24 26 30 38 42 43 42 40 40 41 43 45 46 48 47 44 43 42 39 38 35 37 35 35 30 27 27 28 28 28 29 28 29 30 31 34 32 31 32
22 20 20 22 18 21 21 21 19 21 24 26 28 36 40 42 41 40 40 42 43 46 47 47 47 42 40 38 37 36 38 37 33 30 26 26 28 29 28 29 29 30 30 31 33 33 33 32 33

GFSSGP_sfc_30mbdewp_051.txt.gz
Dewpoint
45 44 44 32 20 19 16 16 23 43 49 51 55 55 57 57 55 51 65 64 64 68 69 70 70 70 70 70 70 69 69 68 68 68 67 67 65 64 63 61 60 57 56 57 57 57 57 57 57
38 36 36 27 11 11 12 33 47 46 52 49 50 54 55 57 60 62 62 64 65 67 69 69 69 70 69 69 69 69 68 68 68 67 66 65 63 62 60 60 59 57 57 57 57 57 57 57 58
40 31 21 12 8 8 15 36 50 49 50 48 49 50 54 57 60 62 64 64 64 65 68 69 69 70 69 69 69 69 68 68 67 66 65 63 62 60 59 61 60 58 58 58 57 57 57 58 57
28 21 17 8 7 9 11 39 46 46 46 48 48 49 55 58 60 64 66 65 63 66 68 68 68 69 69 69 69 68 68 67 66 65 63 61 60 60 60 62 60 59 58 58 58 58 58 56 54
24 20 12 7 6 10 46 44 47 44 45 45 47 47 52 59 65 65 66 67 66 66 66 66 67 68 69 69 68 68 67 66 66 64 63 62 60 60 60 62 61 60 59 58 58 58 57 54 52
23 15 9 8 10 44 47 48 47 44 44 46 47 47 51 60 63 64 65 64 65 64 64 65 67 67 68 68 68 67 66 66 65 63 63 62 62 61 61 61 60 60 59 59 59 57 54 53 51
21 14 14 13 13 43 46 49 48 47 44 44 49 49 54 57 62 64 63 62 64 65 64 66 67 67 67 67 66 65 65 65 64 62 61 60 60 60 60 60 60 59 59 59 57 56 53 52 51
17 14 11 12 28 43 48 50 51 46 43 49 49 49 53 56 64 64 62 62 62 65 64 65 65 66 66 66 65 64 64 63 61 59 59 58 58 58 59 59 59 59 58 57 56 53 54 53 52
16 13 11 19 38 42 47 44 50 46 47 47 49 48 58 61 61 61 61 61 61 62 63 65 65 65 66 65 63 63 62 60 59 58 57 57 58 58 59 58 58 57 56 55 54 54 53 53 53
13 12 14 36 43 44 45 45 46 45 42 47 53 58 60 57 58 58 58 57 59 61 62 62 64 64 63 63 62 61 61 59 58 57 57 57 56 57 59 58 58 57 56 54 54 54 53 52 50
12 12 23 35 41 44 43 46 49 47 41 41 51 56 58 56 55 58 54 56 57 59 59 62 63 62 60 61 59 59 59 58 57 57 57 57 60 58 59 57 58 58 56 55 54 54 52 49 49
12 13 24 33 44 44 43 41 44 44 40 44 56 57 55 55 56 57 55 56 58 57 56 57 59 59 56 60 58 56 58 59 59 61 62 62 60 61 60 59 59 57 55 51 49 47 46 46 45
13 14 22 39 43 43 46 41 40 44 45 50 57 58 56 56 57 58 59 57 55 54 54 55 55 54 55 59 61 61 61 62 62 62 62 62 61 59 59 56 53 51 48 46 45 44 45 43 41
26 26 27 34 36 38 42 42 37 42 44 48 55 55 55 54 57 58 56 50 52 54 54 55 55 57 60 59 58 59 61 62 61 61 61 60 60 58 54 51 49 47 46 46 44 41 39 38 38
26 24 26 28 38 37 32 33 34 42 48 50 50 52 52 46 52 54 46 48 51 53 54 54 58 59 57 57 57 57 59 60 60 58 57 56 55 53 51 49 47 47 46 44 41 38 37 36 36
22 23 22 27 37 38 31 30 34 38 43 44 44 48 51 44 48 45 46 47 50 52 54 55 59 56 56 56 56 56 57 58 58 56 54 52 52 50 48 47 46 48 43 40 39 38 37 36 36
20 18 18 20 35 36 33 32 34 37 40 39 38 35 35 37 40 45 47 49 50 52 54 58 56 55 56 56 56 55 56 55 55 52 50 48 48 48 48 46 42 42 41 39 38 37 38 37 36
18 18 18 16 22 32 28 27 31 36 38 36 34 32 32 34 39 44 48 50 53 54 58 57 58 57 57 57 57 57 55 53 50 48 47 47 47 48 48 45 40 41 38 38 39 38 37 37 36
18 19 17 16 19 21 27 27 30 33 35 34 33 31 32 34 37 39 47 53 55 58 59 58 57 57 57 58 57 56 52 49 47 47 47 47 47 45 44 43 41 39 37 39 39 38 36 37 38
20 18 19 22 18 17 15 19 27 29 33 33 31 31 31 35 41 42 47 55 57 58 59 58 58 57 57 58 57 53 50 48 47 47 48 47 45 44 41 40 39 38 37 37 38 37 38 37 36
27 24 22 21 25 19 16 17 19 25 28 36 35 33 35 42 44 47 49 55 58 59 59 58 58 57 57 59 55 52 49 48 47 46 47 46 43 41 41 40 39 38 38 37 38 37 35 36 36
27 24 27 20 18 15 23 17 23 25 25 28 36 37 38 41 47 48 50 57 59 59 59 59 58 57 57 58 53 50 46 45 45 46 46 45 43 40 39 37 38 37 38 37 38 38 37 35 33
25 27 22 25 24 23 23 21 24 24 25 27 28 37 40 43 47 49 53 57 58 59 58 58 57 57 57 51 50 47 45 45 46 47 46 44 42 40 38 37 38 38 38 39 36 34 34 35 34
23 22 27 31 29 21 22 21 24 24 24 28 31 37 39 43 47 52 55 56 57 57 57 57 57 57 50 47 47 45 45 46 45 45 45 44 44 43 39 38 37 38 35 32 32 33 32 33 34
26 26 23 19 20 21 24 24 24 29 29 29 29 34 41 47 51 55 55 55 56 56 57 57 55 49 46 47 48 47 44 43 42 42 40 35 35 38 37 36 35 33 31 31 31 31 31 31 32
28 28 20 19 21 22 26 24 26 29 31 33 35 38 44 48 49 53 55 55 56 55 53 50 46 46 46 47 47 45 42 39 38 37 37 37 38 38 31 30 30 30 30 31 31 31 31 32 35
28 26 31 23 30 25 19 23 29 30 32 37 38 41 45 46 45 47 48 50 49 47 47 46 46 46 47 48 45 42 38 36 35 36 38 37 33 30 29 29 28 29 30 30 30 31 31 33 33
25 25 24 22 12 12 16 19 25 28 30 35 38 43 44 44 43 44 44 46 46 46 47 47 47 47 48 46 42 39 37 36 37 37 36 34 30 29 29 29 29 29 29 30 30 33 34 32 31
24 21 22 20 24 17 18 14 24 26 28 28 37 42 44 44 42 41 41 44 46 46 47 46 47 47 45 42 41 37 36 37 37 36 34 28 28 29 29 29 29 29 30 32 33 33 33 32 32
23 23 25 18 17 23 22 19 22 25 27 28 28 41 44 44 43 41 40 43 45 46 47 47 47 44 42 39 38 38 38 38 37 36 28 29 29 30 30 30 29 31 31 32 32 31 32 32 32

GFSSGP_sfc_30mbdewp_054.txt.gz
Dewpoint
52 49 42 31 19 20 16 16 19 24 48 52 56 55 55 57 54 48 63 64 68 68 70 70 70 70 70 69 69 69 68 68 67 66 66 65 63 62 61 60 60 59 57 57 56 55 55 55 56
44 40 36 25 14 9 10 23 46 47 50 52 52 56 57 57 61 62 61 65 67 67 69 69 70 69 69 69 69 68 68 67 67 65 64 63 61 61 58 58 60 59 57 56 55 54 55 55 57
40 33 23 21 9 6 9 35 46 49 52 49 49 54 56 57 60 63 63 65 68 67 68 69 69 69 69 69 68 68 68 67 66 65 63 62 60 59 59 60 61 59 57 56 55 55 55 55 56
28 21 18 10 8 9 17 45 48 47 47 48 50 51 56 62 63 65 64 66 67 68 68 69 69 69 69 68 68 68 67 66 65 64 62 61 59 60 60 61 60 58 57 56 55 55 54 52 53
24 19 14 8 8 26 47 48 48 45 46 47 47 48 54 63 65 65 65 65 66 67 68 67 68 68 68 68 68 67 66 66 64 63 62 61 60 60 61 62 61 60 58 57 56 55 54 52 52
23 16 10 8 13 43 47 48 49 47 47 46 46 48 53 63 63 63 65 65 64 64 64 63 65 65 67 68 67 66 66 65 64 63 62 62 62 61 61 61 60 60 59 58 56 55 53 52 54
21 18 13 13 13 28 45 49 47 47 46 45 47 49 55 60 62 63 64 64 64 65 65 64 63 63 66 66 66 65 65 64 63 62 62 61 61 60 60 60 59 59 58 57 55 54 53 52 53
19 16 13 12 27 36 47 50 50 46 42 48 50 50 50 59 62 62 62 63 63 62 62 63 65 65 66 65 64 64 63 62 60 60 59 59 58 59 59 58 59 58 57 55 55 54 53 53 54
17 13 12 12 37 40 48 44 47 49 47 47 52 55 57 61 61 60 59 61 61 62 61 63 63 63 65 64 63 63 61 59 58 59 58 58 58 58 58 57 58 57 56 55 55 54 53 52 51
13 12 11 21 43 44 45 45 46 46 44 53 56 59 60 61 59 58 58 59 59 60 61 63 62 64 64 62 62 61 60 59 58 57 57 56 57 58 59 57 58 57 56 56 55 55 52 49 49
14 12 23 41 44 45 44 45 46 42 40 49 55 56 58 58 57 57 57 58 58 60 59 62 64 64 62 60 60 60 58 57 56 56 56 57 57 59 57 58 59 57 56 54 50 48 47 45 45
12 13 22 42 44 42 43 44 42 44 42 53 56 57 56 57 55 54 53 55 57 59 60 62 63 62 60 59 58 58 57 58 58 57 58 58 60 59 59 59 55 55 49 46 46 45 42 40 39
19 17 32 42 43 42 43 40 40 39 45 54 53 56 55 54 52 54 55 55 56 58 58 61 61 59 59 58 57 58 60 60 62 62 62 61 60 59 55 52 50 48 47 44 41 39 37 37 35
24 39 41 43 42 44 42 40 40 41 46 53 55 55 55 54 53 55 55 54 57 56 56 58 59 57 60 60 60 60 61 62 61 60 60 60 57 53 51 49 47 46 45 41 39 37 36 36 35
26 32 36 37 37 36 40 36 38 43 45 51 55 54 56 55 55 56 56 55 55 54 54 55 58 59 58 59 59 60 60 60 58 57 57 56 55 51 50 48 47 46 42 39 38 37 36 36 36
19 22 24 37 36 35 33 29 35 39 48 51 54 54 56 54 53 57 57 55 54 54 54 58 58 57 57 57 57 58 59 58 57 55 54 54 51 49 47 46 46 43 40 39 38 37 36 36 36
21 19 19 28 31 34 30 28 33 38 41 49 51 51 52 54 55 56 53 51 53 53 54 58 56 56 56 56 56 56 56 55 54 51 50 50 49 48 45 42 43 41 39 38 38 38 37 35 35
19 18 19 20 32 32 32 30 31 35 42 44 48 49 43 47 49 49 47 50 52 53 57 56 56 56 56 55 55 54 54 53 51 49 48 48 48 48 45 41 41 39 38 39 38 36 37 37 36
24 22 19 20 24 31 29 28 28 36 40 37 38 44 42 44 45 46 48 50 52 56 57 56 56 56 55 55 54 53 51 50 48 47 47 48 48 48 43 41 40 38 38 38 37 37 37 36 37
29 25 21 23 22 30 27 28 30 35 37 34 33 35 36 38 42 47 49 50 52 57 57 56 56 55 55 56 56 55 52 49 47 47 47 48 45 43 41 39 38 37 38 37 37 37 37 36 37
27 28 25 22 23 22 19 22 24 29 35 36 34 32 33 36 40 48 51 52 56 58 57 56 56 56 55 56 56 52 49 47 47 47 47 46 43 42 41 39 38 38 37 36 38 37 35 34 35
25 29 28 25 18 11 22 17 24 23 32 34 34 32 33 38 41 50 52 55 56 58 58 57 57 56 56 58 56 50 47 45 46 46 46 44 42 41 40 39 39 38 38 38 38 37 36 34 31
26 30 28 26 24 22 22 18 21 26 23 30 34 34 34 41 42 50 54 56 58 58 58 58 57 57 57 58 55 50 46 46 46 47 46 44 42 41 39 39 39 38 39 36 32 32 32 34 32
29 26 30 30 28 21 21 21 19 23 23 25 31 35 37 44 44 50 56 58 58 58 58 58 58 57 57 57 53 50 46 46 46 46 45 44 44 42 40 38 38 36 33 31 32 32 31 30 31
27 24 20 19 19 18 25 23 21 26 27 27 28 37 39 44 48 53 56 57 58 58 58 58 57 57 55 54 51 49 46 46 46 46 45 43 39 38 37 36 33 32 31 31 31 30 30 30 32
29 25 18 15 17 19 26 22 23 30 31 31 30 34 43 46 50 53 55 56 57 57 57 57 57 54 50 49 48 47 45 44 44 43 40 39 39 36 32 31 30 30 31 31 31 30 32 34 34
28 26 29 25 30 25 22 22 29 31 33 35 36 38 44 49 53 54 55 55 56 56 56 56 53 51 47 48 45 41 40 39 39 40 39 37 34 32 31 30 30 30 29 30 31 32 33 33 32
25 28 25 26 14 13 15 19 25 28 31 35 36 37 45 48 51 53 54 54 53 53 51 50 49 47 48 45 42 39 38 39 40 40 40 36 34 32 32 29 29 29 30 32 33 34 33 32 32
23 22 23 23 21 17 17 15 21 29 31 35 37 40 45 46 47 49 51 52 51 49 47 46 46 47 48 43 40 38 40 40 40 39 36 32 33 31 30 30 29 29 31 33 33 32 32 32 32
32 27 26 21 16 23 20 17 24 28 30 33 36 43 45 45 44 46 47 49 47 46 46 47 46 47 44 39 39 41 40 41 41 37 34 34 31 31 30 30 29 30 30 32 32 30 30 32 32

GFSSGP_sfc_30mbdewp_057.txt.gz
Dewpoint
53 46 41 30 21 19 15 16 20 19 43 55 56 56 55 58 53 45 63 63 68 68 69 70 70 69 69 69 69 69 68 67 65 64 64 63 62 61 61 61 60 58 55 54 55 55 57 62 64
44 41 31 20 15 10 8 15 43 46 52 55 54 55 56 56 61 61 61 66 67 69 69 69 69 69 69 68 68 68 67 66 64 63 62 61 60 60 60 60 60 58 55 54 53 54 55 58 60
39 30 25 22 10 6 7 28 38 49 52 51 51 56 56 57 62 61 64 66 67 68 68 69 69 69 69 68 68 68 67 66 64 63 61 60 59 59 60 61 60 58 55 54 53 53 55 57 58
27 20 16 12 10 9 14 44 47 47 48 49 51 51 57 63 63 63 66 66 67 68 68 68 68 68 68 68 68 68 67 65 64 63 62 60 59 59 61 61 60 58 55 54 54 55 56 57 59
23 19 14 9 7 20 46 47 48 46 46 47 48 50 54 62 64 63 65 66 67 68 68 67 66 67 68 68 68 67 66 65 64 63 62 61 61 61 62 61 60 59 57 55 55 56 57 55 56
23 16 10 9 11 38 46 48 48 46 46 48 48 50 55 63 63 64 65 65 65 65 66 65 66 65 66 66 67 66 65 64 64 63 62 62 62 62 61 61 60 60 58 57 55 55 56 56 55
21 18 14 13 12 25 44 49 47 46 46 45 49 49 55 60 62 63 64 63 64 64 64 65 64 63 62 63 66 65 65 64 63 63 63 62 62 61 61 60 59 59 58 57 56 55 55 55 54
22 17 13 13 14 26 47 49 50 46 44 49 51 49 52 59 62 63 63 63 63 64 64 64 63 63 64 65 65 64 63 63 62 62 61 60 60 60 60 59 59 58 57 56 56 55 55 55 54
18 14 13 13 24 36 47 43 47 48 46 55 57 55 58 61 61 60 59 59 60 61 61 61 61 63 63 64 64 63 62 61 60 60 60 59 59 58 57 58 58 58 57 57 57 55 52 50 49
15 12 11 15 36 42 46 44 45 45 47 53 55 59 60 59 59 58 57 56 57 58 59 60 62 62 63 62 63 62 60 59 59 58 58 57 57 57 58 58 58 57 57 56 52 49 48 44 42
16 14 14 34 43 46 44 44 46 43 42 52 53 56 58 58 57 58 59 58 57 59 60 62 62 63 62 61 61 60 59 58 57 57 56 56 58 58 57 58 57 55 53 48 46 43 42 39 38
14 14 21 40 45 44 43 44 43 44 43 53 57 58 57 57 57 57 57 58 58 59 60 61 62 62 61 60 59 59 57 56 56 56 57 58 57 58 58 56 55 48 47 44 42 40 38 36 35
17 28 26 42 43 42 42 39 40 46 55 57 56 57 56 56 56 56 57 57 58 58 59 59 62 61 60 58 57 57 57 57 59 60 60 60 59 58 56 51 48 46 43 40 38 37 36 35 34
39 41 42 42 42 44 38 39 38 42 53 56 55 56 55 54 53 54 54 55 57 58 58 61 61 59 59 58 57 58 60 61 61 61 61 60 57 53 50 48 47 43 40 39 37 36 35 35 34
36 35 36 38 41 39 41 35 38 44 53 55 54 55 54 53 52 54 54 54 55 57 57 60 59 58 59 58 58 60 61 60 59 59 59 56 53 50 48 47 45 41 40 38 37 37 36 35 34
29 30 30 34 37 36 36 29 40 48 53 54 54 54 52 51 53 54 55 53 55 55 56 58 58 58 58 58 59 60 60 58 57 56 56 54 51 49 48 47 44 41 40 38 37 36 36 36 35
21 19 24 27 37 35 33 29 35 45 50 54 53 53 53 53 55 54 57 53 56 54 56 57 58 57 57 57 58 58 57 56 54 54 53 51 49 48 46 43 41 40 39 38 38 37 36 35 35
21 19 19 20 28 32 32 30 34 41 48 51 53 53 55 54 53 53 57 55 54 54 57 57 57 56 56 56 56 55 54 53 51 51 50 49 48 45 42 42 40 39 39 38 36 35 38 37 35
28 25 23 23 23 26 25 30 29 38 43 46 52 51 53 54 54 54 56 53 53 55 57 56 56 55 55 54 53 52 51 50 49 48 48 48 48 44 41 40 38 39 37 36 36 37 36 36 37
27 27 26 25 24 27 28 27 29 35 40 44 48 50 47 50 51 52 52 50 52 55 56 56 56 55 54 54 54 53 51 49 48 47 47 48 48 44 41 39 37 39 38 37 37 37 36 36 36
25 26 26 25 25 29 22 22 25 32 39 40 43 49 44 45 46 48 47 50 52 55 56 56 55 55 54 55 54 52 48 47 46 46 47 47 45 43 40 39 38 37 37 36 37 36 34 32 34
23 28 28 28 23 16 22 14 24 29 37 37 37 41 41 42 43 45 47 49 51 54 56 56 56 55 55 56 53 51 49 46 46 45 47 46 44 42 40 39 39 38 38 38 37 37 35 33 29
24 29 28 27 25 23 22 19 19 25 31 35 35 34 35 37 40 45 47 49 52 56 56 57 56 56 56 56 55 51 49 46 46 46 46 45 43 43 41 40 39 39 39 35 32 32 31 33 31
29 28 28 29 27 20 22 20 19 23 25 30 35 35 33 35 39 45 49 51 54 57 57 57 56 56 56 57 55 52 49 46 45 46 46 44 43 41 39 39 38 35 32 31 31 31 31 30 31
27 24 18 17 18 17 24 23 22 23 25 25 29 35 35 37 41 48 52 54 56 57 57 57 57 56 57 57 55 53 50 46 45 46 45 44 41 39 38 36 35 36 32 32 31 30 30 31 31
28 24 17 13 15 17 26 22 21 29 34 32 30 34 37 40 45 52 54 56 56 57 57 58 57 57 57 56 55 53 50 47 46 46 45 41 39 36 36 39 35 32 32 30 30 31 31 33 33
27 24 26 24 29 24 22 21 27 30 32 35 32 39 39 42 47 51 55 56 57 57 57 57 57 57 54 54 52 50 47 45 43 42 40 37 38 41 41 33 33 33 30 30 31 31 33 33 32
27 30 23 26 16 14 15 19 19 26 27 33 36 35 44 46 50 53 55 56 57 57 57 57 57 55 52 50 47 45 43 41 40 40 40 40 40 40 36 34 35 31 31 32 33 33 33 32 32
27 24 24 25 20 16 16 17 19 27 29 27 30 38 44 48 51 53 54 55 56 56 55 55 53 52 49 45 41 40 41 41 41 40 40 42 40 38 38 39 35 33 31 33 33 32 32 31 31
26 24 24 19 18 23 20 16 22 25 30 32 34 38 44 47 50 52 53 54 53 53 52 52 51 49 47 41 40 41 41 42 42 42 40 39 40 40 38 36 32 30 31 33 32 30 30 30 30

GFSSGP_sfc_30mbdewp_060.txt.gz
Dewpoint
51 42 39 27 19 19 13 13 20 31 33 56 57 55 52 57 53 45 62 64 68 68 68 69 69 69 69 69 68 68 67 66 64 63 63 62 62 62 62 61 59 58 57 57 61 63 64 63 62
44 40 30 20 13 9 8 14 27 47 51 53 53 55 53 54 61 60 59 67 68 68 68 69 69 69 69 69 68 67 66 64 63 62 61 61 62 62 61 60 59 58 57 56 59 61 63 63 65
38 28 25 19 11 5 5 10 34 46 53 51 52 56 56 56 61 60 64 67 68 68 68 68 69 68 69 68 68 67 65 64 63 62 61 61 62 61 60 60 59 58 56 54 55 58 60 61 61
26 18 16 13 11 10 9 21 47 47 48 50 52 52 58 62 63 63 66 67 67 68 68 68 68 68 68 68 68 67 65 64 63 62 61 61 61 60 61 61 59 58 57 54 56 57 59 59 58
22 19 14 10 9 8 39 46 48 46 47 48 49 51 54 62 63 65 65 66 67 67 68 67 66 66 68 68 67 66 65 64 63 62 62 61 62 61 62 61 60 59 59 56 56 57 59 58 57
22 16 11 9 10 15 46 47 48 47 48 49 51 52 56 62 63 64 65 65 66 66 66 66 65 65 65 64 66 66 65 64 64 63 63 63 62 62 62 61 60 59 59 59 58 57 56 56 56
21 17 14 13 12 17 39 49 46 47 46 46 51 51 57 60 63 64 64 64 64 65 65 65 65 65 63 64 66 65 64 64 63 63 63 63 63 62 61 60 59 58 58 59 59 58 57 56 55
21 17 14 13 12 17 44 49 49 45 44 49 55 49 53 60 63 63 63 63 63 63 64 63 64 63 63 63 64 64 63 63 63 63 62 61 61 60 60 60 60 59 59 58 57 57 57 57 56
18 15 14 14 15 23 47 43 47 48 50 55 57 54 58 61 61 61 60 61 61 61 61 62 62 62 62 61 64 63 63 62 62 61 60 59 59 59 57 59 59 58 59 57 54 51 47 46 50
16 13 12 13 21 37 46 43 44 45 50 52 55 58 60 60 59 58 58 57 57 57 57 58 60 60 61 62 63 62 61 60 59 59 57 57 57 56 59 59 58 58 55 53 50 46 43 39 38
15 16 16 18 38 44 45 43 45 43 43 51 53 54 58 58 58 57 57 57 56 57 57 59 60 60 62 62 61 60 58 58 58 57 56 56 59 58 58 56 56 52 48 43 40 38 37 36 37
16 15 16 36 44 45 43 44 43 44 42 53 55 57 58 57 57 57 56 56 57 56 56 57 59 62 62 61 60 58 57 56 56 55 56 57 58 57 57 55 50 47 43 40 39 37 35 36 35
16 30 36 42 44 43 42 39 41 51 55 56 57 57 56 57 57 58 57 56 57 57 57 58 62 61 60 59 58 57 56 56 56 56 57 59 58 58 54 49 47 43 40 38 36 36 35 34 34
39 40 41 42 42 43 38 39 39 51 56 55 55 56 56 56 56 56 57 56 57 58 58 59 61 61 60 58 57 57 57 58 59 59 59 59 58 55 51 47 43 40 38 38 37 36 35 34 34
36 35 36 39 42 39 40 35 37 52 55 54 54 54 55 55 54 55 55 56 57 58 59 59 61 60 59 57 57 58 59 61 60 60 60 57 55 51 48 45 41 39 38 37 37 36 36 34 34
32 27 28 34 37 38 34 28 40 52 53 52 54 54 55 54 53 53 54 55 56 57 57 60 60 59 59 57 57 59 60 60 59 58 57 55 52 49 47 43 40 40 39 37 36 35 35 35 34
22 20 24 23 36 35 34 28 41 53 52 52 53 54 53 52 52 54 55 53 55 56 56 58 59 58 58 57 58 59 59 57 56 56 55 52 49 48 46 43 41 40 38 38 37 36 35 35 35
21 19 20 21 28 35 33 30 38 50 52 51 53 53 53 52 51 54 56 55 55 55 56 57 58 57 57 57 57 56 56 55 54 54 52 49 48 46 44 41 40 39 38 37 36 36 38 36 35
26 25 24 23 26 25 24 28 31 42 50 52 52 53 53 52 52 54 55 56 54 55 56 57 56 56 56 56 55 54 53 52 50 51 50 48 46 44 41 40 39 39 37 36 36 37 36 35 36
27 25 24 26 26 25 26 26 30 38 44 50 51 52 52 54 54 54 54 55 53 54 56 56 56 55 56 56 54 53 52 50 49 48 48 48 45 42 41 39 38 38 37 37 37 37 36 36 36
25 24 24 25 27 28 24 22 26 30 39 43 49 51 51 52 53 54 53 54 53 54 55 55 56 55 55 54 53 50 49 48 47 47 47 47 46 42 40 39 39 38 38 37 37 35 33 32 34
23 26 27 27 24 18 21 14 21 26 32 38 43 49 50 49 51 52 52 51 52 53 55 56 56 55 54 54 52 50 49 47 46 46 47 47 46 43 40 39 39 38 38 37 36 36 34 30 26
25 28 28 28 25 23 22 19 18 26 28 34 38 42 48 47 47 48 50 49 51 53 55 56 56 55 55 55 53 51 49 48 47 46 46 46 44 42 40 40 39 39 38 36 34 33 32 32 30
29 29 27 27 26 21 22 21 19 22 25 30 37 37 40 44 43 44 46 48 50 54 55 56 55 55 55 55 54 52 51 49 46 45 45 45 42 41 40 39 38 35 34 33 32 31 31 31 31
27 23 18 15 17 16 24 23 22 24 27 27 32 37 36 38 39 41 44 48 51 54 55 56 56 55 56 55 55 54 52 50 47 45 45 44 41 39 39 35 37 37 36 36 33 30 30 30 30
28 23 20 13 13 16 24 20 19 28 31 34 31 31 37 35 36 40 44 49 52 54 55 56 56 56 56 56 56 55 53 50 47 46 46 43 40 38 38 40 39 39 37 33 32 32 31 32 33
28 22 25 24 28 24 21 22 19 28 30 34 33 36 35 36 37 41 47 51 54 55 56 56 56 57 57 57 56 54 52 49 47 46 43 41 38 39 42 39 38 39 35 34 35 31 30 33 32
27 30 24 24 18 16 16 17 16 18 25 31 32 33 40 41 43 46 50 54 55 56 56 57 57 57 56 56 55 54 51 47 45 43 41 39 41 42 38 40 40 36 36 35 32 32 32 32 32
27 26 25 25 21 16 15 15 21 19 26 28 30 36 37 45 45 48 52 55 56 57 57 57 57 57 55 54 52 49 46 43 42 41 40 42 42 40 41 39 39 37 35 33 33 33 32 32 31
27 26 25 21 19 23 21 18 21 20 24 31 30 36 39 44 48 50 52 54 55 56 56 56 55 55 52 48 45 43 42 41 41 41 43 43 41 43 40 40 37 36 35 32 32 32 31 30 29

GFSSGP_sfc_30mbdewp_063.txt.gz
Dewpoint
52 40 37 27 19 19 12 14 20 27 40 55 57 54 51 54 50 46 62 64 67 66 65 67 69 69 68 68 68 68 67 66 64 63 63 63 63 62 61 61 60 61 62 64 65 63 60 64 65
43 38 30 22 14 8 5 14 15 40 47 54 54 56 55 56 59 60 60 64 67 66 65 66 68 68 68 68 68 67 66 65 63 63 63 64 63 61 61 61 61 63 64 64 64 62 62 65 63
35 26 27 19 13 6 3 10 29 43 52 52 52 56 56 56 59 59 63 66 67 67 66 66 68 68 68 67 67 66 65 64 63 63 63 63 62 61 61 60 60 61 61 62 63 64 65 63 62
25 19 18 15 12 11 9 14 46 47 48 51 53 52 58 62 63 63 64 67 66 67 66 67 67 68 68 67 66 65 64 63 63 63 63 63 62 62 61 60 59 59 59 59 62 62 60 61 61
23 20 16 12 11 9 20 43 48 47 47 49 49 52 54 61 64 65 65 65 66 67 67 66 66 66 68 67 66 65 64 63 63 63 63 62 62 62 61 61 60 59 59 59 59 58 59 59 59
23 18 13 10 11 13 31 47 48 48 48 49 52 52 55 62 64 65 66 66 64 67 65 65 65 66 66 66 66 65 64 64 63 63 63 63 63 63 62 61 61 60 59 59 59 59 59 58 58
22 19 16 14 14 15 34 49 47 47 46 47 51 51 57 61 63 64 65 65 66 65 65 66 65 65 64 65 65 64 64 63 64 64 64 63 62 62 61 60 60 60 60 59 58 58 58 58 58
22 19 15 15 13 15 41 48 49 45 45 54 55 50 54 60 63 63 64 64 64 64 64 64 63 60 62 64 64 64 63 63 64 63 62 61 60 60 60 60 60 60 61 60 59 58 58 56 55
19 17 15 15 14 18 47 43 47 49 51 54 55 54 58 62 62 62 61 61 61 62 63 63 59 61 61 58 62 63 63 63 62 61 60 60 59 57 55 58 60 59 58 56 53 52 52 51 50
18 16 14 16 15 31 45 43 44 45 51 52 54 58 60 61 60 59 58 57 57 58 59 60 60 59 59 61 63 63 61 60 60 59 59 58 58 58 57 58 59 57 54 52 49 46 43 38 37
17 17 18 15 17 43 44 44 45 43 44 50 52 56 58 58 59 58 57 57 57 56 56 57 58 60 60 59 61 60 59 59 58 58 58 58 58 59 58 57 54 50 47 41 40 39 38 39 37
19 17 17 22 42 44 42 44 42 44 42 51 54 57 57 56 57 57 56 55 55 56 56 55 55 53 61 60 59 59 56 57 57 57 57 58 58 59 58 56 50 46 43 42 40 40 40 38 38
18 27 40 41 44 43 43 39 40 49 55 55 56 57 56 56 57 57 56 56 55 55 55 55 55 61 61 61 59 57 57 56 58 58 58 60 58 58 56 52 47 43 41 40 39 37 37 37 36
38 39 41 42 43 42 37 39 40 50 56 55 55 55 55 56 56 57 56 55 54 54 55 56 58 61 61 59 59 57 57 57 57 58 58 60 59 57 52 48 44 42 40 39 37 36 35 35 35
36 35 34 39 42 38 39 35 37 49 54 53 54 55 56 56 56 54 55 55 53 54 54 55 59 61 60 59 57 57 56 57 56 58 60 60 59 55 51 48 43 40 41 40 40 37 37 35 34
32 26 24 33 38 37 36 30 40 54 53 53 52 53 55 55 54 56 55 55 54 55 56 57 58 61 60 58 57 57 58 59 60 61 61 59 57 54 50 44 42 41 41 39 38 37 36 36 34
24 21 24 23 36 35 35 27 44 53 52 51 53 52 54 53 53 54 55 56 56 56 56 57 59 60 60 58 58 59 60 60 60 60 59 57 55 52 48 44 43 43 40 40 37 38 37 35 34
20 20 21 21 27 36 33 31 45 51 51 50 52 52 53 53 52 52 54 54 56 57 57 59 60 60 59 59 58 59 60 59 59 59 58 55 52 50 46 44 43 41 40 39 38 38 39 37 36
23 23 23 23 28 27 28 28 32 50 50 51 51 52 53 52 52 53 53 54 54 56 57 58 59 59 58 57 57 57 58 57 56 56 55 52 49 48 46 43 42 41 40 39 40 40 38 36 37
27 26 24 25 26 26 26 25 30 46 48 50 50 51 52 52 52 53 54 55 54 54 56 57 58 57 57 56 56 57 56 55 55 54 53 51 49 47 45 43 41 41 40 40 40 39 37 37 37
26 25 24 23 28 27 25 20 28 32 44 48 51 51 52 52 52 53 53 54 55 54 55 56 57 57 57 57 56 53 52 51 51 52 50 49 47 45 43 43 42 42 41 39 40 39 37 34 35
25 26 26 26 26 20 22 14 19 26 33 41 45 50 51 52 53 53 53 54 55 55 56 56 57 57 57 57 55 54 54 52 51 51 49 48 46 44 43 42 42 42 40 40 40 38 37 33 28
25 29 28 28 27 24 23 19 21 26 25 30 37 44 50 51 51 53 53 54 55 55 56 57 56 56 56 56 56 55 54 53 52 50 48 48 48 45 42 42 42 41 40 41 39 37 36 35 34
30 30 26 27 26 21 23 21 20 21 24 28 31 38 44 49 50 51 52 53 53 55 56 56 56 56 56 56 56 54 53 51 50 49 48 47 46 44 42 41 41 41 40 37 35 36 34 35 34
27 24 19 18 20 18 25 23 22 25 26 28 30 35 40 45 48 48 48 50 51 53 55 56 56 55 56 56 55 54 53 52 51 50 48 46 44 43 42 41 40 38 38 38 37 35 33 32 32
26 25 21 14 15 17 24 20 20 26 29 32 36 34 36 40 44 46 46 48 50 52 54 55 55 55 56 56 56 55 54 53 52 49 48 47 45 43 42 40 39 40 40 37 37 34 35 35 35
28 23 26 24 28 23 21 22 20 25 25 32 34 34 35 37 38 41 43 47 49 51 53 55 55 55 56 56 56 56 56 54 52 49 49 47 44 42 40 40 41 40 40 38 35 37 35 34 36
27 29 25 25 18 16 17 17 15 19 22 29 28 33 36 40 38 39 41 46 50 52 52 55 55 55 56 56 56 56 56 54 52 50 48 46 42 41 41 41 41 43 39 38 38 35 34 34 34
28 28 26 25 22 18 16 16 23 20 21 27 29 34 37 40 43 43 45 49 51 53 54 55 55 55 56 56 57 56 56 54 51 49 47 43 42 42 41 43 43 39 39 37 35 34 34 34 34
28 27 27 23 21 24 22 19 23 24 23 25 31 32 38 40 44 47 49 52 54 54 55 55 56 56 57 56 56 55 52 49 47 45 44 44 42 43 43 41 40 39 37 37 35 33 32 33 33

GFSSGP_sfc_30mbdewp_066.txt.gz
Dewpoint
50 35 29 26 15 9 6 9 12 12 36 38 40 41 45 53 47 44 61 62 64 64 62 66 69 69 69 69 69 69 68 67 65 64 64 63 63 63 62 62 63 63 62 62 63 64 64 61 61
33 32 31 21 10 6 5 9 16 28 38 51 52 50 44 46 57 59 61 62 64 63 61 62 68 68 68 68 68 68 67 65 64 64 64 63 63 62 63 63 65 66 65 62 62 65 62 61 62
31 30 22 16 10 6 6 13 21 36 47 49 49 54 50 53 58 59 61 64 65 63 60 63 68 68 68 68 67 67 65 64 64 64 64 63 62 63 63 64 65 66 65 63 64 64 60 62 63
25 19 19 10 9 7 12 17 31 43 47 49 50 47 57 60 61 60 62 65 66 64 61 67 68 68 68 67 67 65 64 64 64 64 63 62 62 62 62 62 63 65 65 65 65 62 61 63 62
22 17 11 9 7 11 16 33 42 45 45 46 47 48 53 61 64 63 63 65 66 65 64 65 67 67 67 67 66 64 64 64 64 64 63 63 62 62 62 62 62 62 64 64 61 60 61 61 61
18 17 10 6 8 16 18 40 43 46 46 47 48 49 54 62 63 64 64 64 66 66 65 65 66 67 67 66 65 64 64 64 64 63 63 63 63 63 62 62 62 62 62 61 60 60 59 59 58
16 15 11 8 14 17 27 46 45 45 44 45 49 47 54 61 64 65 66 64 65 65 65 64 64 65 66 65 65 64 64 64 64 64 64 63 63 62 62 61 61 60 60 60 60 60 59 58 57
16 15 12 10 13 16 35 43 46 44 44 51 51 45 51 60 64 65 64 65 65 65 65 63 62 61 59 58 62 64 64 64 64 63 62 61 61 61 61 60 61 61 60 59 58 58 58 57 56
20 15 11 11 14 16 38 39 46 47 47 50 52 52 56 62 63 62 61 62 62 63 60 60 60 60 59 57 61 63 64 63 62 60 60 55 52 52 53 59 61 61 59 58 57 56 54 50 48
18 14 12 14 14 16 32 37 41 44 46 46 51 56 60 62 61 59 59 58 59 59 58 59 60 58 58 57 57 60 60 57 55 54 53 51 52 51 54 58 59 57 55 52 50 46 44 44 41
20 16 18 18 18 19 30 38 42 39 37 42 48 55 59 60 60 59 58 58 57 59 59 59 59 57 57 56 59 59 57 58 55 53 50 54 55 55 55 55 52 50 48 43 42 43 43 43 41
22 22 21 20 33 32 32 41 38 40 42 49 52 55 57 57 58 58 58 56 56 56 57 58 58 58 57 58 59 59 57 55 55 52 53 55 54 55 55 53 52 49 46 46 45 44 44 41 39
23 28 35 34 38 39 41 37 37 43 51 52 54 56 56 57 57 57 56 56 56 55 56 57 58 57 57 57 57 54 54 53 51 53 53 53 53 54 54 53 50 48 47 45 44 42 39 38 36
35 35 34 36 37 38 36 36 37 47 53 53 53 54 56 56 56 56 56 55 56 55 55 55 55 54 55 58 56 53 51 54 53 53 55 57 54 56 54 53 49 46 45 44 42 39 37 35 34
35 33 36 37 37 34 37 32 32 43 52 51 52 54 53 54 56 55 55 54 54 53 53 51 54 57 55 58 55 51 50 50 49 50 56 58 58 58 54 51 48 46 45 44 41 38 36 33 31
28 26 19 30 36 36 37 25 32 46 50 50 50 51 51 51 54 53 54 53 53 49 49 51 53 57 59 58 54 51 51 52 52 55 59 60 60 58 55 52 48 46 43 41 39 37 34 32 30
22 16 19 22 31 30 32 25 36 47 48 49 49 49 51 50 51 52 53 51 51 49 49 51 56 59 61 59 56 55 55 54 56 60 60 60 60 58 55 50 48 46 43 42 39 37 35 34 32
16 17 19 20 26 30 27 26 28 44 47 46 49 48 49 50 51 52 53 51 51 52 52 54 56 58 59 60 58 54 53 54 58 61 61 60 59 57 54 49 47 45 43 42 38 37 36 35 35
19 19 19 21 25 25 24 25 24 39 45 44 48 48 49 50 48 51 53 53 50 51 53 54 55 57 60 59 54 52 53 56 59 61 60 59 57 56 52 48 47 45 43 40 41 39 38 37 37
23 21 21 22 25 25 24 22 26 36 44 42 44 47 48 48 50 49 50 52 53 54 55 55 56 58 59 56 54 52 53 54 57 60 59 58 56 54 51 48 46 45 42 42 41 39 38 38 37
23 22 22 21 24 26 25 21 22 29 40 43 44 44 47 48 49 50 49 51 52 52 54 55 56 57 58 56 54 53 55 56 57 58 58 57 54 52 49 47 46 44 42 42 41 41 39 37 37
21 24 24 23 24 18 23 11 16 24 29 37 42 45 45 47 48 48 50 51 52 52 52 55 56 57 58 57 54 52 52 52 54 57 57 54 52 50 47 47 46 44 42 42 41 41 39 36 34
23 28 26 26 25 23 22 16 16 23 21 25 33 40 45 46 48 47 48 50 52 52 53 53 54 56 58 58 56 55 54 53 55 56 55 53 50 48 46 45 45 44 43 43 41 40 38 36 35
30 29 28 28 26 19 21 19 13 15 19 23 26 30 38 45 46 47 48 48 50 54 55 55 54 55 57 59 58 57 56 56 56 55 53 52 51 46 45 43 44 44 43 43 41 40 37 37 34
28 26 20 21 19 16 23 19 16 18 24 25 28 33 34 36 45 47 47 49 48 51 55 56 55 54 56 58 58 58 57 57 56 54 53 51 50 48 46 45 44 44 43 42 39 39 38 36 36
26 24 20 13 14 14 23 14 14 23 24 28 33 35 34 37 38 44 48 48 50 50 54 55 55 55 56 57 57 58 58 57 57 54 53 51 49 49 48 46 44 43 42 40 40 40 38 37 37
28 24 26 25 28 22 16 17 18 20 24 29 25 32 35 35 38 41 44 48 49 51 52 54 54 54 55 57 57 57 57 56 55 55 53 51 50 49 47 45 44 42 42 41 42 40 37 37 36
28 27 23 24 18 14 15 16 12 16 18 22 22 25 33 40 38 37 40 44 47 50 52 54 54 53 53 56 57 57 57 57 56 56 52 51 52 49 46 45 43 42 44 43 39 39 37 36 35
28 25 25 24 22 17 14 15 19 17 18 22 23 28 30 35 40 40 40 40 44 48 50 52 54 52 53 54 56 57 56 57 57 56 53 52 50 47 45 44 43 44 42 41 40 36 36 34 32
26 24 25 20 19 23 24 19 20 20 25 24 26 31 32 37 40 44 44 45 46 48 49 50 52 52 52 54 56 56 57 56 53 51 49 48 46 44 44 45 43 43 40 39 39 39 34 32 30

GFSSGP_sfc_30mbdewp_069.txt.gz
Dewpoint
51 43 27 22 16 12 6 5 9 9 13 44 30 26 23 31 50 45 61 62 62 61 63 68 70 70 70 70 69 69 69 67 66 65 64 64 64 64 64 64 65 65 66 64 63 60 59 60 60
37 25 24 20 13 5 5 10 9 14 26 48 45 42 31 30 56 58 61 61 63 61 62 66 70 70 69 69 69 68 67 66 65 64 64 64 64 64 64 65 64 64 65 64 63 59 60 60 62
33 24 23 19 12 7 6 13 13 18 36 38 42 45 38 39 55 56 60 62 64 62 61 67 69 69 69 69 68 67 66 65 64 64 64 64 64 65 66 67 67 65 64 64 61 60 61 62 63
24 19 16 10 7 8 9 17 27 30 39 42 43 44 54 58 59 59 61 63 65 62 61 67 68 68 68 68 67 66 65 64 64 64 64 64 64 66 66 67 66 65 65 64 60 61 62 63 62
21 17 11 9 6 8 18 25 35 37 37 40 43 42 51 54 61 62 61 65 64 62 63 66 68 68 68 67 66 65 65 65 64 64 64 64 63 64 64 66 66 66 66 62 60 61 61 61 60
18 16 10 7 9 13 23 31 35 37 40 42 42 44 50 60 62 63 62 65 64 65 65 66 67 68 67 66 65 65 65 65 64 64 63 63 63 64 64 64 65 64 63 62 62 61 60 59 58
17 14 11 8 6 13 24 37 35 36 38 40 43 41 50 58 63 64 63 65 64 64 66 65 66 66 65 64 64 64 65 64 64 64 64 64 63 63 62 63 63 62 61 61 60 60 59 58 56
14 13 10 8 8 15 26 27 41 40 39 47 47 40 45 60 64 65 65 65 61 64 65 63 63 64 62 62 64 64 65 65 64 63 63 62 61 62 62 61 61 61 60 60 59 59 58 56 54
16 12 10 12 10 18 24 26 38 44 41 45 48 49 56 62 63 62 62 63 61 61 61 59 59 59 59 59 60 64 64 63 62 61 60 56 52 52 52 61 61 60 60 59 58 57 54 51 47
16 13 13 12 13 13 18 26 33 37 37 38 47 54 59 61 61 60 60 59 58 58 59 57 56 56 56 57 58 60 61 59 57 56 54 51 53 51 54 59 59 58 57 56 55 52 49 46 42
17 12 13 15 17 20 17 25 36 33 31 41 42 53 56 59 59 58 58 58 57 59 58 58 56 56 55 58 60 59 59 55 56 55 53 53 55 56 55 55 52 52 51 47 45 44 46 47 44
17 18 19 19 21 29 25 35 34 35 39 44 49 53 55 57 58 58 56 56 58 58 57 58 57 57 57 58 58 59 57 54 55 55 56 56 55 54 53 52 52 50 47 46 47 47 48 44 41
19 24 26 28 30 30 32 32 34 34 44 49 50 53 54 55 56 58 57 57 57 57 57 57 57 56 55 56 55 55 54 55 55 54 56 55 54 55 53 53 51 49 49 49 48 47 43 42 39
29 29 28 30 29 31 31 30 34 43 45 48 48 51 53 56 56 56 56 55 55 55 55 56 56 57 56 55 50 47 51 51 53 55 54 56 54 55 53 53 51 50 49 48 47 45 43 39 37
26 25 33 36 28 28 29 29 31 42 45 47 48 50 49 53 55 55 55 55 55 55 55 55 56 55 54 53 54 53 53 51 50 50 55 55 53 55 54 53 51 49 49 48 46 44 41 38 33
21 22 18 35 32 29 28 35 42 42 45 44 47 47 46 47 52 54 55 55 56 53 54 54 53 53 54 56 55 54 50 51 50 49 53 54 57 58 56 53 51 50 49 47 45 43 40 36 34
18 14 21 23 25 25 26 27 34 39 42 43 45 46 44 47 48 52 52 52 51 52 51 50 51 53 57 57 54 50 52 49 47 51 57 60 60 59 57 55 53 50 48 46 44 42 39 35 34
15 16 15 16 25 25 23 25 29 35 40 42 42 43 44 45 46 49 49 48 46 50 49 50 54 57 58 58 55 52 52 51 51 54 57 59 60 60 58 54 52 51 47 46 45 42 38 37 37
17 16 17 19 22 22 23 25 23 34 39 41 44 44 45 45 47 50 48 49 46 48 48 50 54 56 57 56 53 49 47 48 50 56 59 60 60 59 58 53 52 50 48 47 44 42 40 39 40
18 18 19 21 21 22 21 19 19 31 38 39 41 45 44 46 47 49 50 49 49 50 50 50 51 54 55 53 51 47 47 47 50 58 60 60 59 58 57 53 51 50 48 47 45 42 40 41 40
22 21 22 20 22 21 18 17 19 26 35 37 37 41 43 46 43 46 48 50 49 49 51 51 51 51 53 52 51 49 49 49 50 56 58 59 58 57 56 53 51 50 48 46 45 43 41 40 40
20 22 22 22 21 25 23 17 20 19 26 35 35 38 41 44 44 45 45 47 50 50 51 53 52 51 53 54 51 50 48 48 49 54 57 57 57 57 54 52 51 50 49 46 45 43 43 42 40
21 25 23 23 23 21 18 12 18 15 16 24 32 37 38 41 42 43 46 45 47 50 51 53 52 52 53 56 53 51 50 50 51 54 57 58 56 55 54 52 51 51 49 46 46 43 44 42 39
24 24 25 25 23 20 19 16 18 18 14 18 23 31 36 38 41 41 42 46 47 51 53 52 52 53 53 55 56 54 53 52 50 55 56 56 55 54 54 53 51 50 47 46 46 44 44 40 39
26 24 22 20 19 18 20 17 14 17 19 21 22 27 30 35 40 42 40 41 44 48 51 53 52 51 53 55 56 57 56 55 54 56 55 56 54 53 52 52 50 49 47 46 45 45 42 40 39
23 23 22 18 18 17 18 10 13 16 18 19 23 27 32 34 34 41 42 43 43 45 50 53 52 52 51 55 57 58 58 57 58 58 56 56 54 54 52 50 49 49 48 46 46 43 42 40 40
23 22 23 23 22 20 17 16 16 15 16 21 19 22 28 34 35 35 41 43 45 46 48 54 53 53 52 54 57 58 58 58 58 59 57 56 55 53 52 51 50 49 47 45 43 42 42 41 41
25 27 22 21 17 18 14 13 13 15 18 18 18 20 26 36 35 37 37 41 45 47 49 52 53 51 52 54 57 57 58 58 58 57 56 55 54 52 52 52 52 49 44 44 44 43 43 40 39
22 24 23 21 21 19 15 13 18 16 16 17 20 21 23 27 36 36 37 40 44 47 49 52 53 53 51 53 56 57 57 57 57 57 57 56 54 54 52 50 45 44 44 43 43 41 38 38 39
22 22 23 20 18 21 20 19 19 19 19 22 21 23 24 28 31 38 40 40 41 45 48 50 53 53 52 52 54 57 57 57 57 57 53 51 47 46 45 44 44 44 43 42 40 39 41 40 39

GFSSGP_sfc_30mbdewp_072.txt.gz
Dewpoint
47 43 40 31 18 16 12 9 8 10 15 38 31 35 35 31 41 40 56 60 58 61 68 70 70 70 70 70 69 69 69 68 67 66 66 65 65 66 67 67 67 65 64 61 60 59 58 58 60
41 41 32 20 17 14 9 14 13 11 36 36 32 27 29 38 51 51 55 58 60 66 68 69 70 70 69 69 69 69 68 67 66 65 65 65 65 66 66 66 66 66 64 59 59 59 59 59 60
47 36 22 21 19 13 11 15 19 20 38 39 37 36 43 49 54 53 56 59 66 64 66 69 69 69 69 69 69 68 67 66 65 65 64 65 65 66 66 66 66 65 63 60 60 60 60 61 60
29 25 18 14 7 7 11 17 32 30 40 40 44 47 50 57 55 59 61 63 64 64 65 69 69 69 69 69 68 67 66 65 65 64 65 65 67 67 67 66 66 66 62 60 60 61 61 60 58
27 19 15 12 10 13 12 22 39 39 42 42 46 49 48 50 56 61 63 64 64 64 65 67 68 68 68 67 67 66 65 65 65 65 65 67 67 67 67 66 66 65 62 61 61 61 60 58 56
21 18 13 10 13 14 19 26 29 29 36 46 50 49 46 48 61 63 62 64 65 65 64 66 67 66 66 66 65 65 65 65 65 65 65 65 66 67 67 67 66 63 63 63 62 61 59 57 55
18 15 12 10 6 15 29 33 33 31 37 47 48 45 54 56 63 64 65 66 65 64 62 61 62 67 66 65 66 65 65 65 65 65 64 64 65 65 65 65 64 63 63 62 60 59 58 56 52
16 12 9 11 16 10 30 30 35 38 39 39 44 47 49 54 64 65 64 62 64 65 64 61 64 63 64 65 65 65 65 65 65 64 63 63 63 64 63 63 62 62 61 60 59 58 56 52 48
13 11 12 18 16 16 20 19 41 36 36 39 45 56 60 62 63 63 61 60 60 60 62 63 62 62 62 62 63 64 64 63 63 61 60 59 59 60 59 61 61 61 60 59 58 56 51 48 46
14 12 16 19 13 12 15 15 37 38 42 45 46 56 60 61 61 59 58 58 57 57 58 60 59 59 59 60 62 63 62 60 59 57 55 54 56 58 59 61 60 60 59 58 55 52 49 47 42
17 14 14 12 15 17 19 20 33 34 41 43 44 53 57 59 59 57 58 57 57 57 57 58 57 57 56 55 56 56 58 58 58 57 54 57 57 58 58 57 56 55 53 51 51 51 48 49 46
16 14 16 20 21 20 19 24 30 29 42 47 50 54 56 58 58 57 57 57 56 56 55 56 57 58 57 56 58 59 58 56 56 57 55 58 57 57 56 54 54 52 51 48 47 51 49 44 41
17 18 22 20 22 23 21 24 25 29 43 47 50 51 53 56 57 57 57 58 56 56 55 56 57 58 58 58 58 58 57 55 55 56 57 56 57 56 56 55 53 51 50 51 52 49 46 44 41
19 26 24 31 33 31 27 24 34 40 42 46 48 49 54 55 56 56 55 55 56 55 55 56 56 56 55 55 54 54 53 55 55 56 56 56 57 57 56 56 54 52 51 52 51 48 46 45 39
22 20 25 36 31 28 33 24 39 45 47 45 47 49 52 54 55 55 55 54 54 55 54 54 54 54 53 52 52 53 53 52 52 55 55 56 56 56 57 56 55 53 52 52 51 48 47 41 39
22 19 19 31 34 33 32 26 42 46 43 46 45 48 47 50 54 55 55 55 55 54 54 55 53 52 52 52 52 52 52 52 53 54 55 57 57 57 57 56 54 53 53 50 49 47 44 43 37
18 17 18 26 33 30 25 23 37 45 44 44 45 47 43 50 52 54 55 54 55 55 54 54 53 52 52 53 52 52 53 54 54 54 56 57 57 58 58 55 54 52 52 50 49 48 45 39 38
20 18 21 17 24 26 23 22 32 41 47 39 45 46 45 45 49 53 53 53 54 54 54 53 53 53 53 53 57 56 55 53 53 55 57 59 60 60 59 56 55 54 52 50 48 47 44 41 40
19 17 15 24 24 22 20 24 28 30 32 37 40 40 42 43 48 49 50 53 53 54 53 52 52 53 56 56 55 53 53 52 52 55 58 60 61 60 60 59 56 53 51 49 50 48 42 41 42
16 17 15 20 23 20 19 24 23 28 34 37 40 40 43 43 46 48 47 50 51 51 51 51 52 56 58 58 56 53 52 52 51 55 58 60 61 61 60 59 55 53 52 52 48 45 43 44 44
19 19 19 22 22 24 24 21 19 25 32 34 40 43 46 44 46 48 48 47 50 50 50 51 54 57 57 57 54 51 51 50 50 58 60 60 61 60 59 58 55 54 53 51 49 48 45 43 43
20 21 22 20 20 19 27 22 21 21 25 32 36 44 40 43 46 48 49 49 48 49 50 52 52 55 56 55 52 50 48 48 50 57 59 60 60 59 58 57 56 54 53 51 50 48 46 46 43
21 22 24 23 21 21 25 25 18 20 22 28 32 39 42 44 45 47 48 50 50 51 53 53 52 52 52 54 54 52 50 50 50 52 58 59 59 58 57 57 55 54 53 52 50 47 47 48 42
22 22 23 23 23 21 21 19 20 24 19 20 29 34 39 46 46 44 47 48 51 52 53 54 54 53 53 55 53 55 52 52 52 56 57 58 58 58 57 56 55 55 54 51 50 49 48 42 42
23 23 21 23 21 21 25 21 17 28 23 20 22 31 36 40 44 45 46 46 47 50 53 54 55 53 53 57 56 56 57 54 54 56 57 58 57 56 56 55 54 54 53 51 50 50 47 42 39
22 23 24 27 22 22 25 16 8 19 19 19 21 24 31 34 41 41 41 47 47 48 52 53 53 53 53 55 57 58 57 57 56 57 58 57 57 56 55 55 54 53 52 51 51 48 44 42 42
23 21 23 25 28 25 22 20 16 17 16 17 19 22 27 32 34 39 42 42 46 48 52 54 53 53 53 55 57 58 59 58 58 59 59 58 57 56 55 54 53 52 51 49 47 45 43 43 42
21 24 21 22 21 20 16 15 24 20 17 19 17 21 27 32 34 36 38 44 44 47 50 54 54 53 54 54 56 58 59 60 59 60 59 57 57 54 54 52 51 49 48 47 45 44 43 42 42
19 20 26 23 21 20 20 20 23 19 17 18 19 21 23 30 35 35 37 39 46 47 48 53 55 54 54 54 56 58 59 59 59 58 58 57 56 54 53 50 47 45 44 43 43 43 42 41 40
21 21 24 23 20 24 26 24 22 22 20 20 21 22 24 26 30 36 37 38 40 46 49 52 54 54 54 53 57 58 59 58 58 58 56 54 53 50 48 46 44 43 43 43 43 42 41 40 40

GFSSGP_sfc_30mbdewp_075.txt.gz
Dewpoint
49 47 44 37 25 20 16 16 16 16 31 37 33 31 35 43 40 33 56 60 63 62 60 66 69 70 70 69 69 69 68 67 67 67 67 67 67 68 67 67 65 63 62 59 58 58 59 60 60
46 41 40 34 18 16 17 16 18 36 38 40 41 43 46 42 51 52 55 60 59 59 60 64 67 69 69 69 69 68 68 67 66 66 66 66 67 67 67 66 64 63 61 58 57 56 59 60 60
47 45 33 23 20 19 18 19 29 37 42 41 40 46 48 53 55 54 57 57 59 58 59 61 67 68 69 69 69 68 67 66 66 66 66 67 67 67 67 65 63 63 61 59 57 57 59 59 57
31 29 27 17 15 15 16 29 32 31 44 47 45 44 47 53 50 58 62 62 56 61 65 64 68 68 69 69 68 67 66 65 65 66 66 67 67 67 67 65 63 62 61 59 58 58 57 56 54
34 29 18 17 16 16 20 32 35 39 43 47 42 41 39 50 52 61 61 65 65 65 66 68 68 69 69 68 67 66 66 65 65 66 66 67 67 66 67 65 63 62 62 60 58 58 56 54 52
28 23 18 16 15 15 28 30 27 41 45 47 44 46 47 53 49 58 63 65 64 64 65 65 67 67 67 67 66 66 65 65 66 67 67 67 67 66 67 64 63 63 63 62 60 57 54 52 51
23 21 16 13 11 20 25 31 30 34 44 45 48 48 51 46 55 62 65 64 63 63 64 63 62 64 66 66 66 65 65 66 66 67 67 67 67 67 66 64 64 64 63 61 59 57 53 52 49
23 19 13 10 18 18 27 32 37 35 37 48 51 46 48 48 58 63 63 63 64 61 62 63 64 63 64 65 65 65 65 65 65 65 65 66 65 65 64 64 63 63 61 60 58 54 52 48 46
23 16 9 13 17 16 27 20 38 39 37 46 51 47 52 61 63 60 60 60 60 62 62 63 62 62 62 63 64 64 64 63 63 63 63 63 63 62 61 62 62 61 60 59 55 53 49 45 42
20 13 12 15 18 16 18 20 33 38 41 43 47 50 59 61 60 59 58 58 58 59 60 61 61 61 61 62 62 62 61 59 59 58 57 58 60 60 61 61 61 60 59 57 56 53 50 43 42
20 15 16 14 19 21 20 18 35 36 40 43 43 51 59 59 58 57 57 57 56 58 58 59 59 60 60 60 61 61 60 57 57 56 56 59 59 59 59 58 58 58 57 55 54 51 47 48 43
18 18 16 16 31 30 29 23 23 48 47 48 52 58 58 57 57 57 56 55 55 55 56 56 56 57 57 57 57 58 58 56 57 56 58 57 57 55 54 54 53 51 50 49 48 50 45 41 39
21 21 21 29 29 29 30 26 28 44 47 53 54 57 57 57 57 57 57 56 55 54 56 56 56 55 55 54 54 53 57 56 57 58 59 58 56 54 54 52 52 51 48 49 51 47 44 41 39
20 22 23 30 28 30 29 30 33 38 47 51 55 55 56 55 55 56 56 55 54 54 55 56 56 56 57 56 55 55 56 55 57 57 57 58 57 55 55 53 52 51 49 51 50 47 44 42 37
25 23 24 28 30 30 31 28 32 42 45 47 47 54 54 55 54 55 55 54 55 55 55 54 55 56 56 54 53 52 51 53 54 55 56 57 57 55 56 54 53 53 50 52 49 47 46 42 39
24 22 20 20 30 30 32 27 35 45 44 47 52 52 52 52 54 54 54 54 54 54 53 54 54 54 53 52 51 50 48 48 50 53 54 55 57 56 57 55 55 54 53 51 50 48 45 42 36
24 21 19 19 29 30 31 29 36 44 44 43 47 49 51 52 53 54 54 54 53 54 54 53 52 52 51 50 49 48 48 50 48 50 54 55 56 57 57 56 54 53 52 50 48 47 44 42 39
22 22 21 20 29 33 28 30 33 43 42 45 47 47 50 52 52 54 54 53 53 53 53 52 51 50 51 52 51 51 51 52 49 52 54 56 56 57 58 56 53 53 51 50 49 47 47 41 38
24 23 18 18 24 25 25 24 32 40 43 46 46 46 50 50 53 54 53 54 54 54 53 52 50 51 53 52 51 52 54 54 53 54 55 57 59 59 58 56 54 53 52 50 49 48 44 42 42
23 16 17 17 27 25 19 21 26 33 41 42 46 45 48 50 52 52 53 53 53 53 53 52 51 51 53 52 53 53 54 53 53 55 58 59 59 60 59 58 57 55 52 50 48 47 43 41 42
20 18 18 20 21 24 24 23 23 30 36 40 42 44 47 48 50 52 52 52 53 53 52 51 50 51 52 53 55 54 53 53 52 53 57 59 60 60 60 59 57 54 52 51 49 46 42 40 45
20 22 22 24 21 19 25 21 25 26 32 36 41 43 44 47 48 51 52 51 52 52 52 50 50 51 52 56 56 54 51 50 50 53 56 59 60 60 60 59 58 54 53 52 50 47 45 43 42
21 24 24 24 24 22 25 24 25 25 28 32 42 44 45 46 47 46 49 50 48 49 49 50 51 52 57 57 56 55 51 50 50 55 57 58 60 60 59 59 57 56 53 53 51 49 47 48 45
23 22 22 24 23 21 23 25 23 21 22 29 39 43 45 44 48 48 47 49 46 49 49 50 50 53 56 57 56 54 51 49 49 55 58 58 59 59 59 58 57 56 55 54 53 52 49 48 45
22 22 21 23 21 21 26 26 25 25 26 25 32 43 42 43 46 48 48 48 48 48 48 49 51 52 55 55 55 54 52 51 49 52 58 58 57 57 57 57 56 55 55 55 53 51 50 45 45
21 22 23 22 24 27 29 23 19 26 28 22 24 39 43 43 44 47 48 49 49 49 50 51 52 52 52 55 54 56 53 51 53 55 57 58 57 57 57 56 55 55 54 53 52 50 47 46 45
24 22 26 29 29 28 27 25 23 22 17 19 20 23 39 45 46 44 47 48 50 50 50 51 54 53 53 55 56 55 57 54 53 54 57 58 58 56 56 55 54 53 52 51 48 47 46 45 45
22 26 22 23 24 24 23 22 23 22 22 19 18 26 28 32 39 45 45 47 47 49 51 52 53 54 54 53 57 57 56 57 58 56 58 58 57 56 55 54 53 50 49 48 47 45 44 43 43
22 20 21 26 26 20 19 20 26 24 23 17 21 24 26 31 33 35 39 44 47 47 48 52 53 53 53 53 54 57 58 58 59 59 58 57 56 55 53 52 50 48 46 45 44 43 43 42 42
22 21 22 25 25 24 22 22 24 22 20 21 21 22 28 34 35 35 36 41 47 49 50 51 54 54 55 55 55 56 58 59 59 58 57 56 54 52 50 49 47 46 45 44 43 43 43 42 41

GFSSGP_sfc_30mbdewp_078.txt.gz
Dewpoint
52 49 43 35 20 21 19 17 19 20 35 39 40 37 36 45 43 39 54 57 61 61 65 67 69 69 69 69 69 68 68 68 67 68 67 68 68 68 66 64 64 62 60 59 61 61 61 62 63
47 42 40 32 19 15 16 18 35 37 38 40 43 45 48 46 51 52 52 57 61 62 63 67 67 67 68 69 68 68 68 67 67 67 67 68 68 67 65 64 63 61 60 59 60 60 60 59 60
42 45 34 27 20 17 17 20 35 41 44 40 38 47 45 51 52 55 55 56 61 62 61 67 66 63 67 69 68 68 67 67 66 66 67 67 67 66 64 63 62 61 59 57 59 59 58 58 59
31 29 26 19 16 16 18 18 24 39 42 45 44 38 46 51 50 54 59 55 58 60 60 65 67 67 68 69 68 67 66 66 66 66 67 68 67 65 64 63 63 61 59 58 58 57 57 57 59
34 27 20 17 17 18 18 21 33 40 42 46 45 39 44 51 50 58 64 58 57 63 62 60 66 67 67 68 68 67 66 66 66 67 67 67 66 64 64 63 63 61 60 58 56 56 55 55 58
31 24 19 17 16 17 21 31 39 43 45 46 42 45 47 52 54 60 64 64 65 64 65 63 64 63 66 68 67 66 66 66 66 67 67 67 66 64 64 64 63 62 61 60 57 55 54 54 55
26 22 20 18 17 14 23 30 33 42 44 44 49 42 45 48 56 62 63 63 63 64 64 63 64 62 63 67 66 65 66 66 66 67 66 67 66 64 64 64 64 62 60 57 55 53 52 51 52
24 22 20 18 15 12 22 31 37 40 43 50 49 40 39 49 62 62 62 62 61 62 62 63 62 61 61 66 65 65 66 67 67 67 67 67 65 64 64 64 63 61 59 57 52 51 49 47 50
22 20 18 17 12 14 26 21 38 39 46 47 50 48 50 62 61 60 60 60 60 61 62 62 61 61 61 63 64 63 65 65 66 66 66 65 64 64 62 62 61 60 58 55 53 52 47 44 48
21 18 19 17 14 17 22 21 35 40 43 44 47 50 57 60 60 59 58 58 59 59 60 61 61 61 60 60 60 60 61 63 63 63 61 62 61 61 61 61 61 59 57 55 53 51 47 45 40
20 18 18 19 19 25 26 28 38 39 42 44 42 50 59 58 58 58 57 57 57 59 60 61 60 60 59 58 58 61 59 58 58 59 60 61 61 60 60 59 59 58 56 54 52 47 47 42 38
18 18 18 19 27 28 27 31 45 47 46 50 50 58 58 56 57 57 56 55 56 57 58 60 60 59 59 58 56 59 58 58 57 59 59 58 58 57 56 55 54 53 52 51 48 47 42 39 37
19 22 23 25 29 27 30 33 46 47 53 52 56 55 56 57 56 57 56 55 55 55 55 57 58 59 58 57 57 58 57 56 57 58 58 57 55 54 53 52 51 50 49 48 50 44 41 38 38
25 25 25 26 28 29 28 35 38 51 52 48 47 51 55 55 56 56 55 54 55 55 55 55 56 56 56 56 55 54 57 57 58 58 58 56 54 54 52 51 50 49 48 50 48 45 42 39 35
26 24 23 23 26 28 30 27 36 48 48 48 50 55 54 53 55 55 56 54 55 55 55 55 56 55 54 53 54 56 56 57 58 57 57 55 54 54 52 51 51 50 49 51 49 46 44 40 37
25 24 20 21 24 30 28 22 40 46 46 45 52 53 51 51 54 55 55 55 55 54 54 56 56 56 55 53 54 53 54 55 56 57 57 56 55 56 54 52 52 52 51 51 48 47 46 41 37
25 21 22 23 24 29 29 26 39 47 47 49 51 51 51 52 53 54 55 54 54 54 55 55 55 54 53 52 51 49 50 51 52 55 55 56 57 56 56 54 53 54 52 51 49 47 46 41 37
21 23 23 23 24 30 29 28 41 44 44 47 49 50 50 50 51 53 54 53 54 54 54 53 53 52 52 52 50 49 49 49 49 52 53 55 57 57 57 56 54 53 52 51 49 47 46 43 38
24 24 23 24 23 28 28 28 29 43 44 44 47 49 49 50 52 53 53 53 53 53 52 51 51 52 52 51 49 46 44 47 49 49 53 54 55 57 57 56 54 53 51 50 49 47 46 44 41
24 23 23 22 21 26 23 20 25 41 43 44 46 48 48 50 52 52 53 51 51 52 52 51 50 51 51 50 48 46 48 52 52 50 51 55 56 57 57 56 54 53 52 50 49 48 45 44 43
25 23 22 18 22 23 24 22 23 36 41 45 47 47 49 50 51 51 52 52 51 51 52 51 50 50 51 50 49 52 53 53 52 52 52 55 57 59 58 57 56 54 53 51 50 48 45 43 43
23 24 23 24 23 21 25 20 25 28 36 43 44 45 48 50 51 52 52 52 52 52 53 52 51 49 50 51 50 50 50 48 50 50 52 56 58 59 59 59 58 56 55 53 50 49 46 43 42
25 26 23 24 22 23 23 23 23 27 34 39 44 46 48 50 51 51 51 51 52 52 52 51 50 50 50 51 50 51 52 52 52 52 53 57 58 59 59 59 58 57 55 54 52 50 48 46 45
26 24 24 26 24 21 22 24 22 25 26 37 42 45 47 49 51 51 51 51 51 51 52 50 50 49 50 50 52 54 53 53 51 51 52 55 58 59 59 59 59 58 56 54 53 51 50 49 49
24 22 19 18 20 19 28 26 23 26 26 32 41 43 46 48 48 50 51 50 49 49 50 50 49 49 50 52 54 56 56 54 51 51 52 54 56 57 58 59 59 57 56 55 54 52 52 50 48
21 21 20 18 20 25 29 24 22 25 28 27 36 43 44 47 48 47 50 50 46 47 48 48 48 49 50 51 56 57 56 55 53 51 54 55 56 57 58 59 58 56 55 54 54 51 49 47 47
21 22 25 24 30 27 28 28 25 22 24 22 29 42 44 44 47 47 47 49 49 44 46 48 49 50 50 51 55 57 57 55 53 52 53 57 57 57 58 58 56 55 54 53 50 48 47 48 47
22 26 24 29 23 24 24 26 23 20 19 20 26 38 43 43 45 47 48 48 49 49 47 48 49 49 50 52 54 55 56 56 54 54 54 56 57 57 57 56 55 54 52 50 49 48 47 46 45
22 22 24 25 27 22 21 21 27 24 24 20 24 30 37 43 44 45 46 48 49 50 50 50 51 51 52 53 55 55 55 56 56 55 56 57 57 56 56 56 54 51 50 48 47 47 46 45 44
21 20 22 22 24 26 24 22 26 26 24 21 20 25 30 36 41 45 46 46 48 50 51 51 51 53 53 54 54 56 57 56 57 58 57 57 57 57 56 53 52 50 48 46 46 45 44 43 43

GFSSGP_sfc_30mbdewp_081.txt.gz
Dewpoint
51 51 42 32 18 20 18 18 19 23 32 38 40 40 37 47 42 35 54 55 61 63 67 70 69 69 69 69 69 69 69 68 68 68 67 67 66 66 65 63 63 64 63 62 61 61 61 61 63
47 42 38 27 18 15 15 18 23 35 38 42 43 44 47 48 51 50 52 57 62 62 64 69 68 68 68 68 69 68 68 68 68 68 67 67 66 65 64 63 63 64 63 62 62 61 61 61 62
43 41 31 25 19 16 16 19 23 33 43 42 39 46 46 51 52 55 56 57 61 62 62 67 68 67 67 67 68 68 68 68 68 67 67 67 66 65 64 62 63 63 63 61 59 57 59 61 60
31 29 24 20 17 18 19 18 18 32 41 45 44 40 46 51 49 52 55 61 60 62 61 66 67 65 63 63 66 68 67 67 67 67 67 66 65 64 63 62 62 63 62 58 57 58 60 61 60
33 26 20 17 17 18 19 18 19 31 39 44 45 39 42 51 53 62 64 63 58 60 61 62 66 65 65 66 68 67 67 67 67 67 67 66 65 64 63 62 61 62 60 58 56 60 62 60 58
27 23 18 14 16 18 19 21 36 38 43 45 42 43 48 53 57 62 63 62 61 61 61 62 64 65 65 66 66 67 67 67 67 67 67 65 64 64 63 62 62 61 60 58 57 59 60 59 57
24 22 19 18 18 18 16 30 37 40 43 41 47 42 47 52 60 62 62 62 64 64 62 61 62 63 63 65 64 65 65 66 67 67 66 64 64 64 63 63 62 59 58 56 55 54 59 58 57
24 23 20 19 16 16 15 31 38 42 40 49 48 40 40 53 61 62 62 61 62 62 59 58 62 62 62 62 65 64 64 66 67 67 66 65 64 64 63 62 60 59 57 55 53 54 57 58 58
22 20 18 18 16 13 18 24 38 42 46 48 49 48 49 60 61 60 60 60 61 61 62 62 61 61 60 60 61 63 64 66 66 66 65 64 64 63 62 60 59 58 57 56 53 52 58 59 57
21 19 19 19 16 17 19 21 35 41 44 44 46 51 53 60 59 58 58 58 59 59 60 60 60 59 59 60 62 62 62 64 65 65 63 63 63 61 61 60 59 58 57 54 53 50 49 50 53
21 20 20 18 19 19 19 27 39 39 41 43 43 45 58 58 58 57 57 58 58 59 60 60 60 59 59 58 59 60 60 61 63 63 62 62 61 61 59 59 58 57 54 50 47 45 39 41 47
19 19 19 19 23 26 28 34 43 43 44 48 46 51 57 56 56 57 56 56 57 58 59 60 60 59 58 57 57 58 59 60 61 61 61 60 59 58 58 56 55 53 51 47 46 43 39 38 45
19 20 23 25 25 28 29 32 41 45 52 55 56 58 57 56 56 57 56 56 56 56 58 59 59 57 56 56 55 58 59 59 60 60 60 59 57 56 55 54 52 51 49 49 43 41 38 37 39
24 25 25 24 24 28 32 40 41 42 54 48 49 54 56 55 56 56 55 54 55 55 56 58 58 57 56 55 56 56 59 59 59 59 58 56 55 54 52 51 50 49 48 49 44 41 38 37 36
26 23 23 22 23 26 29 32 34 41 53 50 48 54 53 53 55 55 55 54 55 55 55 56 57 58 56 54 54 57 57 58 58 58 56 55 54 52 51 50 49 49 49 49 46 43 41 36 35
24 24 19 20 24 26 27 20 26 48 48 46 51 53 51 52 54 56 55 54 55 55 55 56 56 57 56 55 56 56 56 57 57 57 55 54 54 52 51 50 50 49 50 49 47 45 42 38 35
25 18 20 21 25 25 29 23 29 45 46 46 51 52 50 52 53 55 55 55 54 55 55 56 55 55 54 53 52 54 56 56 57 57 55 54 54 54 51 51 51 51 50 50 48 47 44 40 37
20 21 23 23 24 28 27 29 35 44 47 48 51 50 49 49 50 53 54 54 54 55 55 55 54 54 53 54 51 51 51 52 54 56 55 56 55 55 53 52 52 53 51 51 49 47 46 42 39
24 24 23 23 24 24 24 27 29 42 45 45 49 49 47 48 51 52 54 54 54 53 53 54 53 53 52 52 52 51 52 50 51 53 55 56 57 56 55 55 54 53 52 50 49 47 45 43 40
25 24 22 24 24 24 24 25 24 38 42 43 45 48 48 48 50 52 51 53 53 53 52 52 52 51 52 51 50 51 51 51 50 50 52 54 55 56 56 56 54 53 52 51 49 47 46 45 42
25 24 23 23 24 24 24 22 24 35 42 44 45 48 49 48 49 49 50 50 51 51 52 51 51 51 51 50 49 49 49 50 49 50 50 53 54 56 57 56 55 53 52 50 49 48 46 45 43
23 26 26 24 23 21 24 20 23 27 36 43 43 46 48 48 50 50 50 49 50 50 52 51 50 51 51 51 49 48 46 44 42 44 48 52 55 57 57 57 56 54 53 51 50 50 48 46 43
25 27 26 25 24 23 22 22 22 29 32 37 43 45 47 48 50 51 51 51 51 51 51 52 51 50 50 51 49 49 47 46 46 48 49 50 53 56 57 58 57 56 55 54 52 51 49 47 46
28 26 25 27 24 19 22 22 21 24 26 33 41 44 46 48 50 50 51 52 52 52 52 52 51 50 49 50 50 49 49 48 49 50 50 50 52 54 57 58 58 57 56 55 54 53 50 48 47
26 24 21 19 19 18 25 26 24 25 27 30 38 42 46 47 50 50 50 50 51 51 52 52 51 49 49 49 50 49 50 51 51 51 51 51 52 55 57 58 58 58 57 56 54 54 52 50 48
23 24 21 17 18 18 30 26 26 27 27 29 37 41 45 47 49 50 50 50 50 50 51 51 50 49 49 49 49 50 51 52 53 52 52 52 53 54 56 58 58 58 58 56 55 54 51 50 49
20 21 23 21 30 27 26 28 27 23 25 29 32 41 43 46 48 50 50 51 49 49 49 49 49 48 48 49 49 50 51 52 53 54 53 53 53 54 56 57 58 58 57 55 54 52 50 49 49
21 26 22 27 19 21 25 25 25 23 21 23 30 38 43 45 47 48 49 51 50 49 48 49 48 48 48 48 49 49 52 55 56 56 55 53 55 57 57 57 56 55 55 54 52 51 49 49 48
21 22 24 24 25 19 20 22 26 26 24 20 25 38 42 45 45 47 48 48 50 50 47 48 48 48 48 49 50 51 52 55 57 56 55 54 57 57 57 56 55 55 54 52 51 49 48 47 46
19 20 24 21 23 26 23 22 26 26 28 27 22 28 42 44 45 46 47 48 48 49 49 47 48 48 49 50 51 51 53 55 56 56 55 56 56 57 57 56 55 54 52 50 49 48 47 46 45

GFSSGP_sfc_30mbdewp_084.txt.gz
Dewpoint
51 48 41 29 17 18 16 17 20 24 30 40 42 42 38 43 39 30 53 55 62 67 69 68 68 69 68 69 68 69 69 69 68 68 68 68 67 66 65 65 64 64 63 61 61 60 59 60 60
45 41 35 25 17 14 14 18 18 27 36 42 42 43 46 44 51 51 53 54 62 65 68 68 69 69 69 69 68 68 68 68 68 68 68 67 67 65 65 65 64 64 63 61 62 62 61 59 59
43 38 28 22 19 14 15 18 18 26 36 40 38 46 46 49 52 54 57 58 62 64 65 68 69 69 69 68 69 68 68 68 68 67 67 67 65 64 65 65 64 64 63 62 62 62 61 59 59
31 29 23 19 16 18 18 18 20 21 39 45 43 39 45 52 49 52 59 63 61 62 63 66 68 68 69 68 68 68 68 67 67 67 66 66 65 64 65 64 64 64 62 60 61 62 60 60 59
30 24 19 17 17 18 19 19 20 25 33 43 44 38 41 51 55 60 63 63 61 61 62 62 66 66 67 68 68 68 68 67 67 67 66 65 65 64 64 64 63 62 60 59 61 61 60 59 58
26 22 17 13 15 18 19 20 30 32 39 44 43 42 45 53 57 60 62 62 60 60 61 62 63 64 65 66 68 67 67 67 67 66 65 65 64 63 63 63 62 60 60 63 63 61 59 59 57
23 21 16 17 18 18 16 25 35 38 40 41 47 42 46 50 59 62 62 63 61 62 62 62 63 63 64 64 63 67 67 67 67 66 65 64 64 63 63 62 61 59 60 63 61 59 58 58 57
25 23 20 19 17 16 18 26 36 39 37 49 47 40 38 49 60 62 62 62 63 62 61 60 62 62 63 62 64 64 66 67 66 65 65 64 64 64 63 61 59 58 57 61 61 59 58 57 56
23 20 18 19 17 17 18 19 36 42 44 47 49 48 49 57 61 60 60 60 61 61 60 60 61 61 61 62 63 64 63 65 65 65 64 64 64 63 61 59 58 57 56 58 60 59 59 57 56
21 20 19 20 19 18 19 20 21 38 42 44 46 50 51 60 59 58 57 58 59 59 59 61 60 60 59 60 61 63 61 62 64 64 63 63 62 60 60 60 58 56 55 58 60 60 58 56 55
22 20 21 20 20 20 21 22 35 37 37 42 42 46 52 58 58 56 56 58 59 60 60 60 59 59 58 59 59 61 61 62 63 63 62 62 61 61 59 58 56 54 53 51 52 51 50 53 52
20 20 20 19 21 25 25 30 38 39 38 50 47 49 57 56 56 55 55 57 58 59 59 59 59 58 58 59 61 61 61 61 62 62 62 61 60 58 57 56 54 50 48 44 43 44 47 49 50
20 20 22 23 25 25 28 28 34 41 46 56 57 57 56 55 56 56 56 57 57 58 59 59 58 57 56 57 58 60 61 61 61 62 61 60 58 57 56 54 51 49 48 43 40 39 43 47 48
22 23 25 25 24 25 27 32 41 36 51 51 53 55 55 55 55 54 55 55 56 56 58 58 57 56 56 56 57 58 59 60 61 61 60 58 57 55 53 52 50 48 48 44 41 38 39 43 45
26 24 24 21 23 24 29 27 33 40 52 50 49 53 53 54 55 54 54 55 55 56 57 58 57 56 55 55 55 57 60 60 60 59 58 56 55 54 52 51 49 48 49 45 41 40 37 36 38
25 24 19 17 24 26 27 22 25 45 47 49 49 53 52 53 54 54 55 55 55 55 56 57 57 56 55 55 55 55 57 59 59 58 57 55 54 53 51 50 49 49 49 46 43 40 37 35 35
25 17 18 20 25 26 27 23 27 47 47 44 46 52 50 51 51 54 54 55 55 55 56 56 56 56 56 56 57 57 57 58 57 57 56 55 53 52 51 50 50 49 50 48 45 43 39 37 35
19 21 22 22 25 25 25 25 25 41 43 43 47 51 49 49 49 54 54 55 55 55 56 55 54 55 55 54 54 56 55 56 57 55 55 54 53 52 51 51 51 50 50 49 47 45 44 40 37
23 23 22 23 24 23 22 23 24 35 43 43 47 49 49 49 49 53 54 54 54 55 55 54 54 54 54 53 54 53 53 54 55 55 55 55 54 54 52 51 52 52 49 50 48 47 45 43 40
25 23 22 23 23 24 23 23 25 29 37 43 45 48 48 48 49 51 53 53 53 53 54 54 53 53 54 54 55 55 52 52 53 54 55 56 55 54 53 52 52 52 51 50 49 47 46 44 40
25 23 23 19 24 25 23 22 23 28 40 43 45 47 48 47 49 49 50 52 53 52 52 53 52 52 53 54 52 50 50 51 51 52 53 55 56 56 56 56 54 53 53 51 50 48 47 45 43
22 26 24 24 23 21 24 20 22 23 25 39 43 46 47 48 49 50 50 50 51 52 52 52 52 51 51 52 51 48 50 49 49 49 50 51 54 56 57 56 55 54 53 52 51 50 48 46 45
23 25 25 25 24 24 23 23 21 25 25 26 37 44 47 48 48 49 50 50 50 50 52 51 51 51 51 50 50 48 48 48 45 46 46 49 52 54 55 56 55 55 54 53 51 50 48 47 46
28 26 26 27 25 22 23 21 19 21 24 28 32 41 46 48 48 49 50 51 50 50 51 51 50 50 51 50 50 48 47 46 46 46 46 48 50 52 54 56 56 56 55 54 53 51 50 49 48
27 24 20 20 22 20 22 22 20 23 25 27 28 35 44 47 48 49 50 51 51 50 50 50 51 50 50 50 50 49 49 48 47 47 47 47 48 50 53 55 56 56 56 56 55 53 52 51 49
25 24 21 18 18 19 27 23 23 28 29 28 29 35 44 47 48 49 50 51 51 51 50 50 51 50 50 50 50 50 49 49 49 49 49 49 49 50 53 56 57 57 57 57 56 55 54 54 52
21 24 24 23 28 24 24 27 28 28 24 25 28 39 43 46 48 49 50 50 50 51 51 51 51 50 50 49 49 50 50 49 49 50 51 52 52 53 53 55 56 57 57 57 56 55 54 53 52
19 26 22 25 18 18 23 25 20 25 25 23 28 34 39 45 47 49 50 50 50 50 50 51 51 50 49 49 49 49 49 50 51 52 53 53 53 53 54 55 56 56 56 56 55 54 53 52 51
20 19 23 24 23 18 18 21 27 24 24 26 23 30 36 42 46 48 50 51 51 50 50 50 50 49 48 48 49 48 49 50 50 51 53 54 55 54 55 56 56 56 56 54 54 53 52 52 51
21 19 20 19 22 25 21 19 26 25 27 27 23 23 34 41 44 47 48 49 51 50 49 49 49 49 48 48 48 49 49 49 51 53 54 55 55 55 55 56 56 56 56 54 53 51 51 50 48

GFSSGP_sfc_30mbdewp_087.txt.gz
Dewpoint
52 43 39 28 18 19 16 18 21 21 26 38 40 41 37 41 37 30 53 58 64 67 68 68 69 69 69 70 70 70 70 69 69 68 68 68 68 67 66 66 65 64 62 61 60 60 60 61 62
44 40 34 25 17 14 14 18 18 21 30 41 42 44 45 39 51 52 55 57 61 68 68 67 68 68 69 69 70 70 69 69 68 68 68 68 67 66 65 65 64 64 62 60 60 60 60 60 61
42 36 28 22 19 14 14 18 18 21 30 34 38 45 43 47 53 53 57 58 59 66 68 67 69 67 68 69 69 69 69 69 68 68 68 67 66 66 65 65 64 64 63 61 60 60 60 60 60
33 28 24 20 16 18 18 18 20 20 34 43 43 39 44 48 50 53 59 64 62 64 64 64 67 66 68 69 69 69 68 68 68 68 67 66 66 66 65 65 64 63 62 63 61 60 59 60 59
29 25 20 18 17 18 19 19 21 21 30 42 43 38 41 50 56 56 62 63 63 63 63 63 65 66 66 68 68 68 68 68 67 67 66 66 66 66 65 64 64 64 63 63 61 59 58 59 59
26 23 17 13 15 18 20 21 21 30 32 43 44 43 42 52 55 59 62 62 63 62 63 63 65 65 66 64 68 68 67 67 67 66 65 65 66 65 65 65 63 62 63 63 61 60 59 58 58
22 21 15 16 17 19 18 23 31 31 37 39 45 40 45 51 57 62 62 63 63 62 62 63 63 64 62 65 64 65 67 67 66 66 65 65 65 64 64 63 62 63 63 63 61 60 59 58 57
25 23 20 20 17 16 19 22 29 33 29 48 47 40 41 48 60 62 62 62 63 62 62 62 64 64 63 64 64 64 65 66 66 65 64 64 64 64 63 61 62 64 64 62 59 59 58 58 57
24 21 19 18 18 18 20 19 30 42 41 47 48 48 49 58 61 60 60 60 61 62 61 61 62 63 64 63 64 64 65 66 65 65 64 63 63 62 60 59 61 63 63 60 59 58 58 57 56
22 20 19 21 20 19 20 21 22 32 38 40 45 50 53 59 59 57 57 58 58 60 60 61 61 61 62 63 63 64 65 65 64 64 63 62 62 60 58 58 59 61 62 60 59 59 58 53 52
22 18 22 21 21 20 21 23 24 33 30 37 38 45 51 58 58 57 57 58 58 60 60 60 60 60 60 60 62 64 63 65 64 63 62 62 60 59 57 57 53 58 60 57 57 56 52 52 51
21 22 22 21 20 24 24 28 35 37 32 48 45 47 53 56 56 56 56 56 58 60 60 60 59 59 59 59 60 62 62 63 63 62 62 60 58 57 56 53 51 52 55 58 56 53 53 53 51
21 21 21 21 21 25 26 25 28 33 46 52 52 53 55 56 56 56 56 57 57 58 59 59 58 58 57 58 60 61 61 61 62 62 61 58 56 55 54 52 48 48 49 51 52 52 52 51 51
24 22 22 26 25 25 23 27 40 38 50 55 55 55 55 55 55 54 55 55 56 57 58 58 57 57 56 58 60 61 61 62 61 61 60 58 56 55 53 50 48 46 45 47 49 50 51 50 50
26 25 25 24 22 22 27 26 30 38 52 50 52 52 52 53 55 53 53 55 56 56 58 57 56 56 56 57 60 60 61 61 60 60 59 57 56 54 52 50 48 47 45 45 44 46 48 48 48
26 25 19 18 24 27 27 23 26 40 50 49 50 51 51 54 54 53 54 55 56 56 57 57 56 56 55 56 58 59 60 59 60 59 58 56 55 54 52 50 49 50 46 43 41 41 43 43 44
24 17 18 18 26 28 27 24 26 44 48 48 50 52 52 52 52 53 54 55 55 56 56 56 56 56 56 56 57 58 58 59 59 58 56 56 54 53 52 51 51 51 48 45 42 41 40 39 38
14 21 23 20 24 24 23 24 25 32 41 42 45 49 50 50 50 53 53 55 55 56 56 56 56 56 56 56 57 58 57 58 58 57 56 55 54 53 53 51 51 51 50 48 46 43 44 40 38
21 21 21 23 25 23 20 22 24 27 39 42 45 49 50 50 49 52 54 55 55 56 55 55 55 55 55 55 56 55 55 57 56 56 56 55 54 53 52 52 51 51 51 50 49 48 45 43 41
24 22 22 23 24 24 23 22 25 29 32 36 42 47 49 49 48 51 53 54 54 55 55 54 54 54 54 55 55 54 54 55 55 56 55 55 54 53 53 52 51 51 51 52 50 49 47 47 43
26 24 23 21 24 24 24 23 24 27 36 40 44 45 48 48 48 49 50 52 53 54 54 54 54 54 55 55 55 54 52 53 53 54 55 55 55 54 52 53 52 53 51 50 52 51 49 48 45
22 26 25 24 22 13 25 20 23 24 25 33 38 45 46 48 48 48 49 51 52 53 54 54 53 53 55 55 54 53 50 51 52 52 54 55 55 54 53 53 53 53 53 52 52 52 51 50 48
22 25 25 25 23 23 23 23 22 24 23 25 30 41 45 48 48 48 49 50 50 52 52 53 52 52 53 54 53 53 50 50 53 53 53 54 55 55 55 55 56 56 55 55 55 54 53 52 51
28 25 27 28 26 22 24 23 21 20 22 26 31 38 44 47 48 48 50 50 50 51 52 52 52 52 51 53 53 51 52 50 49 51 50 51 53 54 56 57 57 57 56 56 56 55 54 53 52
26 25 20 22 22 19 23 23 22 24 25 26 26 31 43 46 48 48 48 49 50 50 50 51 51 51 51 51 51 51 50 50 49 49 48 49 50 51 52 55 56 56 56 56 56 56 55 54 53
26 25 19 12 18 19 26 21 21 27 30 31 31 31 40 46 47 48 48 49 50 50 50 50 51 51 52 51 51 51 50 50 49 49 48 48 48 49 51 53 54 55 55 56 56 57 57 56 55
25 23 23 22 28 24 24 27 28 27 27 26 26 35 41 45 47 48 49 50 50 50 50 50 50 51 52 51 51 51 51 50 49 49 50 50 51 51 52 53 54 55 56 56 57 57 57 57 56
22 27 23 23 14 15 21 24 20 24 24 26 26 30 40 45 47 48 49 50 50 50 50 51 51 51 51 52 52 51 51 51 51 51 50 50 51 52 52 53 54 54 56 57 57 57 57 56 55
19 18 23 25 23 16 16 21 28 24 24 25 28 27 35 44 47 48 49 50 50 51 51 52 52 51 51 51 51 52 51 52 52 52 52 52 52 53 53 52 53 54 55 56 56 56 56 54 54
20 20 19 17 16 27 22 20 26 28 28 28 27 28 28 38 45 48 49 50 50 50 50 51 51 51 51 50 50 51 51 51 52 52 52 52 53 53 53 53 54 54 55 56 55 55 54 54 53

GFSSGP_sfc_30mbdewp_090.txt.gz
Dewpoint
51 38 36 31 18 15 12 14 18 18 22 27 31 33 32 34 29 25 52 55 63 65 65 66 70 69 70 70 70 70 70 70 69 68 68 68 69 69 68 67 66 65 64 62 61 62 62 62 62
38 37 36 25 15 9 11 17 17 17 20 31 31 35 38 32 41 47 52 59 57 63 66 65 69 68 67 69 70 70 70 69 68 68 68 68 68 68 67 66 65 64 63 61 60 62 62 62 62
41 39 28 19 14 8 10 17 17 19 22 25 30 40 37 31 48 49 57 58 60 59 67 65 68 68 68 68 70 69 70 69 68 68 68 68 68 67 66 65 64 63 62 59 59 60 62 62 62
35 28 24 16 10 15 15 17 20 20 27 27 32 35 39 43 47 52 56 59 59 60 64 67 67 67 68 69 69 68 68 68 68 68 68 67 67 66 65 64 63 63 62 60 60 60 61 61 61
29 24 13 9 9 16 16 18 21 21 23 33 38 33 39 46 49 52 55 60 61 60 64 66 64 65 65 64 65 68 69 68 68 68 67 67 66 66 65 64 64 63 63 61 59 60 60 60 60
23 22 9 3 7 15 16 19 21 25 25 29 37 35 36 49 51 54 59 61 62 63 64 66 64 66 65 59 62 67 68 68 68 67 67 66 66 65 65 64 64 64 63 61 60 59 59 59 59
20 14 6 4 3 15 16 21 24 23 21 22 36 32 34 48 53 60 61 61 62 63 64 64 64 65 62 60 60 61 68 68 67 66 66 66 66 65 65 65 65 65 63 61 60 59 59 58 58
21 16 10 9 6 8 17 20 22 23 22 41 39 30 30 47 56 60 60 61 62 62 63 63 63 64 63 63 64 65 67 66 66 66 66 65 65 65 64 63 64 64 62 61 60 59 59 58 58
25 14 9 9 11 12 19 19 22 31 32 34 38 41 43 53 58 57 57 59 61 62 62 62 63 63 62 62 64 64 65 65 65 65 65 64 63 62 61 61 64 63 62 60 60 59 59 58 57
18 13 10 13 13 17 19 20 22 23 21 26 32 43 48 54 55 54 56 56 57 60 61 61 61 63 62 62 64 64 64 65 65 65 64 63 62 61 58 62 64 63 60 60 59 59 57 52 49
16 13 10 16 18 19 19 20 22 23 21 24 26 33 47 52 55 55 55 56 56 57 61 61 60 61 62 63 64 64 63 64 64 64 62 63 62 59 57 60 61 60 57 53 54 54 49 48 46
17 17 13 16 19 20 19 21 22 23 23 28 40 43 46 52 54 55 55 55 55 56 59 61 60 60 61 61 62 62 63 63 62 61 61 62 60 57 55 55 56 56 54 53 52 50 50 50 46
22 17 17 17 20 19 21 22 21 20 21 28 44 45 47 52 54 56 56 55 55 56 59 60 60 60 59 59 60 61 62 63 62 62 61 60 59 55 53 52 54 54 53 54 52 52 52 50 47
19 20 18 18 19 20 21 19 23 21 36 41 48 47 51 52 52 54 55 53 54 57 59 59 59 58 58 58 59 60 62 63 62 62 61 58 57 54 52 51 51 53 54 53 52 52 50 47 46
22 20 17 17 18 17 17 16 19 29 42 44 48 49 49 49 52 54 53 52 55 57 58 58 57 58 57 58 59 60 60 62 61 60 59 57 55 54 52 49 48 48 49 51 51 51 47 46 45
21 21 17 17 18 21 25 16 25 34 37 39 45 47 48 50 52 53 53 53 56 56 58 57 57 57 57 58 59 60 62 61 61 59 57 56 55 52 51 49 47 46 48 48 47 47 46 44 43
18 15 16 16 18 16 23 17 23 34 37 36 41 45 47 48 51 52 52 54 55 56 57 57 56 56 57 58 59 60 59 59 60 59 56 55 55 53 51 50 51 48 46 44 44 45 44 42 41
16 16 16 15 16 22 19 21 22 23 32 34 37 42 46 47 48 51 52 54 55 56 57 57 56 56 57 58 58 59 58 58 59 58 55 55 54 54 51 52 52 50 48 47 44 44 43 42 40
17 15 14 13 19 21 16 15 20 22 24 31 36 39 44 46 49 50 51 54 54 56 56 56 56 56 56 56 56 56 56 57 58 57 55 53 53 53 52 51 52 52 49 49 48 47 45 44 42
19 16 15 16 18 21 17 16 20 22 23 28 32 38 42 46 48 49 51 53 53 55 55 56 56 55 55 56 56 56 56 57 57 57 56 53 54 52 53 51 51 51 51 51 51 49 47 46 44
20 18 18 17 18 20 17 16 16 20 26 30 34 35 40 45 46 48 50 51 53 55 55 55 55 55 55 56 55 56 56 56 55 56 56 55 52 52 52 51 50 51 51 52 53 51 50 48 48
16 18 20 21 19 14 21 11 15 21 21 22 26 37 39 44 46 47 49 50 52 54 55 54 55 55 55 55 53 54 53 52 52 53 54 56 54 53 51 51 51 53 52 51 52 52 51 51 49
20 18 20 21 19 18 16 12 13 21 21 20 25 29 39 44 46 46 48 49 51 53 54 54 55 55 55 54 53 53 51 52 52 53 52 54 55 55 53 52 53 52 52 51 52 52 53 52 51
27 24 24 24 22 18 18 12 13 17 18 20 26 31 37 43 45 46 47 49 50 52 52 54 54 54 55 55 54 53 51 51 52 51 53 53 51 51 54 50 52 52 52 52 54 55 55 55 54
24 19 16 18 18 16 15 16 15 21 22 23 22 26 37 42 45 46 47 48 48 51 52 52 52 53 54 55 54 53 52 50 51 51 51 52 50 51 51 52 53 54 55 56 57 57 56 56 55
22 20 18 15 14 14 18 17 17 23 23 26 30 31 34 41 45 46 46 48 48 50 51 51 51 51 52 54 54 54 53 50 50 52 50 50 50 52 53 54 55 56 56 57 56 56 55 54 55
19 20 21 20 18 19 18 22 24 25 24 24 26 27 32 39 43 45 46 48 49 48 50 52 51 51 52 52 53 53 53 51 50 49 51 52 51 51 53 53 53 53 53 52 53 53 53 54 56
15 19 19 20 15 13 15 19 18 21 21 22 23 26 32 40 42 43 46 48 49 49 49 51 51 50 51 53 53 52 53 52 51 51 50 50 51 50 49 51 52 51 51 51 52 53 54 56 57
18 19 21 20 19 14 13 14 22 23 22 22 23 29 32 40 43 43 44 48 49 50 49 50 51 50 50 51 52 52 52 52 51 51 51 50 50 50 50 50 51 52 51 51 52 53 55 56 55
24 19 19 18 17 21 19 17 23 27 27 28 27 29 29 37 42 44 45 47 49 50 50 50 50 50 50 51 51 52 52 52 52 51 52 53 52 52 51 50 50 50 51 53 54 55 55 55 54

GFSSGP_sfc_30mbdewp_093.txt.gz
Dewpoint
49 38 31 28 19 14 10 12 14 12 15 19 25 26 25 27 24 24 50 54 58 59 63 66 69 70 71 70 69 70 70 70 69 69 69 69 69 68 68 68 67 66 65 63 61 62 63 63 62
35 29 31 27 14 10 7 14 14 14 17 22 28 26 26 26 27 34 45 58 57 57 64 65 69 69 70 69 70 70 70 70 69 69 69 69 68 68 68 67 66 65 64 62 62 62 62 62 63
38 30 29 21 14 9 8 14 14 15 19 19 22 29 27 24 32 39 55 56 55 57 61 66 67 68 68 68 68 68 69 68 68 68 69 69 69 68 67 66 65 64 63 63 62 62 63 62 63
31 27 22 9 9 10 13 12 16 16 17 22 20 22 28 35 40 46 53 55 56 55 58 67 67 68 67 66 69 69 68 66 68 68 69 69 68 67 66 65 64 63 63 62 62 62 62 62 62
29 22 14 12 10 8 13 13 17 17 17 20 26 26 28 36 44 48 51 56 59 59 58 65 66 65 67 65 65 64 66 67 68 68 68 68 67 66 65 64 63 63 62 62 61 62 62 61 61
21 17 11 9 6 6 14 15 18 18 18 20 26 26 28 44 47 49 57 58 61 62 62 63 65 64 66 65 58 57 63 66 67 68 68 67 66 65 64 64 64 63 62 62 61 61 61 61 60
20 16 13 10 7 4 11 17 19 19 18 17 24 24 26 38 48 57 57 59 62 62 63 65 65 65 66 63 59 60 61 63 65 67 67 66 65 65 64 64 64 62 62 61 61 61 60 60 59
21 16 12 10 8 7 8 16 16 17 18 22 24 23 25 44 53 57 57 58 61 62 62 63 63 64 66 64 61 62 62 61 65 65 66 66 65 65 65 65 64 62 61 61 60 60 60 59 58
21 13 11 10 9 9 11 15 16 19 20 20 21 30 35 42 53 53 54 57 60 62 61 62 62 64 64 64 62 61 61 61 63 65 66 65 63 63 64 63 63 62 61 60 60 60 59 58 56
18 13 11 12 11 10 12 14 15 16 17 17 20 28 38 44 49 50 52 53 56 60 61 60 61 62 63 62 63 63 61 60 61 66 65 62 63 63 61 63 63 61 61 60 60 59 57 52 49
17 14 12 12 11 13 13 14 14 16 17 19 22 27 33 44 48 52 52 53 53 57 61 60 60 60 63 63 63 62 62 62 63 65 63 61 62 62 63 63 61 58 57 54 54 53 48 45 44
14 14 13 14 11 12 15 15 14 16 17 20 21 34 39 42 47 51 52 54 52 53 59 61 61 60 61 63 63 63 62 60 64 64 62 62 61 61 60 61 58 55 52 51 50 48 48 46 45
16 16 18 15 16 14 14 12 13 14 17 20 27 39 39 42 48 54 54 53 55 53 56 60 61 61 61 61 62 63 62 62 63 62 62 62 60 59 58 58 57 53 52 51 50 49 50 48 46
18 18 19 19 17 16 15 14 14 13 16 25 36 40 41 46 49 53 54 53 53 53 57 60 60 60 60 60 60 61 63 62 62 61 62 60 60 57 57 56 55 53 52 51 49 50 50 47 46
20 19 19 19 18 16 15 13 11 12 21 30 35 43 42 45 48 50 53 51 51 56 58 59 59 59 58 59 59 60 61 62 61 60 61 61 58 56 56 56 54 52 53 54 51 51 48 45 44
21 20 17 18 17 16 15 11 13 21 27 27 36 41 43 43 47 51 52 51 53 56 58 58 58 58 58 59 59 59 61 62 62 60 61 60 58 55 54 52 52 53 53 52 51 49 45 44 43
20 16 17 17 17 16 17 15 16 28 29 27 32 36 40 42 47 51 51 51 53 55 57 58 57 57 58 58 60 60 60 61 61 60 59 58 57 55 53 50 50 51 51 51 50 48 47 45 42
17 16 17 18 17 17 15 13 17 16 22 25 26 30 38 42 44 50 50 52 53 56 57 57 57 57 58 58 59 59 60 60 59 58 57 56 55 54 52 50 50 49 47 48 48 48 47 43 42
19 17 17 18 17 16 17 15 13 14 17 20 23 27 34 41 44 49 50 52 54 56 57 57 56 57 57 57 56 56 56 58 57 57 56 55 53 53 53 51 49 48 48 49 49 49 46 45 43
20 19 19 18 17 17 19 17 13 13 13 19 21 27 32 39 45 48 51 52 53 55 56 56 56 55 57 57 57 56 56 57 57 57 56 55 55 53 53 53 52 51 52 51 51 50 49 47 46
21 21 21 18 18 19 19 17 15 14 14 17 22 25 27 37 44 47 49 51 53 54 55 56 56 55 56 57 57 56 57 56 55 55 55 54 54 53 52 53 53 53 53 53 53 53 50 49 48
21 22 19 18 18 17 18 14 13 14 16 21 23 25 27 33 43 45 48 50 53 54 55 55 55 55 56 56 55 54 53 52 54 54 55 55 54 52 53 53 53 54 54 54 54 54 53 52 49
21 21 19 19 18 19 16 15 15 14 13 16 19 21 26 33 41 44 47 48 51 53 54 55 55 55 56 55 55 55 52 53 54 55 55 55 51 51 50 51 53 53 54 54 55 54 55 53 52
21 21 21 21 20 17 19 17 16 12 16 18 22 25 27 34 41 43 46 46 49 53 53 54 54 55 56 55 55 54 53 53 52 53 53 54 52 50 50 52 53 54 54 53 54 55 55 55 53
22 21 20 25 25 18 19 18 18 17 17 18 20 22 31 35 41 43 45 45 48 52 53 53 53 54 55 55 55 54 53 54 52 52 51 53 53 53 53 53 54 54 55 54 55 55 56 56 55
19 21 17 17 21 23 20 15 15 18 18 22 22 23 30 36 41 43 44 45 46 51 52 53 52 52 55 55 55 54 53 53 52 52 51 50 51 51 51 53 52 53 54 55 56 56 58 57 57
16 19 20 18 21 21 21 18 22 21 23 22 21 26 29 35 40 43 44 46 45 49 51 52 51 52 53 55 55 55 54 52 51 52 52 51 49 49 50 51 53 52 54 54 55 57 57 56 56
10 13 16 16 17 18 18 16 16 20 22 21 21 21 24 31 38 41 43 47 47 47 49 52 51 50 52 53 55 55 55 55 53 52 53 52 52 51 51 52 53 54 55 55 56 55 55 54 55
12 11 13 16 16 14 17 16 20 22 22 22 22 25 27 31 37 40 42 45 48 48 48 51 50 49 50 52 53 54 54 54 53 53 52 53 54 53 52 53 54 54 54 54 54 54 54 54 54
25 14 13 17 14 16 16 18 24 24 24 28 27 26 28 34 38 39 40 44 47 49 48 49 50 49 49 51 52 53 53 54 54 53 53 53 53 53 53 52 51 52 53 53 53 53 53 53 53

GFSSGP_sfc_30mbdewp_096.txt.gz
Dewpoint
47 44 34 30 22 19 14 12 14 14 12 20 22 22 20 21 21 27 52 56 56 59 68 68 69 71 70 70 69 69 69 70 69 70 69 69 69 69 68 68 67 67 66 65 65 64 64 64 64
37 32 29 26 23 13 12 14 15 13 16 20 20 22 22 23 27 38 55 57 56 55 63 68 69 70 71 70 69 69 70 70 69 69 69 69 69 68 68 68 67 66 65 64 64 64 64 63 63
46 36 24 26 22 14 11 12 13 14 17 18 18 20 26 25 30 40 54 54 54 55 59 68 68 69 70 70 70 69 69 70 69 69 69 69 69 68 68 67 66 65 64 63 63 63 63 63 62
34 28 25 20 11 10 9 13 14 15 15 19 20 18 22 30 33 45 53 53 55 54 59 68 68 68 68 69 69 67 67 66 68 69 69 69 69 68 67 66 65 65 64 63 63 63 63 62 61
29 26 21 19 14 12 10 13 14 15 15 16 20 23 26 28 42 48 51 55 58 59 62 68 67 67 67 68 67 66 64 63 64 67 66 67 67 67 66 65 65 65 64 64 63 63 62 60 60
23 22 17 12 11 10 7 14 14 16 17 17 18 23 26 41 44 50 56 58 61 62 62 67 66 65 66 67 64 64 63 61 64 65 66 67 67 66 65 65 64 64 64 64 63 63 62 60 59
21 20 17 16 13 11 9 15 17 17 17 16 19 22 23 42 53 56 56 59 62 62 63 65 66 66 65 66 63 62 63 61 60 60 63 67 66 65 65 64 64 63 63 63 63 62 61 60 58
20 20 18 17 12 11 11 11 16 14 15 19 19 19 24 49 55 57 56 57 61 61 63 63 64 65 67 65 61 58 62 59 57 58 61 65 65 65 65 64 63 63 62 62 61 61 61 59 56
22 19 17 13 11 11 12 11 15 16 15 19 18 20 26 44 53 53 54 57 60 62 62 62 63 64 66 66 62 61 62 60 58 61 59 65 64 64 65 62 63 62 62 61 61 60 59 56 53
21 19 17 14 12 12 12 11 13 13 14 15 17 24 31 36 46 49 51 53 57 61 62 61 62 63 64 64 64 62 62 62 61 61 60 64 63 64 63 62 62 62 61 61 60 59 56 52 52
20 19 19 16 15 14 11 12 13 13 12 15 18 22 25 34 43 46 50 52 53 61 62 61 61 63 63 62 63 62 62 61 61 60 58 64 63 63 63 62 61 61 60 58 57 55 50 48 49
17 16 17 16 14 14 13 12 14 13 13 16 18 23 32 35 40 45 50 51 51 59 61 61 61 61 62 64 63 62 61 59 61 61 62 64 63 64 62 60 59 56 55 54 51 50 49 47 47
17 16 16 16 15 18 16 15 14 13 12 13 17 26 34 36 40 49 53 52 54 54 60 62 61 61 61 62 63 63 61 61 61 62 63 63 62 63 62 59 55 52 53 51 50 52 49 50 46
18 18 17 17 18 19 18 17 16 16 14 14 17 29 36 39 42 50 55 52 55 53 57 61 60 60 60 61 62 63 62 61 63 64 63 62 61 62 60 58 54 53 53 51 51 52 51 49 50
23 20 20 19 19 19 19 17 16 16 16 13 20 28 37 37 45 47 54 51 52 55 58 59 60 60 59 60 61 61 62 62 62 62 62 62 61 60 59 58 55 55 53 52 53 52 51 49 48
21 21 20 20 20 20 19 16 17 17 14 15 26 30 37 40 42 47 52 51 52 55 57 59 59 59 59 60 60 60 62 61 61 61 61 60 59 58 58 58 55 55 55 53 54 52 49 48 48
22 19 20 20 20 19 17 14 15 20 22 24 25 28 35 39 43 49 52 51 53 56 57 58 58 58 58 59 59 60 61 62 60 61 61 61 59 57 57 57 56 55 56 55 53 51 49 47 47
20 19 20 19 19 19 17 16 16 15 24 26 25 26 29 38 41 49 50 52 54 56 56 58 57 58 59 59 60 60 60 61 62 60 60 60 58 56 55 55 56 56 54 54 53 50 49 47 47
20 19 19 19 19 19 18 17 17 18 16 18 19 24 26 35 42 51 50 52 54 55 57 57 57 58 58 57 57 58 58 60 60 60 59 59 57 54 53 53 52 51 51 51 52 50 47 47 46
17 18 19 21 20 20 19 17 19 20 18 15 13 19 26 34 48 50 51 52 54 55 56 57 56 57 57 57 57 57 58 58 58 58 57 57 55 54 52 51 50 51 51 51 50 49 48 47 46
18 19 21 23 23 23 21 19 19 20 20 19 17 19 22 33 45 48 51 51 53 54 56 56 56 57 57 57 57 57 57 57 56 56 55 55 55 54 53 53 52 53 52 51 52 50 50 48 48
12 19 21 24 24 19 21 17 20 19 17 17 17 18 23 25 45 48 50 51 53 54 55 55 55 56 57 57 56 55 54 54 54 54 55 56 55 55 55 55 55 54 54 54 54 54 53 51 48
15 16 19 24 25 23 22 20 19 19 17 16 19 23 26 27 44 47 48 51 53 54 56 55 55 56 56 56 56 54 53 53 53 52 53 55 55 55 55 55 55 55 55 55 55 54 54 53 54
16 17 20 21 21 21 23 23 19 18 18 17 16 21 24 29 43 46 48 49 52 54 55 55 55 55 56 56 55 54 53 53 52 51 51 52 53 54 54 54 56 55 54 55 55 55 55 55 55
15 17 18 19 21 25 25 22 21 21 20 18 21 24 28 33 42 44 46 47 51 54 53 55 55 54 56 55 56 55 54 53 52 52 51 51 51 52 52 51 50 54 55 54 55 54 54 56 55
13 16 18 16 21 21 30 23 21 21 21 19 20 21 30 34 42 43 46 46 50 53 53 53 54 54 55 56 56 55 54 53 53 53 52 53 51 50 50 50 49 54 54 56 55 56 56 57 57
15 18 19 18 20 29 28 28 28 21 22 22 21 23 30 35 41 43 46 46 48 52 53 54 54 54 53 55 55 55 54 54 53 53 52 53 53 52 51 51 51 54 54 54 55 56 56 57 56
15 18 17 19 17 16 20 27 24 23 22 23 21 22 28 34 40 42 45 47 47 51 52 54 53 53 54 54 55 55 54 54 53 53 52 52 52 52 52 52 52 52 52 55 55 55 56 56 55
7 7 9 12 16 14 16 22 30 29 27 27 27 26 26 29 38 42 43 48 47 50 52 54 53 52 53 55 55 55 54 54 53 53 53 52 51 51 51 51 51 52 52 52 54 54 55 55 55
24 11 11 11 14 16 16 19 32 28 27 26 26 26 28 30 35 41 43 47 48 49 50 52 52 51 53 54 55 55 55 55 54 53 54 53 53 52 50 50 52 52 52 53 55 55 55 55 54

GFSSGP_sfc_30mbdewp_099.txt.gz
Dewpoint
50 46 44 33 27 23 18 18 16 14 21 22 22 22 22 21 20 27 55 56 66 68 69 70 71 69 69 69 69 70 70 70 70 70 70 69 69 68 68 67 67 68 67 65 65 65 66 66 66
41 38 35 28 23 22 21 17 14 18 20 20 20 21 22 22 49 55 57 57 64 68 68 69 71 70 69 69 69 70 70 70 70 70 70 69 69 68 68 68 68 67 66 65 65 65 65 65 65
42 41 30 25 25 22 20 14 14 16 18 18 18 20 25 25 47 55 57 58 56 64 68 68 69 70 70 69 69 69 70 70 70 70 70 69 69 69 68 67 67 66 65 64 63 64 64 65 65
39 36 27 23 22 22 21 15 15 15 16 19 21 19 24 30 37 54 54 56 55 61 68 68 68 69 70 70 69 70 70 69 69 69 69 69 68 69 68 67 66 65 65 64 62 63 64 63 63
31 29 24 23 22 21 21 15 15 15 16 17 22 22 25 42 53 53 55 58 59 65 67 68 68 68 70 70 70 68 67 69 67 66 67 66 65 67 67 66 65 65 64 63 63 63 62 62 61
27 25 20 18 18 17 16 15 16 17 17 18 19 23 31 48 50 56 58 61 62 63 67 67 67 67 67 68 70 66 65 65 65 65 66 65 65 66 66 66 65 65 64 64 64 63 62 61 60
26 24 20 19 19 18 16 18 18 17 17 17 20 20 39 51 55 57 60 62 62 62 64 66 66 66 66 67 66 64 64 65 65 65 63 64 65 65 66 66 65 65 65 64 63 62 61 60 57
27 22 19 19 18 18 16 17 18 15 14 19 19 18 24 54 57 57 60 61 61 62 63 64 65 65 65 65 65 64 63 64 64 63 62 61 60 65 64 65 65 65 64 63 62 61 60 58 55
24 21 18 18 19 18 16 11 15 16 15 16 18 20 35 56 57 56 57 60 61 61 63 62 62 63 66 64 62 62 63 62 62 61 60 60 59 65 63 64 64 64 63 63 62 60 58 56 53
22 20 20 21 21 18 17 14 13 13 13 15 17 34 52 55 53 53 55 57 60 60 61 61 62 63 65 64 62 60 62 61 59 60 60 57 60 62 63 63 63 63 62 62 61 59 57 53 52
21 20 21 22 21 20 17 14 14 13 13 14 17 21 34 51 51 51 52 55 59 61 61 60 61 63 64 63 63 61 62 62 59 60 60 58 62 64 63 62 62 61 61 60 59 57 52 51 51
20 20 21 20 21 18 15 17 17 16 14 15 14 20 32 37 44 48 50 53 59 61 61 61 61 62 63 62 62 61 60 62 61 60 60 59 62 62 61 60 60 59 58 56 54 51 49 49 50
21 21 21 19 18 16 16 17 19 18 16 16 15 15 33 36 41 49 53 54 58 61 61 61 61 61 61 62 62 62 60 60 61 60 59 59 63 61 60 59 58 56 55 52 51 50 47 47 48
22 21 20 21 20 20 18 19 20 19 18 16 16 15 32 37 41 54 53 54 54 60 61 60 60 61 61 61 62 62 61 60 60 61 60 60 63 61 58 56 53 53 52 48 50 49 48 47 48
25 23 24 23 22 21 21 19 19 20 20 19 17 19 34 37 45 54 54 53 54 58 59 59 60 60 60 61 61 62 61 61 62 61 61 64 63 60 57 52 52 51 49 49 51 50 50 48 49
26 24 20 22 22 22 21 18 20 22 20 19 19 25 31 38 45 54 53 53 56 57 57 58 59 59 59 60 60 62 61 62 62 62 61 64 62 60 55 51 54 52 51 51 53 51 49 48 48
25 22 22 22 23 23 22 20 20 20 19 21 23 25 29 38 49 52 51 55 56 57 58 58 58 58 58 59 59 60 61 61 61 62 61 62 60 59 56 52 55 53 53 53 52 51 48 47 48
23 22 22 21 22 22 20 20 20 17 17 23 25 26 29 37 50 52 52 55 57 57 58 57 58 58 59 59 59 59 61 60 61 61 61 60 59 58 57 55 56 55 54 55 53 50 48 48 47
23 22 21 21 21 21 21 20 21 17 19 20 26 26 26 36 51 52 54 55 55 56 57 57 57 58 58 57 57 57 58 60 60 60 60 60 58 56 57 57 56 56 54 53 51 50 48 48 47
20 19 18 18 20 21 23 24 24 21 19 20 20 19 25 48 50 51 53 54 54 56 56 57 58 57 57 57 57 58 59 60 59 60 60 59 57 54 54 55 53 53 53 51 49 48 47 46 46
10 15 17 17 20 23 26 25 22 22 20 20 20 21 31 49 49 51 52 53 54 55 56 56 56 57 57 57 58 57 58 58 58 59 59 58 56 53 52 54 55 52 52 49 48 48 45 45 46
10 10 13 17 20 22 26 23 25 23 23 21 21 21 25 48 49 51 52 53 53 54 56 56 56 57 57 56 56 56 55 55 56 57 58 57 56 55 53 54 53 53 52 51 49 49 48 48 45
11 13 12 14 19 22 25 25 25 25 24 22 20 20 22 48 49 51 51 53 54 54 54 56 57 57 57 56 55 55 55 55 56 55 55 55 56 56 55 55 53 53 53 52 51 52 52 51 49
16 16 18 17 22 21 26 24 23 24 25 22 22 21 24 47 48 51 51 53 53 54 55 56 56 56 56 56 55 55 54 54 53 54 54 54 55 55 55 55 54 53 52 54 55 54 54 53 54
16 14 16 20 18 18 22 22 23 25 25 25 23 25 29 47 48 49 51 52 53 54 54 55 55 56 56 56 55 53 53 53 52 53 53 53 53 54 54 53 54 53 55 55 55 56 55 54 53
17 16 17 18 19 21 24 28 28 28 27 25 24 27 40 46 47 48 51 52 53 54 54 54 54 55 56 56 55 54 53 52 52 52 51 51 52 52 53 52 52 54 55 54 55 55 55 55 54
18 17 18 18 22 23 26 27 31 33 29 29 24 28 41 44 46 47 49 51 53 53 54 53 53 54 55 56 56 54 54 53 52 50 50 49 50 51 53 52 51 52 54 55 55 55 55 55 54
18 20 16 18 15 16 21 26 28 31 30 31 31 26 35 43 44 46 46 51 53 53 53 53 54 52 54 55 56 55 54 53 53 52 51 51 50 50 51 51 50 51 54 54 54 55 55 55 55
17 16 18 22 22 17 17 19 33 32 32 32 31 26 30 40 43 46 46 48 53 53 53 53 54 53 53 53 56 55 54 53 53 52 52 53 53 51 51 51 50 51 52 53 54 55 54 54 54
18 14 13 16 11 16 18 18 31 31 33 32 34 34 27 28 41 45 47 47 51 52 53 53 53 53 54 53 54 54 54 54 53 53 52 53 52 53 52 51 50 50 50 50 51 51 53 54 54

GFSSGP_sfc_30mbdewp_102.txt.gz
Dewpoint
52 49 41 33 25 23 20 18 19 18 21 22 23 21 20 22 20 20 54 62 67 68 70 70 69 69 69 70 70 70 70 69 70 70 69 69 68 68 68 68 68 68 68 66 66 67 67 67 68
42 40 34 28 23 20 19 22 18 19 20 22 22 22 22 39 50 53 55 64 67 67 70 70 69 69 69 70 70 70 70 70 70 70 69 69 68 68 68 68 68 67 67 64 65 66 66 67 67
40 41 33 24 25 21 20 19 16 19 21 18 18 21 24 38 52 54 58 64 68 67 68 70 69 69 69 69 70 70 70 70 70 70 69 69 68 68 68 68 68 66 64 63 66 65 66 66 66
37 36 30 22 22 25 24 24 20 16 19 19 19 18 27 45 53 57 57 60 66 67 68 69 69 69 69 69 69 70 70 70 70 70 69 69 69 68 68 68 67 66 66 66 65 66 66 66 65
31 28 24 23 22 23 23 21 20 15 16 20 22 20 26 52 54 56 56 59 63 67 68 68 69 69 70 69 70 70 70 70 70 68 67 66 66 66 67 67 67 66 65 64 65 65 64 64 63
26 25 21 20 21 21 20 21 18 17 17 17 21 25 39 53 53 56 59 61 64 66 67 67 68 69 70 70 70 69 68 68 67 66 65 62 64 64 64 66 66 64 63 63 65 64 63 62 61
26 25 21 20 19 20 20 20 19 17 17 17 20 26 45 50 54 59 61 62 63 66 66 67 67 67 68 68 70 68 67 67 66 66 64 63 64 63 65 64 65 65 64 64 64 63 62 60 57
27 25 21 20 18 18 20 16 19 16 15 20 19 23 42 49 58 61 61 61 61 64 65 65 66 66 66 66 67 67 65 66 65 65 64 63 61 62 64 64 65 65 64 64 63 62 61 57 55
26 23 21 19 18 18 21 18 16 16 15 17 17 19 25 54 58 60 60 60 60 62 63 65 65 64 65 65 65 64 65 65 65 64 62 60 59 63 62 63 65 65 64 64 62 61 59 56 57
25 21 21 22 20 20 22 21 19 14 13 14 17 49 54 56 57 57 57 58 59 61 62 62 62 63 65 64 63 63 64 64 64 63 62 61 61 60 60 63 64 64 63 63 61 60 57 54 54
22 22 22 22 22 23 22 21 18 15 15 15 15 43 55 55 55 56 57 58 59 60 61 61 61 64 65 63 62 61 62 62 60 60 60 60 60 62 61 63 63 63 62 62 60 59 53 51 51
25 24 22 22 22 22 21 21 18 17 16 18 17 24 53 54 53 53 55 56 60 60 61 60 61 63 63 63 62 61 61 61 59 60 58 58 60 61 61 62 61 61 60 59 57 54 51 51 51
26 26 24 22 22 21 20 18 17 17 19 21 20 19 45 49 51 52 52 56 60 60 60 60 61 62 62 62 62 61 60 61 61 60 59 58 61 59 62 61 60 59 58 56 53 51 49 50 51
26 26 24 23 21 21 21 21 21 21 21 20 20 20 22 38 45 51 53 57 60 60 60 60 60 60 61 61 62 61 60 60 61 60 59 59 61 61 60 59 58 57 55 53 51 48 48 48 50
26 24 25 24 24 22 22 21 20 21 22 21 21 21 20 35 49 51 53 56 59 60 60 59 59 60 60 60 61 62 61 60 60 60 60 60 60 60 59 57 55 54 51 50 50 47 48 47 49
26 26 23 23 23 23 22 20 21 23 22 22 22 22 21 34 49 53 54 55 59 60 59 59 60 59 60 60 61 62 61 61 60 61 60 60 61 59 56 53 52 51 47 49 51 48 47 48 49
26 22 23 24 24 23 22 21 22 23 22 22 22 22 24 36 51 54 53 56 58 58 58 57 57 58 58 60 59 61 60 61 61 61 61 62 60 57 53 51 49 50 47 50 51 49 48 48 48
22 23 23 23 23 23 22 22 22 22 22 20 22 22 26 41 51 53 54 56 56 57 57 57 57 58 58 59 59 60 60 60 61 61 60 63 59 55 50 51 50 48 49 53 51 50 49 48 48
24 24 23 24 23 20 19 20 22 26 26 23 21 24 26 41 52 52 55 56 56 56 56 56 56 57 58 58 57 58 58 59 60 61 61 62 59 54 51 52 51 51 50 53 51 49 47 48 48
23 23 22 22 22 20 19 19 23 26 26 24 22 21 26 45 51 53 55 55 56 56 55 56 57 58 57 57 57 57 58 59 59 60 60 60 60 57 52 54 51 55 52 53 50 48 47 47 48
11 17 19 19 19 18 18 20 24 26 27 28 26 24 31 46 50 53 54 54 55 55 55 56 57 57 56 57 57 58 59 60 59 59 58 59 58 57 54 56 54 55 53 52 50 48 46 46 47
5 8 10 12 14 13 26 20 23 25 27 27 26 26 30 46 50 52 53 53 54 54 55 56 56 56 57 57 57 57 57 57 58 58 58 56 56 56 55 54 55 54 53 51 49 48 46 46 45
8 10 13 12 11 15 19 20 23 26 25 26 26 26 28 47 50 51 52 53 54 55 55 55 56 57 56 56 56 56 56 57 58 58 57 55 55 56 57 55 54 53 53 52 50 49 47 46 47
11 11 13 14 16 16 23 24 22 25 25 25 25 26 26 44 50 51 53 53 54 54 55 56 56 56 56 55 56 56 55 55 56 56 56 55 55 55 56 57 56 55 54 53 53 53 50 49 47
16 15 14 13 16 16 20 20 20 24 26 26 26 27 27 34 50 51 52 53 53 53 54 56 56 56 56 55 55 55 55 55 55 55 55 55 54 54 55 56 56 55 55 55 55 55 54 53 52
13 15 14 11 16 16 21 20 25 32 33 32 30 29 37 47 50 51 52 52 53 53 54 55 56 55 56 55 54 54 54 54 54 55 54 54 54 54 55 54 53 54 54 55 56 56 55 55 53
12 16 19 15 25 22 23 26 29 33 34 34 30 30 38 48 50 50 52 52 53 53 54 54 55 56 55 56 55 53 54 53 53 54 54 54 54 55 54 54 53 52 53 54 56 55 55 55 54
15 19 16 18 12 13 20 21 23 31 34 34 33 33 39 46 48 50 51 53 53 54 54 54 54 55 56 56 55 54 53 53 53 53 52 52 54 54 54 53 52 52 53 53 54 54 55 54 54
11 13 19 20 20 14 15 17 33 33 35 35 38 37 36 36 46 48 51 52 53 54 53 53 53 53 55 56 56 54 53 53 52 51 51 50 52 52 53 52 51 51 53 53 54 54 54 54 53
27 19 20 18 20 22 21 20 33 32 34 39 38 39 38 34 35 46 48 52 53 53 53 53 53 52 53 54 56 55 54 53 52 51 51 51 50 51 52 52 50 50 51 52 54 53 53 53 53

GFSSGP_sfc_30mbdewp_105.txt.gz
Dewpoint
55 48 39 32 25 23 20 18 19 18 21 22 23 22 20 21 19 19 49 64 66 68 70 69 70 70 69 70 70 70 70 70 70 70 70 70 70 70 70 70 69 69 68 67 67 68 68 67 68
43 40 31 28 23 18 17 22 20 20 21 22 23 22 25 27 48 52 56 63 66 68 70 69 69 69 69 70 70 70 70 70 69 69 69 69 69 69 69 69 69 67 65 67 67 67 67 67 68
39 40 33 24 24 18 17 20 21 19 20 21 19 21 30 31 50 54 56 65 66 68 70 69 69 69 69 70 70 70 70 70 70 69 69 69 68 68 69 69 68 66 64 64 67 67 67 67 66
36 36 29 23 20 25 24 24 25 20 17 19 19 18 27 47 48 55 59 66 66 67 69 70 69 69 69 70 70 70 70 70 70 69 69 68 68 68 68 68 67 65 64 65 66 66 66 66 65
29 28 24 22 22 23 24 24 23 20 18 19 21 20 26 48 55 58 60 66 65 66 67 69 68 68 69 70 70 70 70 70 69 67 65 64 66 66 66 66 66 65 64 65 66 66 66 65 64
25 26 23 18 20 22 21 21 21 20 20 18 21 24 32 50 55 57 59 63 65 66 67 67 69 69 69 70 70 70 69 69 68 66 66 65 65 64 64 64 65 64 63 64 65 65 65 63 62
25 24 21 20 19 20 20 20 19 18 17 17 22 27 43 52 55 59 60 63 65 66 67 67 68 69 70 69 69 69 69 68 65 65 65 64 64 64 62 62 63 63 63 64 64 64 63 61 60
26 25 23 21 19 17 20 20 17 19 16 20 22 29 35 50 57 60 61 62 64 65 66 66 66 67 68 68 69 69 68 67 65 64 63 63 63 62 60 60 62 62 63 64 63 63 61 59 59
26 25 21 21 19 18 21 20 21 19 15 16 18 29 35 53 59 60 60 60 61 63 64 65 65 65 65 65 66 67 66 65 65 64 63 63 64 64 64 63 62 62 63 64 63 62 59 57 59
26 23 23 23 21 19 21 22 22 20 19 16 15 46 53 56 58 57 58 58 59 60 62 64 64 64 64 65 65 64 65 65 65 64 63 62 62 63 62 62 62 62 64 63 62 60 57 58 59
25 24 24 22 22 23 22 22 23 21 19 18 16 26 54 56 57 56 57 58 58 60 61 62 63 63 64 63 63 64 64 64 64 63 62 61 61 62 61 61 62 62 63 62 61 58 53 56 56
23 23 24 24 23 22 21 22 21 20 20 20 19 29 53 54 55 55 55 57 58 59 61 61 61 63 64 62 62 62 63 61 61 62 61 61 60 61 61 62 63 62 61 60 59 55 52 52 53
27 26 25 26 26 24 23 21 21 20 20 19 20 22 51 53 54 55 55 56 59 59 60 60 61 62 63 62 61 60 61 61 60 61 60 60 59 60 61 62 62 61 59 58 57 52 51 51 52
26 27 27 27 27 26 23 22 21 22 22 22 22 22 36 52 52 53 54 54 57 60 60 59 61 62 62 61 61 60 61 61 60 60 59 59 60 59 60 61 61 59 58 57 55 51 50 51 52
27 25 26 25 25 25 24 22 21 22 23 22 23 23 23 37 50 51 52 53 57 60 60 59 60 60 60 61 61 61 60 61 61 60 60 58 60 59 61 60 59 58 56 55 52 49 49 50 52
24 25 24 25 25 24 22 20 22 23 23 23 24 24 24 23 35 47 51 54 59 60 59 59 60 59 59 59 61 61 61 60 60 61 60 59 60 60 61 59 58 56 53 52 50 48 48 50 51
23 21 23 24 25 24 23 21 22 24 24 23 25 25 22 23 33 47 52 56 59 59 59 59 59 58 59 59 60 61 61 60 60 60 60 60 59 61 60 57 55 52 51 51 49 48 48 49 51
20 23 24 23 24 24 23 22 23 24 23 24 26 24 23 26 32 52 54 57 59 59 58 58 58 57 58 59 59 60 60 60 61 61 60 59 61 59 58 54 51 49 49 50 48 48 49 49 50
20 23 22 24 24 23 22 21 21 21 21 24 25 25 25 26 51 53 55 57 57 57 57 56 56 57 58 58 57 58 58 59 60 61 60 60 59 57 54 51 49 46 47 50 49 48 48 48 49
22 22 23 24 24 23 23 22 21 20 23 25 26 27 26 36 50 53 55 55 56 55 55 56 56 57 57 57 57 57 58 59 59 60 60 60 57 54 52 49 47 45 49 52 49 47 48 48 49
10 16 20 21 22 21 19 17 17 20 25 27 29 29 26 32 45 52 54 54 55 55 55 55 56 57 57 57 57 57 58 59 58 59 60 58 56 53 52 48 47 47 52 51 49 48 47 46 47
5 7 10 13 17 14 18 11 16 22 22 24 26 28 27 35 47 52 53 54 54 54 55 55 56 57 56 56 56 56 55 56 58 58 59 59 57 55 55 49 50 50 53 52 50 49 47 47 46
7 9 8 9 9 10 10 17 18 23 25 24 24 26 27 36 45 51 53 53 54 54 55 55 56 55 55 56 56 56 57 57 58 57 57 58 58 57 57 55 54 54 54 53 50 49 47 47 47
13 11 11 13 13 10 11 14 13 16 21 25 26 26 27 31 46 51 53 53 54 54 55 55 55 55 56 56 56 56 56 57 57 56 55 56 57 57 57 56 55 54 54 52 51 49 48 48 47
16 15 12 14 15 11 15 18 17 23 23 28 33 33 30 30 45 50 52 53 53 54 54 54 55 54 55 54 56 56 56 57 57 56 55 54 55 56 56 56 55 54 54 54 54 53 52 50 48
13 14 14 11 13 15 22 20 20 25 33 35 36 35 38 38 41 50 52 52 53 53 54 54 54 53 55 54 55 55 55 56 56 56 56 55 55 56 57 57 56 56 55 55 55 55 55 54 53
12 13 14 13 23 19 20 25 27 32 34 35 37 38 37 48 50 51 52 52 53 53 54 54 54 55 55 55 54 54 55 55 55 55 56 55 55 56 57 57 57 56 56 56 55 55 54 56 55
12 15 13 18 12 14 18 22 20 27 30 35 36 39 40 38 48 50 52 52 52 53 53 55 55 55 55 55 54 54 54 54 55 55 54 55 55 55 55 55 56 56 56 56 56 56 56 55 55
11 13 18 17 18 14 13 16 25 23 34 33 36 40 42 43 44 48 51 52 53 53 53 54 55 55 55 56 54 54 54 53 54 54 54 54 55 55 54 54 54 54 55 55 55 55 55 54 54
26 14 13 16 19 21 17 15 36 35 38 38 41 41 43 42 44 50 51 52 53 53 53 53 54 55 55 56 55 54 53 53 53 53 53 53 54 54 54 53 53 52 52 52 52 52 53 53 53

GFSSGP_sfc_30mbdewp_108.txt.gz
Dewpoint
56 47 37 31 24 23 19 18 20 18 20 22 23 22 21 21 19 17 44 63 64 66 68 69 68 70 70 70 69 70 71 71 71 71 71 70 70 70 70 70 69 69 68 68 68 69 68 68 68
47 39 30 27 21 16 14 22 20 20 21 23 23 24 24 21 43 49 51 63 66 67 69 69 70 70 70 70 69 70 71 71 71 70 70 70 70 70 70 69 69 68 67 67 67 67 68 68 68
39 38 30 24 23 14 16 21 21 22 19 22 20 22 25 26 48 51 54 63 66 68 69 69 69 70 70 70 70 70 70 70 70 70 70 70 70 69 69 68 67 67 67 67 67 67 68 68 67
37 35 27 21 16 24 23 23 25 24 21 20 19 18 27 42 47 53 56 65 66 67 68 68 69 69 70 70 70 70 70 70 69 68 69 69 69 68 67 67 66 65 66 66 66 67 67 67 66
29 29 22 21 20 22 24 25 24 22 20 20 20 19 24 41 54 56 58 65 64 67 69 68 68 69 70 69 69 70 69 69 69 67 64 64 64 64 66 66 65 65 64 65 66 67 66 66 64
26 26 21 13 18 23 23 23 22 21 22 21 21 23 25 49 54 56 62 65 65 66 67 68 68 68 69 70 69 69 69 69 67 65 65 64 64 63 63 64 64 63 64 65 66 66 65 64 64
22 23 19 20 19 19 20 21 19 19 18 18 24 21 33 45 55 58 61 65 65 66 66 67 68 68 69 69 69 68 68 67 66 66 65 64 64 63 63 62 63 63 64 64 65 65 64 63 63
26 25 22 21 16 15 19 20 19 20 19 18 29 25 25 43 58 59 60 62 64 65 66 66 67 68 68 68 69 69 68 66 65 65 64 63 63 62 62 62 62 62 63 64 64 63 62 62 61
27 20 17 19 19 16 21 20 22 22 19 19 18 24 38 51 59 58 59 60 62 64 65 65 66 67 67 66 68 68 67 65 65 65 64 63 63 63 63 62 62 62 64 64 64 61 60 61 60
26 22 19 22 20 18 20 22 22 21 21 21 20 32 51 56 57 56 57 57 59 61 63 64 65 65 65 66 66 66 66 65 64 63 63 63 62 62 61 61 63 62 64 63 63 60 58 60 59
27 22 23 23 23 22 22 22 23 21 20 21 21 21 47 54 56 55 56 57 58 60 62 63 64 64 64 64 64 64 65 65 64 62 63 62 63 63 62 62 63 63 63 62 61 58 58 58 58
23 24 24 24 25 24 23 23 21 22 22 22 23 23 40 51 54 55 55 57 58 58 60 62 63 63 63 62 62 64 63 64 64 63 62 62 62 62 61 61 62 62 62 61 59 54 56 57 55
25 26 24 25 24 24 24 24 24 24 24 23 22 22 33 49 52 55 55 56 58 58 59 60 61 63 62 62 62 62 63 63 63 63 62 61 61 61 60 61 62 61 61 60 56 52 54 54 54
24 26 25 25 25 27 26 26 26 24 23 23 24 24 24 43 49 52 55 55 57 58 59 60 60 62 62 62 61 61 62 61 61 62 61 61 60 60 60 61 62 60 59 59 55 51 52 53 54
28 26 26 26 26 26 25 23 24 24 24 24 23 24 24 28 44 51 51 53 55 57 59 59 60 61 61 61 61 61 61 61 60 61 61 60 60 60 60 60 60 60 58 57 53 50 52 52 53
23 24 23 25 26 26 25 22 23 24 24 23 24 25 25 26 29 45 51 52 54 58 59 59 60 60 60 60 61 61 61 61 61 60 60 60 60 60 60 61 60 60 57 54 53 50 51 52 52
22 20 22 24 25 24 23 22 22 24 24 24 24 24 25 25 25 28 43 50 55 58 59 59 59 59 59 59 61 61 61 60 60 61 60 60 60 60 61 60 59 57 56 54 52 49 50 51 52
18 21 23 22 24 24 24 23 24 25 24 23 23 23 25 26 26 34 41 53 58 58 59 59 59 58 58 59 60 61 61 60 60 60 60 60 59 61 61 60 57 56 54 52 51 48 50 51 52
17 20 20 23 25 23 23 23 23 23 23 22 21 22 24 26 34 52 54 57 58 58 58 58 58 57 58 58 58 58 58 59 60 60 60 60 60 60 60 58 55 55 53 51 49 49 49 50 51
18 18 18 23 25 24 23 22 23 23 21 20 20 21 23 27 35 51 54 56 57 57 57 57 57 57 58 57 57 57 59 59 59 60 60 59 60 59 58 55 54 52 52 49 49 48 49 49 51
15 17 19 20 22 22 21 16 12 14 19 20 23 26 28 28 28 42 52 54 56 56 56 56 56 56 57 57 57 57 58 59 58 59 59 60 59 58 55 54 52 49 50 48 48 48 48 48 49
8 12 14 16 15 9 17 8 12 15 15 22 25 26 27 28 30 38 51 53 55 55 55 55 56 55 56 57 56 56 56 56 57 58 60 59 57 55 52 51 48 48 50 48 48 49 48 49 47
9 7 8 10 11 11 10 7 11 17 19 15 22 31 33 30 29 35 49 53 54 54 54 55 55 55 56 56 55 55 54 56 58 58 58 56 56 55 51 49 47 50 50 49 47 48 48 48 47
12 10 11 12 11 8 9 8 10 14 15 26 34 36 41 40 29 38 51 53 54 54 54 55 54 55 55 55 56 55 54 57 57 56 56 55 55 55 52 51 50 53 53 51 49 49 49 48 48
16 13 14 13 11 11 12 11 11 19 21 34 37 39 39 46 42 45 50 53 53 53 54 53 54 54 54 55 55 56 56 57 56 56 56 56 55 55 54 53 53 54 54 53 51 50 49 49 48
21 19 16 10 13 13 19 13 16 21 30 36 39 41 41 42 46 48 51 52 53 53 53 54 54 54 54 55 55 56 56 57 57 56 55 56 56 56 55 54 53 55 54 54 53 52 52 51 50
13 15 18 13 21 16 18 23 26 31 34 38 39 41 41 43 45 48 51 52 52 52 52 53 53 53 53 54 55 55 56 56 57 57 56 56 57 57 56 55 53 52 53 55 54 54 54 53 53
14 17 14 15 11 11 15 21 19 30 33 37 38 40 41 43 45 50 51 52 52 53 53 53 53 52 53 53 53 54 55 55 56 56 56 56 56 57 57 56 56 55 54 55 55 55 54 55 55
10 11 14 16 18 11 11 14 26 24 33 39 40 41 42 42 45 51 51 52 53 53 53 53 53 53 53 54 54 54 54 55 55 55 55 55 56 56 57 56 56 56 55 55 55 55 55 53 54
21 13 14 14 15 20 16 15 36 38 38 38 39 44 44 42 43 48 53 53 53 53 53 53 54 54 54 55 54 54 54 54 54 55 55 55 55 55 56 56 56 56 56 56 55 55 55 54 54

GFSSGP_sfc_30mbdewp_111.txt.gz
Dewpoint
55 43 35 32 22 24 17 18 20 19 20 23 24 23 23 22 31 20 45 61 63 65 68 68 69 68 69 70 71 71 71 71 71 71 71 71 71 70 70 70 70 69 69 68 69 69 69 68 68
49 36 31 28 20 13 11 21 21 21 22 24 24 25 24 20 39 45 47 61 63 66 67 67 67 68 69 70 71 71 72 72 71 71 71 70 70 70 70 69 69 69 68 68 68 68 68 68 67
40 37 29 25 22 9 12 21 20 23 24 22 21 23 25 25 45 47 49 61 65 66 67 68 68 68 69 70 70 71 71 71 70 70 71 70 70 70 69 69 68 67 68 68 67 68 68 67 67
37 34 28 20 15 22 21 22 22 25 23 22 20 20 26 36 46 52 54 62 65 66 67 68 69 69 69 69 70 70 70 70 70 70 70 68 68 67 67 68 68 66 68 67 67 68 68 67 67
30 30 20 20 17 20 24 26 26 23 22 22 20 20 24 39 52 55 57 64 65 67 67 68 69 69 69 68 70 70 70 69 68 66 67 65 64 65 63 65 65 65 67 66 67 68 67 66 66
27 27 18 9 14 22 23 24 23 21 22 22 21 23 24 44 52 57 62 64 66 67 68 68 68 69 69 68 67 69 69 68 67 67 67 65 65 65 64 65 64 65 66 66 67 67 66 65 65
25 24 17 19 18 19 20 23 21 20 20 19 24 21 28 41 53 59 64 65 66 67 68 68 68 68 69 68 67 68 68 67 66 66 65 65 65 65 65 64 63 64 65 65 66 66 65 65 64
23 24 21 19 11 12 20 21 19 20 20 18 30 25 25 40 58 60 63 65 65 66 67 67 68 68 69 69 68 67 68 67 66 65 64 63 63 63 64 62 63 64 65 65 66 65 64 64 62
27 18 16 12 17 13 21 20 22 24 20 21 21 23 33 49 59 59 60 63 64 65 66 67 68 68 68 68 69 68 67 66 65 65 64 63 62 62 59 62 63 63 64 65 65 64 63 62 61
25 18 14 18 20 17 20 22 22 21 21 21 22 24 43 53 57 55 56 57 61 63 65 66 67 68 67 66 68 69 68 66 66 65 63 63 63 61 60 62 63 64 64 64 63 63 62 61 60
27 19 21 21 22 22 21 21 23 21 19 22 21 24 28 46 52 55 55 56 57 61 64 65 66 67 67 65 66 67 67 66 65 64 63 62 62 62 62 63 63 63 64 63 62 61 60 59 58
25 26 24 21 24 24 22 24 22 22 21 23 25 26 25 30 42 50 54 55 57 59 62 64 65 66 66 65 65 65 65 65 65 64 63 63 62 62 61 61 61 62 63 63 60 58 59 59 57
26 26 25 25 25 25 25 23 23 23 24 26 27 26 25 27 39 50 53 55 57 58 60 62 64 65 65 64 64 64 64 65 64 63 63 63 62 62 62 60 62 62 63 62 59 57 58 57 56
22 24 23 24 23 25 24 23 24 24 27 26 26 26 27 27 31 42 52 54 57 58 59 61 63 64 63 63 63 63 64 64 64 63 62 62 62 61 61 60 61 62 62 61 58 56 56 56 56
26 23 25 26 25 24 27 25 25 27 27 26 26 26 26 26 27 37 42 49 52 57 59 60 62 64 63 63 62 62 63 63 63 63 62 62 62 61 60 60 62 61 61 59 57 56 55 55 55
20 21 21 25 27 27 24 20 25 26 26 25 27 26 27 27 28 29 35 40 47 54 58 60 61 62 62 62 62 62 62 62 61 61 62 61 61 61 60 60 61 61 60 58 55 55 54 54 54
17 11 19 22 26 25 25 21 23 25 25 25 26 26 26 26 27 28 30 32 42 54 58 59 61 62 61 61 62 61 61 61 61 61 61 61 61 61 60 60 60 61 59 57 54 54 54 53 54
10 14 20 18 22 25 23 23 24 25 25 25 25 25 26 25 25 28 39 44 45 55 58 59 61 61 61 61 61 61 61 61 61 61 61 60 61 61 61 60 60 59 57 56 53 53 53 53 53
11 17 17 21 25 24 23 23 24 25 25 25 25 25 24 23 26 34 51 54 55 57 58 59 60 60 60 59 59 59 58 60 60 61 61 61 60 61 61 61 59 58 56 55 54 53 53 53 53
13 10 9 14 20 20 20 20 21 22 23 23 23 22 21 23 25 30 47 55 57 57 58 59 59 59 59 59 58 58 60 60 60 61 60 61 60 60 60 60 58 57 55 54 53 52 51 52 53
11 10 10 9 16 22 22 14 9 10 18 19 21 22 23 26 29 31 37 51 55 57 57 58 58 58 59 58 58 58 59 59 59 60 60 60 60 60 60 59 58 57 54 52 52 52 51 50 52
8 11 12 12 16 8 15 1 9 10 11 21 22 30 37 40 39 35 33 48 54 56 56 57 58 58 58 57 56 56 56 55 58 59 59 60 60 60 59 57 57 57 54 52 52 53 52 52 51
14 13 13 13 13 13 8 8 6 16 17 19 35 38 41 45 44 38 35 43 52 56 55 57 58 57 56 57 56 56 56 57 58 58 59 59 59 58 57 56 55 55 54 52 51 52 52 52 51
14 11 11 13 11 5 6 5 6 10 14 33 37 39 41 43 46 49 45 49 53 56 54 57 57 55 55 57 57 57 55 55 56 57 57 57 57 56 55 54 53 53 53 52 51 51 52 52 51
13 10 7 9 10 9 13 8 6 16 28 36 38 40 42 43 46 48 50 52 53 54 53 55 55 54 55 57 57 56 55 55 56 56 57 55 55 53 53 53 53 53 52 51 51 51 52 52 51
13 12 8 2 7 7 14 10 11 19 25 39 41 41 42 43 47 49 50 52 53 53 53 54 53 54 55 56 56 55 56 56 57 57 57 55 55 53 54 53 54 53 52 51 51 51 52 52 52
20 15 15 14 21 16 17 19 24 30 37 39 41 41 42 45 50 50 51 52 52 52 53 53 54 54 54 55 55 55 56 57 57 56 57 57 56 55 55 55 55 54 53 52 51 51 51 51 52
19 21 17 17 10 10 14 19 15 31 36 39 40 41 41 46 49 51 52 52 53 52 53 54 54 53 54 54 54 55 55 57 57 57 56 57 57 55 54 54 54 55 54 54 53 53 53 52 53
6 15 18 17 17 8 7 12 25 28 36 39 41 40 41 44 48 50 52 53 53 53 53 53 53 53 53 53 54 54 55 56 56 56 56 56 57 56 55 53 53 52 53 54 54 53 54 53 53
13 7 16 14 14 16 13 13 36 38 39 39 42 40 41 40 45 47 49 53 53 53 53 53 53 54 54 53 53 54 54 55 56 55 56 56 56 57 57 55 54 52 52 52 53 54 54 53 53

GFSSGP_sfc_30mbdewp_114.txt.gz
Dewpoint
52 41 32 30 18 12 4 9 19 18 19 23 24 29 24 23 22 17 44 55 54 56 62 67 69 68 69 70 71 72 71 71 71 71 71 71 71 71 70 70 69 70 70 69 68 69 68 69 69
46 33 29 24 10 2 -0 11 18 18 22 24 24 25 22 20 26 35 47 55 54 56 62 65 69 68 68 70 71 71 72 71 71 71 71 70 71 70 69 69 69 69 69 69 68 68 68 69 69
38 32 22 12 6 0 -3 14 18 21 24 21 22 23 21 20 30 33 39 54 54 57 60 65 68 68 69 70 71 71 71 71 71 71 70 69 69 68 67 67 69 69 69 69 68 68 69 68 68
29 26 21 11 4 7 7 14 21 22 22 21 21 20 22 31 35 41 44 53 55 57 59 67 68 68 69 70 70 70 70 71 71 70 70 69 68 67 66 65 68 68 68 67 68 69 68 68 67
29 22 10 7 3 4 14 21 25 21 21 22 20 19 22 33 43 49 48 54 55 59 62 68 68 68 69 70 70 70 70 70 70 69 68 66 66 63 65 64 64 66 67 68 68 68 67 67 66
17 19 9 0 0 9 12 14 19 18 20 20 20 20 22 38 43 50 52 56 59 63 65 67 68 68 68 69 69 70 69 69 68 67 67 66 63 62 64 64 64 67 67 68 68 67 67 66 65
19 14 6 3 2 8 10 14 17 18 19 19 21 21 23 36 48 57 57 60 63 65 66 67 68 68 68 67 67 69 69 68 68 67 67 66 65 65 65 63 65 67 67 67 67 66 66 65 64
22 18 12 8 7 3 9 15 17 19 18 20 23 20 23 37 51 56 59 61 62 64 65 66 67 68 68 67 67 67 68 68 67 67 65 64 63 64 65 65 66 66 66 67 67 66 65 64 63
25 16 10 9 7 6 14 13 19 22 20 20 21 24 27 37 48 51 57 60 61 63 64 65 66 67 68 68 67 67 67 67 66 66 65 64 63 65 64 62 65 66 66 67 66 65 64 63 62
21 16 13 10 10 9 12 13 14 18 19 19 20 25 26 33 39 42 49 54 60 61 63 64 65 66 68 67 68 67 67 67 65 65 64 63 63 62 59 59 64 65 65 66 65 64 63 62 62
23 19 18 15 14 13 11 13 13 15 12 17 19 20 23 26 33 39 40 47 52 58 62 63 65 66 67 66 67 67 68 67 66 65 64 62 62 60 57 58 62 64 65 64 64 63 62 61 61
23 21 22 19 19 20 17 16 17 15 13 16 19 22 24 26 26 31 35 40 47 54 60 63 64 65 68 67 66 67 68 68 67 66 65 63 63 61 58 58 59 62 64 63 63 62 61 60 59
24 23 21 23 22 21 21 19 19 18 17 19 20 23 24 25 26 30 35 38 44 51 57 62 64 64 67 66 66 66 67 67 66 66 65 64 62 61 58 58 57 60 63 63 63 62 60 59 58
20 22 22 22 21 21 20 21 20 20 22 23 22 23 22 24 25 26 30 40 45 50 55 60 62 64 65 65 65 65 65 66 66 65 65 64 63 61 60 60 60 61 63 63 61 60 59 58 57
20 19 20 20 21 21 22 22 22 24 24 22 22 24 25 25 25 26 29 33 41 46 53 58 62 63 64 64 64 64 64 65 65 65 64 64 63 62 61 61 60 59 63 62 60 60 58 56 56
19 18 18 20 22 22 21 19 22 25 25 26 27 28 27 26 26 26 28 30 32 36 45 55 59 62 64 63 63 63 64 64 64 64 64 63 63 62 62 61 61 62 62 61 59 58 56 54 54
12 9 9 13 22 22 24 19 21 24 23 23 25 25 25 26 26 27 28 29 31 35 42 54 59 62 63 63 63 62 63 63 63 63 64 63 63 62 62 60 62 62 61 60 58 57 55 53 53
5 6 8 9 10 16 19 20 22 24 24 25 25 26 26 26 26 26 27 29 39 42 46 54 59 61 63 63 63 63 62 62 62 63 62 63 62 62 62 61 61 61 60 59 58 57 55 53 53
4 4 4 5 10 19 17 17 18 20 22 24 25 25 26 26 27 26 26 34 48 49 51 55 58 61 62 61 61 61 61 61 61 61 62 61 62 61 61 61 61 61 59 58 58 57 54 54 54
5 3 3 2 4 12 12 9 10 13 17 21 22 23 21 21 22 22 25 38 50 51 54 55 57 60 61 61 61 60 60 60 60 61 61 61 61 61 61 61 61 60 59 58 57 56 54 54 54
4 2 1 4 5 7 9 9 9 10 11 13 14 15 15 18 19 26 29 34 46 52 55 55 57 59 61 61 60 60 59 59 59 60 61 61 61 61 60 61 60 59 58 57 56 56 54 53 54
2 2 6 7 6 4 7 2 2 10 10 10 13 17 22 28 34 36 34 33 41 52 56 57 57 58 60 60 59 57 56 55 57 58 59 61 60 61 60 60 59 58 58 57 55 55 54 53 52
5 5 9 11 9 8 7 6 3 4 4 13 15 26 35 39 42 43 41 37 38 52 56 58 58 59 60 60 58 56 54 55 56 57 58 59 60 61 60 60 59 58 57 56 55 55 54 54 52
9 12 11 10 7 6 5 6 1 1 11 13 33 37 40 41 43 45 46 43 44 54 56 57 58 58 58 58 57 56 55 56 56 56 58 58 60 60 59 59 59 58 57 56 55 55 55 54 53
6 9 -0 0 2 -1 1 4 3 6 20 25 34 39 41 42 46 46 46 47 48 54 54 57 57 57 57 58 57 56 56 56 55 55 55 57 58 56 56 57 57 57 56 55 55 55 55 55 54
5 6 -1 -6 -4 -1 7 7 7 10 18 36 39 40 41 44 48 48 49 51 52 53 53 56 56 55 56 57 56 57 56 55 55 55 55 57 57 56 55 55 55 56 56 55 54 54 55 55 54
2 4 4 -5 -2 3 2 10 9 18 15 35 38 40 42 46 49 50 51 52 53 53 53 55 55 55 56 56 56 56 56 55 55 56 57 57 57 54 53 54 54 55 54 55 55 55 56 56 55
2 5 0 -3 -3 -5 -6 2 8 18 26 35 38 39 43 47 49 51 52 52 52 52 53 54 55 55 55 55 55 55 54 55 56 58 57 57 56 55 53 54 55 54 54 54 55 55 55 55 55
7 12 6 -1 2 -4 -3 2 13 25 31 36 39 40 43 46 47 49 51 53 53 53 53 54 54 55 55 54 55 54 54 55 57 57 57 57 56 55 54 54 55 54 53 53 53 53 53 53 53
5 10 10 6 3 3 3 3 30 29 34 38 39 39 41 44 45 47 48 49 49 53 53 53 54 54 54 55 54 54 54 55 56 57 57 57 56 55 54 55 54 54 53 52 52 52 51 52 52

GFSSGP_sfc_30mbdewp_117.txt.gz
Dewpoint
51 43 32 22 17 10 1 3 7 14 16 19 19 26 22 22 24 24 37 47 46 50 62 67 69 70 70 70 71 71 72 72 71 71 71 71 70 70 72 71 71 70 70 69 69 69 69 69 69
42 34 24 20 14 2 3 1 9 13 20 22 22 30 21 19 20 32 41 48 47 51 61 65 69 68 70 70 71 71 72 72 72 71 71 70 70 70 69 69 69 69 69 69 69 69 69 69 69
47 28 18 13 9 2 -1 2 8 14 22 22 21 24 20 20 22 31 39 45 46 50 57 66 68 68 70 70 71 71 72 71 71 71 71 69 68 67 67 67 66 68 70 69 69 68 69 69 68
34 21 20 15 8 3 2 2 10 16 21 20 20 20 21 26 27 30 38 41 45 50 54 68 68 68 69 70 71 71 71 71 71 71 70 67 65 66 65 65 65 66 68 68 68 69 69 68 68
25 18 12 7 2 0 4 7 16 19 18 21 19 20 20 26 33 36 38 43 48 51 59 67 68 68 69 70 70 70 70 70 70 70 69 66 66 65 65 66 66 66 65 68 69 69 68 67 67
18 15 10 5 4 4 3 8 16 20 17 19 20 20 21 28 34 42 42 48 53 56 62 67 67 68 69 70 69 70 70 69 70 70 68 65 62 61 56 65 65 65 65 68 69 68 67 67 66
19 13 9 6 5 3 3 9 8 14 16 17 20 19 21 32 44 51 47 51 57 61 64 67 67 67 68 68 69 69 69 69 69 69 68 66 64 64 62 63 65 64 66 68 68 67 66 66 65
20 17 13 10 10 6 6 7 10 11 13 19 20 19 19 40 44 48 51 54 58 62 64 65 66 67 67 67 68 68 69 68 68 67 67 65 64 64 61 65 65 65 67 68 67 66 66 65 64
24 20 16 13 12 9 8 8 11 9 11 18 19 22 28 35 41 45 52 55 58 61 63 63 65 66 67 67 67 67 67 68 67 67 66 65 63 60 63 63 65 67 67 67 66 66 65 64 63
23 21 19 16 13 10 9 9 10 12 14 14 19 23 25 27 34 37 44 51 56 59 62 62 64 65 66 66 67 66 66 66 65 66 66 65 63 62 62 63 65 66 66 66 66 65 63 63 63
24 22 21 19 17 14 12 12 10 9 12 12 17 20 23 23 26 33 34 41 51 55 60 61 63 65 65 67 67 66 66 64 65 64 64 64 63 64 62 63 62 65 65 63 65 63 62 60 61
22 24 24 22 21 19 17 17 16 12 11 10 13 17 22 22 25 26 30 32 38 49 58 61 62 64 67 66 65 64 66 63 63 65 66 64 64 63 62 58 56 62 64 63 62 62 61 61 61
20 21 23 23 22 22 21 20 20 19 17 16 13 14 18 21 23 25 26 29 33 39 51 60 62 64 67 65 63 63 65 65 64 64 66 65 63 62 60 59 60 62 65 64 62 60 62 61 60
21 22 22 23 24 23 22 22 21 21 21 20 19 18 18 19 21 23 26 27 33 39 48 56 61 63 65 66 65 64 65 65 67 66 65 65 64 64 61 61 60 61 63 64 63 62 61 60 58
17 18 19 20 21 21 22 21 22 23 23 22 21 21 21 17 18 20 23 25 27 37 44 53 60 63 64 66 66 65 63 64 66 66 65 65 64 64 62 61 61 61 63 63 62 62 61 60 57
10 17 18 19 20 21 21 19 22 23 23 23 24 24 23 22 21 20 22 24 25 30 41 48 54 61 64 65 64 63 63 63 65 65 65 65 64 64 63 62 62 61 63 62 62 62 61 59 56
2 -0 5 11 14 18 21 20 21 21 22 22 25 26 26 26 26 25 24 25 25 29 32 40 54 59 64 64 63 62 63 63 64 64 64 64 63 63 63 62 62 62 63 62 61 60 59 58 57
-5 1 1 5 9 10 16 18 20 21 22 24 24 24 24 25 25 26 27 27 27 30 33 39 50 58 63 64 63 62 62 63 63 63 63 63 63 63 62 62 62 63 62 61 60 59 59 56 53
-4 -3 -2 6 6 8 9 11 12 17 19 21 23 24 25 26 27 27 28 28 28 32 42 45 49 58 62 62 63 62 61 62 62 62 62 62 63 62 62 62 61 62 61 60 60 59 57 55 53
-10 -7 -1 -3 -2 -0 2 8 16 15 13 16 19 21 23 25 26 27 27 28 31 34 46 48 51 56 61 62 62 62 61 61 61 60 61 62 62 62 62 62 61 62 61 60 59 59 56 55 55
-4 -8 -7 -5 -4 -0 3 2 3 6 9 8 9 13 18 20 22 21 22 25 29 41 47 50 52 55 60 61 62 60 60 61 60 60 60 61 61 62 62 62 61 61 61 59 59 59 55 54 53
-3 -3 -2 -6 -4 -4 1 -1 -1 2 4 7 9 11 13 13 15 17 21 26 30 38 48 51 52 54 62 62 60 59 58 58 59 58 60 60 60 61 61 61 61 61 60 60 59 59 57 55 53
-7 -3 2 -0 -1 1 -2 -6 -3 1 3 7 9 10 14 23 30 32 32 32 32 35 48 53 53 54 61 61 59 59 57 57 56 56 57 59 60 61 61 61 60 60 60 60 58 58 57 56 54
6 0 1 6 3 3 2 -3 -5 -2 4 9 17 19 27 35 37 38 39 44 39 49 53 57 55 55 59 60 59 59 57 55 54 55 56 58 59 60 61 61 60 59 59 59 58 58 58 56 55
7 4 -2 4 3 2 0 -2 -2 1 2 8 23 32 36 39 40 41 42 44 42 49 55 56 57 56 59 60 59 58 57 55 55 55 55 57 58 60 60 61 60 59 58 58 58 57 57 57 55
5 4 0 0 -1 -2 -5 -6 -4 1 3 17 29 35 38 39 44 44 47 48 49 52 54 55 56 58 58 59 59 57 57 56 55 55 54 55 57 58 59 60 59 59 58 58 57 57 57 57 56
3 2 2 3 -0 -3 -5 -5 2 4 8 27 33 35 39 42 45 47 50 51 52 52 53 54 56 57 57 58 59 57 56 55 54 54 55 56 57 58 58 57 57 58 57 57 57 57 57 57 57
6 3 1 2 1 -3 -5 -3 -1 5 12 25 30 35 41 45 47 49 50 52 52 52 53 54 56 56 57 58 57 56 56 55 55 56 57 57 58 57 55 54 55 55 56 56 56 56 57 57 57
4 2 -2 2 2 -2 -6 -5 1 4 11 19 29 36 41 44 46 48 50 51 52 53 53 54 55 56 56 57 56 55 54 55 55 56 57 57 57 57 55 54 54 54 54 55 55 55 56 56 56
24 2 -0 -1 1 -2 -4 -2 18 12 20 24 36 37 42 44 44 46 48 49 49 51 53 53 54 56 56 55 55 55 54 54 55 56 57 58 57 56 54 54 54 54 54 54 54 55 56 56 56

GFSSGP_sfc_30mbdewp_123.txt.gz
Dewpoint
51 50 46 36 27 20 16 13 15 13 9 20 22 23 24 29 34 39 54 57 64 66 69 70 70 69 70 70 70 71 72 72 72 71 71 71 70 70 69 69 69 69 69 70 69 69 69 69 70
45 43 39 31 18 13 13 15 15 14 18 22 20 24 25 31 41 50 53 61 63 65 68 69 69 69 70 70 70 70 72 72 72 71 71 70 69 68 68 67 66 67 66 68 69 69 69 69 69
47 44 38 23 16 12 13 13 14 16 22 22 20 21 25 28 43 45 55 61 61 64 67 69 69 69 70 70 70 71 72 72 71 71 71 69 68 67 67 66 65 66 64 66 68 69 70 69 68
38 39 37 16 13 14 12 11 10 13 21 21 21 20 24 31 41 46 55 60 60 64 67 68 68 69 69 70 71 71 71 69 70 70 70 67 67 66 66 66 66 63 63 66 66 68 69 68 67
38 35 21 15 12 12 12 11 10 7 20 20 19 20 22 35 43 44 51 58 60 67 66 67 68 69 69 70 71 71 68 68 69 69 69 67 66 67 65 66 62 60 62 65 66 68 68 67 67
35 29 19 14 14 14 13 13 13 12 19 20 19 19 24 40 40 41 47 58 66 66 67 67 68 69 69 70 70 70 68 67 68 70 68 66 66 65 65 66 64 62 64 63 65 66 67 67 66
37 30 21 16 15 14 14 13 11 8 17 18 19 18 22 36 41 44 56 65 67 68 66 67 68 69 69 69 69 69 68 67 69 69 67 66 67 65 64 65 62 62 65 64 65 66 66 65 65
30 27 23 21 18 17 18 18 13 9 7 10 14 16 24 46 45 52 61 66 67 67 66 66 67 68 68 68 69 69 68 68 69 68 67 66 65 64 64 66 63 61 62 64 68 66 65 65 65
26 25 23 22 20 19 20 20 20 11 9 9 10 23 46 48 48 52 58 63 66 67 66 66 67 68 68 67 68 68 69 69 69 68 65 65 64 63 65 66 65 64 62 65 67 66 64 64 64
24 24 24 25 24 22 22 23 24 22 10 9 10 37 42 44 46 47 54 60 63 65 66 66 67 67 68 68 67 68 68 68 68 67 65 63 62 64 64 64 65 65 64 66 66 66 65 64 64
24 24 25 26 26 25 25 24 25 23 16 11 10 20 37 40 41 45 51 59 61 64 66 66 67 67 68 68 67 67 68 68 68 67 65 63 63 63 61 63 64 65 66 66 65 65 64 64 64
18 19 22 24 25 25 24 24 24 24 23 21 19 19 22 30 38 41 48 54 61 63 64 66 67 67 68 67 67 67 67 67 67 67 66 66 65 62 63 64 64 64 65 64 63 63 63 63 63
10 12 18 19 19 19 21 21 23 23 25 24 24 24 22 17 25 34 42 52 57 62 64 65 66 67 68 66 67 66 66 66 66 67 67 67 65 63 64 64 64 64 64 64 63 63 62 62 62
11 11 10 11 12 13 17 19 22 22 25 24 24 24 24 23 20 29 29 29 48 58 63 64 65 67 68 66 66 66 65 66 66 66 67 66 65 64 63 63 63 63 64 63 63 62 61 61 61
10 6 9 9 15 15 14 14 18 21 22 25 25 25 25 24 23 20 25 25 27 50 61 63 65 67 67 67 66 66 66 65 66 66 67 66 65 65 64 63 63 63 64 64 63 62 61 60 61
11 5 3 4 6 6 10 13 16 20 21 21 22 25 25 25 24 23 22 23 25 31 60 63 64 66 67 67 66 65 66 65 66 67 67 66 65 64 63 62 63 64 64 63 62 61 60 60 60
8 1 1 2 3 2 2 -0 2 19 20 21 22 23 23 24 25 24 23 22 23 28 55 62 63 65 67 67 66 65 66 65 66 65 66 66 65 64 63 62 62 63 63 62 61 60 60 59 59
5 3 2 0 -0 2 1 1 4 10 13 19 21 23 23 23 25 25 24 23 21 24 40 61 63 65 67 67 66 65 65 65 66 65 65 66 65 65 64 63 62 63 63 61 60 59 59 59 59
6 5 3 3 2 -0 -2 -3 -3 2 9 10 16 19 22 26 27 26 26 26 25 25 36 60 62 64 67 66 65 65 64 64 64 65 65 65 66 65 64 63 62 63 62 61 60 59 58 59 59
10 7 5 5 3 0 -1 -2 -4 -2 2 6 7 8 16 22 26 27 30 30 30 31 39 53 60 64 65 66 66 65 64 63 64 65 65 64 65 64 64 63 62 63 62 61 60 59 58 58 58
12 10 9 8 7 5 1 -2 -4 -1 5 4 4 4 8 16 14 18 27 33 36 35 44 52 58 63 64 65 65 63 63 63 62 63 63 63 63 64 63 63 62 62 62 61 60 59 58 56 57
6 12 14 13 14 5 5 -4 -3 -2 3 3 4 3 6 8 9 12 23 29 31 36 46 48 55 61 63 64 64 62 62 61 61 61 62 62 62 64 63 62 62 62 62 61 60 60 58 57 56
15 17 16 17 16 13 6 1 -4 -3 -2 -1 1 2 5 7 8 10 16 27 28 34 47 48 49 58 61 64 63 62 61 61 61 61 61 61 61 61 62 62 62 62 61 61 60 60 59 58 56
15 21 20 18 15 11 7 6 -2 -2 -4 -3 -1 2 5 4 8 13 26 33 45 45 51 51 50 55 62 63 62 62 61 60 60 60 59 60 61 61 60 62 62 62 61 61 60 60 59 58 56
17 23 19 13 10 7 7 6 3 3 -1 -1 1 6 34 29 29 42 48 50 56 56 56 56 57 61 62 62 61 61 60 60 59 59 59 59 60 61 60 60 60 61 61 61 60 59 59 58 56
17 18 18 14 8 8 5 5 2 4 4 4 4 35 39 45 50 51 52 53 54 56 56 55 55 56 61 61 61 61 61 61 60 60 60 59 60 60 61 60 60 59 60 60 60 60 60 59 58
28 27 28 25 21 14 8 8 8 0 4 6 7 34 42 49 51 51 52 52 52 53 54 54 54 56 58 60 62 61 61 61 60 59 59 60 60 60 61 61 60 59 59 59 59 59 59 59 58
24 31 25 21 11 7 9 9 6 7 10 5 17 39 49 51 51 50 51 51 52 53 54 54 55 57 58 58 60 60 60 59 58 58 57 58 59 60 60 60 60 60 59 59 59 59 59 59 59
22 25 28 30 18 8 5 6 8 10 13 23 28 46 49 49 50 50 50 50 50 51 51 53 54 56 57 57 58 59 59 58 57 56 57 58 59 59 58 58 58 58 58 59 58 58 58 58 58
23 19 26 23 22 21 9 5 6 7 32 37 39 49 49 49 48 48 47 47 47 47 48 49 50 52 54 57 57 58 59 58 57 56 58 58 58 58 56 56 55 55 56 57 57 57 57 57 57

GFSSGP_sfc_30mbdewp_129.txt.gz
Dewpoint
52 50 43 33 23 19 8 5 17 8 10 14 18 25 26 36 37 33 54 58 64 67 69 70 70 70 70 70 70 71 71 71 71 71 71 71 71 71 70 70 70 70 70 68 68 68 68 67 68
48 44 36 27 17 5 -4 15 12 11 15 16 20 25 27 34 48 52 51 62 65 68 69 69 69 70 70 70 70 71 71 71 71 71 71 71 71 70 70 69 68 69 70 69 68 68 68 67 67
47 43 38 28 19 3 -0 10 12 13 15 13 14 22 36 40 49 50 52 64 67 68 69 69 69 69 69 70 70 71 71 71 71 70 70 71 70 69 69 68 67 68 69 69 68 68 68 67 68
36 39 36 30 20 17 13 13 14 14 14 15 17 18 31 46 48 49 61 64 66 68 68 68 68 69 69 69 70 71 71 70 70 70 70 70 69 69 68 66 67 68 68 68 69 69 68 68 67
37 35 32 26 23 20 18 16 17 16 16 17 20 18 28 46 49 55 59 62 62 66 68 68 68 69 69 69 69 71 71 70 70 70 69 69 69 69 67 66 67 68 68 69 69 68 67 67 67
32 31 28 21 23 21 22 21 20 21 20 23 22 22 35 43 52 54 58 60 63 65 67 68 68 69 69 69 70 70 70 70 70 69 69 69 68 68 67 65 65 66 66 67 67 67 66 66 67
34 33 28 24 26 27 26 23 23 22 22 24 23 19 30 46 51 54 57 61 63 65 66 67 68 69 69 69 69 69 69 69 70 68 68 68 68 67 66 65 64 65 66 66 66 66 66 66 65
39 35 32 30 27 27 26 25 24 24 24 25 24 21 31 37 53 58 62 64 63 65 66 67 68 68 68 69 68 67 68 68 69 68 67 67 66 66 65 63 64 65 65 65 66 65 66 66 64
28 26 26 27 25 25 26 26 26 27 26 26 25 25 35 49 60 62 62 63 63 64 65 66 67 67 68 68 68 67 67 68 68 67 67 66 65 65 65 63 63 64 64 65 66 65 65 65 64
22 23 26 27 26 26 26 25 25 26 25 25 26 26 27 50 56 59 59 59 61 62 63 65 66 66 67 68 68 67 67 68 68 67 66 65 64 64 64 63 63 64 63 65 66 65 65 64 63
22 20 22 22 23 25 25 25 26 25 22 24 22 24 25 36 48 55 60 61 60 62 63 64 65 66 66 67 67 67 67 68 67 66 65 64 63 63 63 63 63 62 63 65 66 65 64 64 63
12 10 10 16 14 9 10 19 14 14 17 22 23 25 25 25 35 49 52 57 61 62 62 64 65 65 66 66 66 66 66 66 67 66 64 62 61 62 62 63 63 62 63 64 64 64 63 63 63
7 9 14 14 9 8 8 8 10 11 13 16 21 26 24 25 25 26 40 48 54 60 63 64 65 65 65 65 65 65 65 66 66 66 64 62 61 61 62 62 63 63 63 63 63 62 63 63 62
16 15 14 10 7 3 3 6 10 5 12 16 20 22 24 25 25 26 26 32 46 55 62 65 64 65 65 65 65 64 64 65 65 65 64 63 61 61 62 62 62 63 62 63 62 61 62 62 62
18 16 13 5 2 4 6 1 -0 3 8 5 7 14 19 24 25 25 26 26 32 50 60 65 65 65 65 65 64 65 65 65 64 65 65 64 63 62 61 62 62 62 63 62 61 61 61 61 62
13 10 6 7 7 5 5 2 4 6 5 5 5 4 6 17 23 25 26 26 32 43 60 64 65 65 65 66 65 65 65 65 65 64 65 65 64 63 62 62 62 62 62 62 61 60 60 60 61
9 8 9 9 10 11 10 8 8 10 7 6 4 3 4 8 16 19 24 26 26 42 57 63 65 66 66 66 66 65 65 65 65 65 64 65 65 64 63 62 62 62 62 61 60 59 59 59 60
8 8 9 8 9 9 10 10 11 12 11 11 11 10 6 1 6 14 21 25 26 29 51 60 64 65 66 66 66 66 65 65 65 65 66 65 65 64 63 62 62 62 62 61 60 59 59 59 59
10 9 8 7 8 9 11 13 13 14 14 12 10 10 9 5 3 6 14 24 26 26 32 54 62 64 66 66 65 64 64 64 65 65 65 65 65 64 63 62 62 62 61 61 60 59 58 58 59
10 9 7 9 12 15 15 14 14 14 13 13 12 10 7 5 3 6 11 14 22 26 29 40 58 63 65 65 65 64 64 65 64 65 66 65 65 64 63 62 62 62 61 60 59 58 58 58 59
9 8 9 13 13 13 12 11 10 11 12 13 14 13 10 11 6 1 3 8 15 22 28 38 52 60 64 65 65 64 63 63 64 64 65 65 64 64 63 62 62 62 61 60 59 59 58 57 59
10 12 13 12 12 11 15 13 15 14 13 13 12 12 11 11 6 3 5 6 9 14 27 31 49 59 63 65 64 63 62 62 63 64 64 65 65 64 64 63 62 62 62 61 60 60 59 57 57
10 13 14 14 14 14 15 16 14 13 12 12 13 12 11 7 3 2 5 6 9 14 29 34 43 57 62 65 64 63 62 63 63 64 64 64 65 65 64 63 63 62 62 61 60 60 59 58 57
15 15 18 19 18 15 15 16 13 13 12 13 14 12 11 7 4 4 6 7 12 35 32 47 45 58 62 64 64 63 62 62 62 63 63 63 63 64 64 63 63 62 62 62 61 60 59 58 58
15 14 16 13 11 9 13 19 15 16 16 11 13 11 11 11 9 9 8 7 37 39 48 52 58 61 64 64 64 63 63 62 62 62 61 62 62 62 62 63 62 62 62 62 61 60 60 59 58
15 24 18 11 10 13 19 17 13 15 29 32 29 13 37 49 51 51 52 51 52 54 56 59 60 62 64 64 64 63 62 62 62 62 62 62 62 61 62 62 62 62 62 62 62 61 60 60 59
17 17 18 21 21 19 14 16 15 21 36 39 41 43 47 48 49 50 50 52 53 54 54 56 59 60 61 62 61 62 62 61 61 61 61 61 61 61 61 62 62 62 61 61 61 60 60 60 59
19 18 18 24 14 11 14 13 14 22 34 34 39 41 40 46 48 49 49 49 50 51 52 53 55 56 58 60 61 61 61 61 61 61 60 60 60 60 60 61 61 60 61 61 60 60 60 59 59
15 16 18 22 23 17 15 12 17 30 34 35 39 40 45 46 48 48 47 47 47 48 49 49 51 52 55 57 59 60 60 61 60 60 60 60 60 60 60 60 60 59 59 59 59 59 59 59 59
18 13 18 21 17 19 21 18 33 37 37 40 39 41 44 45 45 45 45 44 44 44 45 46 47 48 50 56 57 58 59 59 60 60 60 60 60 60 60 60 59 58 58 58 58 58 58 58 58

GFSSGP_sfc_30mbdewp_132.txt.gz
Dewpoint
50 47 41 30 16 15 -0 1 16 10 12 15 16 17 27 36 40 38 57 60 63 67 70 70 70 70 71 70 70 70 70 70 71 71 71 71 71 70 71 71 71 71 70 69 69 69 68 68 68
45 43 34 27 7 -4 -9 12 13 14 15 16 16 20 24 30 46 51 56 62 65 68 69 70 70 70 70 71 70 70 70 71 71 71 71 70 70 70 70 70 70 71 70 69 68 68 69 68 68
46 42 33 23 16 -3 -4 10 13 16 18 15 18 21 27 37 47 52 52 65 67 67 69 69 70 70 70 70 71 71 71 70 70 71 71 71 71 71 70 69 70 70 70 69 68 69 69 68 69
36 38 34 24 12 16 12 12 17 18 19 19 22 21 25 38 48 51 61 66 66 67 68 68 69 70 70 70 71 71 70 70 70 70 71 71 70 70 69 68 69 70 69 69 69 69 68 68 68
36 35 27 25 24 23 19 18 19 20 21 22 24 24 25 36 51 57 61 65 63 67 68 68 68 69 70 70 71 71 70 70 69 70 70 70 70 69 67 67 68 69 69 69 69 68 68 68 68
30 32 25 20 23 23 22 23 22 24 23 24 24 24 24 37 44 54 61 63 64 66 67 67 68 68 69 70 70 70 69 69 69 69 69 69 69 68 66 67 68 68 66 66 67 68 67 67 67
29 30 26 25 23 26 26 25 24 23 24 25 25 24 23 30 45 54 59 62 64 65 66 67 67 68 69 69 69 69 69 69 69 68 68 69 69 68 66 66 67 66 65 64 66 67 67 66 66
38 34 31 30 25 26 28 26 27 25 25 27 26 23 24 31 53 59 61 62 63 65 66 66 67 68 68 69 69 69 69 69 69 68 68 68 67 67 65 65 65 65 65 64 66 66 66 65 65
30 27 28 28 26 27 27 26 27 27 26 27 26 26 27 46 61 60 59 61 62 64 65 65 65 67 67 68 68 68 68 69 68 67 67 67 66 66 65 64 65 65 65 64 66 66 65 64 64
23 25 27 27 27 25 25 22 21 22 22 23 24 27 27 49 56 57 58 57 60 61 63 64 65 66 66 67 67 67 68 68 68 67 66 65 64 64 64 62 64 64 65 65 65 66 65 64 64
23 20 22 17 19 14 12 12 17 16 16 15 14 22 19 24 45 55 57 59 60 61 62 63 63 64 65 66 66 66 67 67 67 66 65 64 63 64 63 62 64 64 64 65 65 65 64 63 63
12 11 11 12 13 11 6 10 9 8 8 14 18 15 19 24 26 45 53 55 60 61 62 63 64 63 64 65 65 66 66 66 66 66 64 63 62 62 62 61 61 62 63 64 64 64 64 63 63
12 10 13 14 14 8 7 4 4 5 8 13 16 19 22 24 24 27 37 52 56 59 62 63 64 63 64 64 64 65 65 65 65 65 64 62 61 61 61 61 61 61 62 64 63 63 63 62 62
15 16 16 13 8 6 8 8 7 6 7 9 9 9 10 16 21 24 26 27 47 56 60 62 63 64 64 64 64 63 64 64 64 65 64 62 61 60 61 61 61 62 62 63 62 61 61 62 62
19 14 9 9 9 8 10 1 3 10 11 11 10 10 9 6 8 17 24 27 28 40 57 62 63 64 64 64 64 64 63 64 63 63 64 62 61 60 61 61 62 62 62 62 61 61 61 61 62
10 9 6 10 10 10 8 2 7 9 8 8 11 10 10 11 10 7 14 24 27 30 42 61 63 63 64 64 64 63 63 63 63 63 64 63 62 61 61 61 62 62 61 61 60 60 60 60 61
10 5 8 9 10 8 6 2 1 8 11 11 12 12 11 11 9 10 7 12 19 26 31 54 64 63 63 64 64 64 63 63 63 63 63 64 63 62 61 61 62 62 60 60 60 59 59 59 60
7 8 9 9 9 8 7 8 10 12 14 14 14 13 12 11 10 8 9 8 12 23 30 45 63 64 64 64 64 64 64 63 63 63 63 63 64 63 62 62 61 62 61 60 60 59 58 58 59
10 9 8 7 8 10 10 12 13 12 13 13 14 15 14 14 13 11 9 8 6 12 25 41 61 64 64 64 63 62 62 62 63 63 63 63 64 63 63 62 61 62 61 60 60 58 58 57 59
9 9 7 9 11 12 11 10 10 12 13 14 14 14 14 13 13 13 10 8 11 16 24 30 57 63 65 64 64 63 63 63 63 63 63 63 64 63 63 62 61 62 61 60 59 58 57 57 59
9 8 9 10 12 11 10 8 7 11 15 16 16 16 16 15 14 14 14 11 9 10 18 24 35 61 65 64 64 64 64 64 63 63 63 63 64 63 64 63 62 62 62 60 59 58 57 56 58
7 10 13 13 11 8 14 8 11 13 14 16 22 25 16 15 14 14 14 13 8 5 13 25 28 45 63 64 64 63 63 62 63 63 63 63 64 64 64 63 62 62 62 61 60 59 58 57 56
9 13 13 12 14 16 14 14 12 14 15 15 31 36 33 16 16 14 13 12 8 6 11 22 27 39 55 63 64 63 62 62 63 63 63 63 64 64 64 63 62 62 62 61 60 59 59 58 57
15 15 16 20 18 10 13 13 11 14 15 23 35 38 41 42 15 14 13 11 6 7 19 27 29 39 55 63 64 63 62 62 62 63 63 62 63 64 64 64 63 63 62 62 60 60 59 59 58
15 17 8 5 6 4 10 15 15 20 18 32 34 37 38 43 46 43 41 39 7 20 32 40 36 41 55 62 64 63 62 62 62 62 62 62 63 64 64 63 63 62 62 62 61 60 60 59 58
21 20 13 6 8 9 16 16 16 16 26 32 37 37 42 43 48 49 48 51 52 52 52 52 52 50 57 63 64 64 63 63 62 62 62 62 63 63 64 63 63 63 62 62 61 61 60 60 59
15 13 18 16 18 17 14 14 14 30 33 37 38 37 40 45 47 46 47 48 50 51 54 58 60 61 63 64 64 64 63 63 62 62 62 62 62 62 63 63 62 62 62 62 62 61 60 60 59
17 17 14 20 13 9 10 11 18 28 32 34 37 40 41 42 43 44 44 45 46 47 49 52 55 56 59 61 63 63 63 62 62 62 62 62 62 62 62 62 62 62 62 62 61 61 60 60 59
15 14 15 20 20 15 14 12 25 28 31 34 38 40 40 39 40 42 41 44 43 43 44 45 48 51 53 57 60 61 61 61 61 61 61 61 61 61 61 61 61 61 61 61 60 60 60 59 59
17 13 18 19 16 21 21 17 24 24 31 34 37 38 38 37 37 38 38 41 41 40 40 41 43 45 47 50 53 55 58 60 60 60 60 60 60 60 60 60 60 60 60 60 60 59 59 59 58